Wetterdaten: Montag, 18.03.2019
Datum Zeit Temp. A. Feuchte A. Luftdruck Regen Wind Richtung Richtung Sonnenschein ET UV Solar Taupunkt Windchill Windböen
18.03.2019 00:00 1,7 °C 88 % 1013,7 hPa 0,0 mm 9,3 km/h (2 Bft) W-NW 289 ° 0 min 0,000 mm 0,0 UV-I 0 W/m² -0,1 °C -1,1 °C 12,9 km/h (3 Bft)
18.03.2019 00:01 1,7 °C 88 % 1013,7 hPa 0,0 mm 7,3 km/h (2 Bft) W-NW 288 ° 0 min 0,000 mm 0,0 UV-I 0 W/m² -0,1 °C -0,5 °C 12,9 km/h (3 Bft)
18.03.2019 00:02 1,7 °C 88 % 1013,8 hPa 0,0 mm 10,5 km/h (2 Bft) W-NW 282 ° 0 min 0,000 mm 0,0 UV-I 0 W/m² -0,1 °C -1,4 °C 16,1 km/h (3 Bft)
18.03.2019 00:03 1,7 °C 88 % 1013,7 hPa 0,0 mm 6,5 km/h (2 Bft) W-SW 242 ° 0 min 0,000 mm 0,0 UV-I 0 W/m² -0,1 °C -0,3 °C 11,3 km/h (2 Bft)
18.03.2019 00:04 1,7 °C 88 % 1013,8 hPa 0,0 mm 12,4 km/h (3 Bft) W-NW 292 ° 0 min 0,000 mm 0,0 UV-I 0 W/m² -0,1 °C -1,8 °C 17,7 km/h (3 Bft)
18.03.2019 00:05 1,6 °C 88 % 1013,8 hPa 0,0 mm 10,3 km/h (2 Bft) W-NW 289 ° 0 min 0,000 mm 0,0 UV-I 0 W/m² -0,2 °C -1,5 °C 14,5 km/h (3 Bft)
18.03.2019 00:06 1,6 °C 88 % 1013,7 hPa 0,0 mm 11,9 km/h (2 Bft) W-SW 249 ° 0 min 0,000 mm 0,0 UV-I 0 W/m² -0,2 °C -1,8 °C 16,1 km/h (3 Bft)
18.03.2019 00:07 1,6 °C 88 % 1013,8 hPa 0,0 mm 12,2 km/h (2 Bft) W 278 ° 0 min 0,000 mm 0,0 UV-I 0 W/m² -0,2 °C -1,9 °C 19,3 km/h (3 Bft)
18.03.2019 00:08 1,5 °C 88 % 1013,7 hPa 0,0 mm 16,3 km/h (3 Bft) W-SW 250 ° 0 min 0,000 mm 0,0 UV-I 0 W/m² -0,3 °C -2,8 °C 27,4 km/h (4 Bft)
18.03.2019 00:09 1,4 °C 87 % 1013,8 hPa 0,0 mm 13,5 km/h (3 Bft) W-NW 295 ° 0 min 0,000 mm 0,0 UV-I 0 W/m² -0,5 °C -2,4 °C 24,1 km/h (4 Bft)
18.03.2019 00:10 1,4 °C 88 % 1013,8 hPa 0,0 mm 14,6 km/h (3 Bft) W 263 ° 0 min 0,000 mm 0,0 UV-I 0 W/m² -0,4 °C -2,6 °C 19,3 km/h (3 Bft)
18.03.2019 00:11 1,4 °C 88 % 1013,9 hPa 0,0 mm 11,5 km/h (2 Bft) W-SW 254 ° 0 min 0,000 mm 0,0 UV-I 0 W/m² -0,4 °C -2,0 °C 14,5 km/h (3 Bft)
18.03.2019 00:12 1,3 °C 88 % 1013,9 hPa 0,0 mm 19,2 km/h (3 Bft) W 275 ° 0 min 0,000 mm 0,0 UV-I 0 W/m² -0,5 °C -3,5 °C 25,7 km/h (4 Bft)
18.03.2019 00:13 1,3 °C 87 % 1013,9 hPa 0,0 mm 14,1 km/h (3 Bft) W 275 ° 0 min 0,000 mm 0,0 UV-I 0 W/m² -0,6 °C -2,6 °C 20,9 km/h (4 Bft)
18.03.2019 00:14 1,3 °C 88 % 1014,0 hPa 0,0 mm 11,4 km/h (2 Bft) W-SW 253 ° 0 min 0,000 mm 0,0 UV-I 0 W/m² -0,5 °C -2,1 °C 16,1 km/h (3 Bft)
18.03.2019 00:15 1,3 °C 88 % 1014,0 hPa 0,0 mm 13,9 km/h (3 Bft) W 262 ° 0 min 0,000 mm 0,0 UV-I 0 W/m² -0,5 °C -2,6 °C 20,9 km/h (4 Bft)
18.03.2019 00:16 1,2 °C 88 % 1014,1 hPa 0,0 mm 16,5 km/h (3 Bft) W-NW 283 ° 0 min 0,000 mm 0,0 UV-I 0 W/m² -0,6 °C -3,2 °C 22,5 km/h (4 Bft)
18.03.2019 00:17 1,2 °C 88 % 1014,1 hPa 0,0 mm 13,4 km/h (3 Bft) NW 304 ° 0 min 0,000 mm 0,0 UV-I 0 W/m² -0,6 °C -2,6 °C 17,7 km/h (3 Bft)
18.03.2019 00:18 1,2 °C 88 % 1014,1 hPa 0,0 mm 14,6 km/h (3 Bft) NW 311 ° 0 min 0,000 mm 0,0 UV-I 0 W/m² -0,6 °C -2,9 °C 22,5 km/h (4 Bft)
18.03.2019 00:19 1,2 °C 88 % 1014,1 hPa 0,0 mm 16,2 km/h (3 Bft) W 261 ° 0 min 0,000 mm 0,0 UV-I 0 W/m² -0,6 °C -3,1 °C 22,5 km/h (4 Bft)
18.03.2019 00:20 1,2 °C 88 % 1014,2 hPa 0,0 mm 15,8 km/h (3 Bft) W 262 ° 0 min 0,000 mm 0,0 UV-I 0 W/m² -0,6 °C -3,1 °C 19,3 km/h (3 Bft)
18.03.2019 00:21 1,2 °C 88 % 1014,2 hPa 0,0 mm 11,3 km/h (2 Bft) W-NW 302 ° 0 min 0,000 mm 0,0 UV-I 0 W/m² -0,6 °C -2,2 °C 16,1 km/h (3 Bft)
18.03.2019 00:22 1,2 °C 88 % 1014,2 hPa 0,0 mm 11,9 km/h (2 Bft) N-NW 336 ° 0 min 0,000 mm 0,0 UV-I 0 W/m² -0,6 °C -2,3 °C 16,1 km/h (3 Bft)
18.03.2019 00:23 1,2 °C 88 % 1014,2 hPa 0,0 mm 17,7 km/h (3 Bft) W 261 ° 0 min 0,000 mm 0,0 UV-I 0 W/m² -0,6 °C -3,4 °C 24,1 km/h (4 Bft)
18.03.2019 00:24 1,1 °C 88 % 1014,3 hPa 0,0 mm 12,6 km/h (3 Bft) W-SW 255 ° 0 min 0,000 mm 0,0 UV-I 0 W/m² -0,7 °C -2,6 °C 19,3 km/h (3 Bft)
18.03.2019 00:25 1,1 °C 88 % 1014,3 hPa 0,0 mm 13,7 km/h (3 Bft) W 280 ° 0 min 0,000 mm 0,0 UV-I 0 W/m² -0,7 °C -2,8 °C 17,7 km/h (3 Bft)
18.03.2019 00:26 1,1 °C 88 % 1014,4 hPa 0,0 mm 11,9 km/h (2 Bft) W-SW 251 ° 0 min 0,000 mm 0,0 UV-I 0 W/m² -0,7 °C -2,4 °C 16,1 km/h (3 Bft)
18.03.2019 00:27 1,1 °C 89 % 1014,4 hPa 0,0 mm 5,7 km/h (1 Bft) W 262 ° 0 min 0,000 mm 0,0 UV-I 0 W/m² -0,5 °C -0,6 °C 12,9 km/h (3 Bft)
18.03.2019 00:28 1,1 °C 89 % 1014,3 hPa 0,0 mm 5,8 km/h (2 Bft) W 279 ° 0 min 0,000 mm 0,0 UV-I 0 W/m² -0,5 °C -0,7 °C 9,7 km/h (2 Bft)
18.03.2019 00:29 1,0 °C 89 % 1014,4 hPa 0,0 mm 4,8 km/h (1 Bft) NW 324 ° 0 min 0,000 mm 0,0 UV-I 0 W/m² -0,6 °C -0,4 °C 11,3 km/h (2 Bft)
18.03.2019 00:30 0,9 °C 89 % 1014,4 hPa 0,0 mm 3,4 km/h (1 Bft) W-NW 287 ° 0 min 0,000 mm 0,0 UV-I 0 W/m² -0,7 °C 0,9 °C 6,4 km/h (2 Bft)
18.03.2019 00:31 0,9 °C 89 % 1014,4 hPa 0,0 mm 3,1 km/h (1 Bft) W-NW 298 ° 0 min 0,000 mm 0,0 UV-I 0 W/m² -0,7 °C 0,9 °C 6,4 km/h (2 Bft)
18.03.2019 00:32 0,9 °C 89 % 1014,5 hPa 0,0 mm 7,2 km/h (2 Bft) W-NW 293 ° 0 min 0,000 mm 0,0 UV-I 0 W/m² -0,7 °C -1,4 °C 12,9 km/h (3 Bft)
18.03.2019 00:33 0,8 °C 89 % 1014,5 hPa 0,0 mm 8,9 km/h (2 Bft) NW 311 ° 0 min 0,000 mm 0,0 UV-I 0 W/m² -0,8 °C -2,1 °C 17,7 km/h (3 Bft)
18.03.2019 00:34 0,8 °C 89 % 1014,5 hPa 0,0 mm 7,4 km/h (2 Bft) W 278 ° 0 min 0,000 mm 0,0 UV-I 0 W/m² -0,8 °C -1,6 °C 11,3 km/h (2 Bft)
18.03.2019 00:35 0,7 °C 90 % 1014,6 hPa 0,0 mm 9,4 km/h (2 Bft) W-NW 301 ° 0 min 0,000 mm 0,0 UV-I 0 W/m² -0,7 °C -2,3 °C 14,5 km/h (3 Bft)
18.03.2019 00:36 0,7 °C 90 % 1014,5 hPa 0,0 mm 8,2 km/h (2 Bft) W-NW 302 ° 0 min 0,000 mm 0,0 UV-I 0 W/m² -0,7 °C -2,0 °C 12,9 km/h (3 Bft)
18.03.2019 00:37 0,7 °C 90 % 1014,6 hPa 0,0 mm 12,0 km/h (2 Bft) W 263 ° 0 min 0,000 mm 0,0 UV-I 0 W/m² -0,7 °C -3,0 °C 22,5 km/h (4 Bft)
18.03.2019 00:38 0,6 °C 90 % 1014,6 hPa 0,0 mm 16,8 km/h (3 Bft) W 261 ° 0 min 0,000 mm 0,0 UV-I 0 W/m² -0,8 °C -4,0 °C 22,5 km/h (4 Bft)
18.03.2019 00:39 0,6 °C 90 % 1014,6 hPa 0,0 mm 17,6 km/h (3 Bft) W 269 ° 0 min 0,000 mm 0,0 UV-I 0 W/m² -0,8 °C -4,1 °C 25,7 km/h (4 Bft)
18.03.2019 00:40 0,6 °C 90 % 1014,5 hPa 0,0 mm 17,4 km/h (3 Bft) W-SW 257 ° 0 min 0,000 mm 0,0 UV-I 0 W/m² -0,8 °C -4,1 °C 25,7 km/h (4 Bft)
18.03.2019 00:41 0,5 °C 90 % 1014,6 hPa 0,0 mm 17,8 km/h (3 Bft) W 262 ° 0 min 0,000 mm 0,0 UV-I 0 W/m² -0,9 °C -4,3 °C 24,1 km/h (4 Bft)
18.03.2019 00:42 0,4 °C 90 % 1014,6 hPa 0,0 mm 12,9 km/h (3 Bft) W-NW 290 ° 0 min 0,000 mm 0,0 UV-I 0 W/m² -1,0 °C -3,5 °C 16,1 km/h (3 Bft)
18.03.2019 00:43 0,4 °C 90 % 1014,6 hPa 0,0 mm 13,1 km/h (3 Bft) W 281 ° 0 min 0,000 mm 0,0 UV-I 0 W/m² -1,0 °C -3,6 °C 19,3 km/h (3 Bft)
18.03.2019 00:44 0,4 °C 90 % 1014,7 hPa 0,0 mm 9,9 km/h (2 Bft) W-NW 302 ° 0 min 0,000 mm 0,0 UV-I 0 W/m² -1,0 °C -2,8 °C 17,7 km/h (3 Bft)
18.03.2019 00:45 0,4 °C 90 % 1014,7 hPa 0,0 mm 6,6 km/h (2 Bft) W 266 ° 0 min 0,000 mm 0,0 UV-I 0 W/m² -1,0 °C -1,8 °C 12,9 km/h (3 Bft)
18.03.2019 00:46 0,3 °C 90 % 1014,7 hPa 0,0 mm 7,1 km/h (2 Bft) W 271 ° 0 min 0,000 mm 0,0 UV-I 0 W/m² -1,1 °C -2,1 °C 11,3 km/h (2 Bft)
18.03.2019 00:47 0,3 °C 90 % 1014,7 hPa 0,0 mm 7,7 km/h (2 Bft) W 274 ° 0 min 0,000 mm 0,0 UV-I 0 W/m² -1,1 °C -2,3 °C 11,3 km/h (2 Bft)
18.03.2019 00:48 0,3 °C 90 % 1014,8 hPa 0,0 mm 8,4 km/h (2 Bft) W-NW 286 ° 0 min 0,000 mm 0,0 UV-I 0 W/m² -1,1 °C -2,5 °C 16,1 km/h (3 Bft)
18.03.2019 00:49 0,3 °C 90 % 1014,8 hPa 0,0 mm 7,2 km/h (2 Bft) W 277 ° 0 min 0,000 mm 0,0 UV-I 0 W/m² -1,1 °C -2,1 °C 11,3 km/h (2 Bft)
18.03.2019 00:50 0,3 °C 90 % 1014,8 hPa 0,0 mm 10,9 km/h (2 Bft) W-SW 250 ° 0 min 0,000 mm 0,0 UV-I 0 W/m² -1,1 °C -3,2 °C 16,1 km/h (3 Bft)
18.03.2019 00:51 0,3 °C 90 % 1014,9 hPa 0,0 mm 8,9 km/h (2 Bft) W 281 ° 0 min 0,000 mm 0,0 UV-I 0 W/m² -1,1 °C -2,7 °C 16,1 km/h (3 Bft)
18.03.2019 00:52 0,2 °C 90 % 1014,9 hPa 0,0 mm 9,2 km/h (2 Bft) W 272 ° 0 min 0,000 mm 0,0 UV-I 0 W/m² -1,2 °C -2,9 °C 12,9 km/h (3 Bft)
18.03.2019 00:53 0,2 °C 90 % 1014,9 hPa 0,0 mm 11,0 km/h (2 Bft) W-NW 289 ° 0 min 0,000 mm 0,0 UV-I 0 W/m² -1,2 °C -3,3 °C 14,5 km/h (3 Bft)
18.03.2019 00:54 0,2 °C 90 % 1015,0 hPa 0,0 mm 11,9 km/h (2 Bft) W 266 ° 0 min 0,000 mm 0,0 UV-I 0 W/m² -1,2 °C -3,5 °C 22,5 km/h (4 Bft)
18.03.2019 00:55 0,2 °C 90 % 1015,0 hPa 0,0 mm 19,6 km/h (3 Bft) W-SW 258 ° 0 min 0,000 mm 0,0 UV-I 0 W/m² -1,2 °C -4,9 °C 24,1 km/h (4 Bft)
18.03.2019 00:56 0,2 °C 90 % 1015,0 hPa 0,0 mm 17,0 km/h (3 Bft) W-NW 294 ° 0 min 0,000 mm 0,0 UV-I 0 W/m² -1,2 °C -4,5 °C 24,1 km/h (4 Bft)
18.03.2019 00:57 0,2 °C 90 % 1015,0 hPa 0,0 mm 13,4 km/h (3 Bft) W-SW 257 ° 0 min 0,000 mm 0,0 UV-I 0 W/m² -1,2 °C -3,9 °C 17,7 km/h (3 Bft)
18.03.2019 00:58 0,1 °C 90 % 1015,0 hPa 0,0 mm 14,2 km/h (3 Bft) W-SW 249 ° 0 min 0,000 mm 0,0 UV-I 0 W/m² -1,3 °C -4,1 °C 19,3 km/h (3 Bft)
18.03.2019 00:59 0,1 °C 90 % 1015,0 hPa 0,0 mm 12,6 km/h (3 Bft) W-NW 297 ° 0 min 0,000 mm 0,0 UV-I 0 W/m² -1,3 °C -3,8 °C 20,9 km/h (4 Bft)
18.03.2019 01:00 0,1 °C 90 % 1015,0 hPa 0,0 mm 9,4 km/h (2 Bft) W 272 ° 0 min 0,000 mm 0,0 UV-I 0 W/m² -1,3 °C -3,0 °C 14,5 km/h (3 Bft)
18.03.2019 01:01 0,1 °C 90 % 1014,9 hPa 0,0 mm 6,8 km/h (2 Bft) W-NW 294 ° 0 min 0,000 mm 0,0 UV-I 0 W/m² -1,3 °C -2,2 °C 9,7 km/h (2 Bft)
18.03.2019 01:02 0,1 °C 90 % 1014,9 hPa 0,0 mm 9,9 km/h (2 Bft) W-SW 254 ° 0 min 0,000 mm 0,0 UV-I 0 W/m² -1,3 °C -3,2 °C 14,5 km/h (3 Bft)
18.03.2019 01:03 0,1 °C 90 % 1014,9 hPa 0,0 mm 8,5 km/h (2 Bft) W-SW 242 ° 0 min 0,000 mm 0,0 UV-I 0 W/m² -1,3 °C -2,8 °C 11,3 km/h (2 Bft)
18.03.2019 01:04 0,1 °C 90 % 1014,9 hPa 0,0 mm 11,3 km/h (2 Bft) W 259 ° 0 min 0,000 mm 0,0 UV-I 0 W/m² -1,3 °C -3,5 °C 14,5 km/h (3 Bft)
18.03.2019 01:05 0,1 °C 90 % 1014,9 hPa 0,0 mm 11,5 km/h (2 Bft) W-NW 296 ° 0 min 0,000 mm 0,0 UV-I 0 W/m² -1,3 °C -3,6 °C 19,3 km/h (3 Bft)
18.03.2019 01:06 0,1 °C 90 % 1014,9 hPa 0,0 mm 9,7 km/h (2 Bft) W 273 ° 0 min 0,000 mm 0,0 UV-I 0 W/m² -1,3 °C -3,1 °C 12,9 km/h (3 Bft)
18.03.2019 01:07 0,1 °C 90 % 1014,9 hPa 0,0 mm 6,5 km/h (2 Bft) W 266 ° 0 min 0,000 mm 0,0 UV-I 0 W/m² -1,3 °C -2,1 °C 11,3 km/h (2 Bft)
18.03.2019 01:08 0,1 °C 90 % 1014,9 hPa 0,0 mm 6,0 km/h (2 Bft) W-SW 253 ° 0 min 0,000 mm 0,0 UV-I 0 W/m² -1,3 °C -1,9 °C 11,3 km/h (2 Bft)
18.03.2019 01:09 0,0 °C 90 % 1014,9 hPa 0,0 mm 6,0 km/h (2 Bft) W-SW 258 ° 0 min 0,000 mm 0,0 UV-I 0 W/m² -1,4 °C -2,0 °C 9,7 km/h (2 Bft)
18.03.2019 01:10 0,0 °C 90 % 1015,0 hPa 0,0 mm 7,0 km/h (2 Bft) W 267 ° 0 min 0,000 mm 0,0 UV-I 0 W/m² -1,4 °C -2,4 °C 12,9 km/h (3 Bft)
18.03.2019 01:11 0,0 °C 90 % 1015,0 hPa 0,0 mm 9,5 km/h (2 Bft) W-SW 245 ° 0 min 0,000 mm 0,0 UV-I 0 W/m² -1,4 °C -3,2 °C 16,1 km/h (3 Bft)
18.03.2019 01:12 0,0 °C 90 % 1015,0 hPa 0,0 mm 13,2 km/h (3 Bft) W 261 ° 0 min 0,000 mm 0,0 UV-I 0 W/m² -1,4 °C -4,1 °C 16,1 km/h (3 Bft)
18.03.2019 01:13 0,0 °C 90 % 1015,0 hPa 0,0 mm 13,6 km/h (3 Bft) W 263 ° 0 min 0,000 mm 0,0 UV-I 0 W/m² -1,4 °C -4,1 °C 17,7 km/h (3 Bft)
18.03.2019 01:14 0,0 °C 91 % 1014,9 hPa 0,0 mm 9,4 km/h (2 Bft) W-SW 248 ° 0 min 0,000 mm 0,0 UV-I 0 W/m² -1,3 °C -3,2 °C 14,5 km/h (3 Bft)
18.03.2019 01:15 0,0 °C 91 % 1014,8 hPa 0,0 mm 6,3 km/h (2 Bft) W-SW 248 ° 0 min 0,000 mm 0,0 UV-I 0 W/m² -1,3 °C -2,1 °C 9,7 km/h (2 Bft)
18.03.2019 01:16 0,0 °C 91 % 1014,9 hPa 0,0 mm 8,3 km/h (2 Bft) W 262 ° 0 min 0,000 mm 0,0 UV-I 0 W/m² -1,3 °C -2,8 °C 14,5 km/h (3 Bft)
18.03.2019 01:17 -0,1 °C 91 % 1014,9 hPa 0,0 mm 9,5 km/h (2 Bft) W 261 ° 0 min 0,000 mm 0,0 UV-I 0 W/m² -1,4 °C -3,3 °C 12,9 km/h (3 Bft)
18.03.2019 01:18 -0,1 °C 90 % 1014,8 hPa 0,0 mm 12,6 km/h (3 Bft) W 271 ° 0 min 0,000 mm 0,0 UV-I 0 W/m² -1,5 °C -4,1 °C 14,5 km/h (3 Bft)
18.03.2019 01:19 -0,1 °C 91 % 1014,8 hPa 0,0 mm 9,7 km/h (2 Bft) W 271 ° 0 min 0,000 mm 0,0 UV-I 0 W/m² -1,4 °C -3,4 °C 14,5 km/h (3 Bft)
18.03.2019 01:20 -0,1 °C 91 % 1014,9 hPa 0,0 mm 10,9 km/h (2 Bft) W 264 ° 0 min 0,000 mm 0,0 UV-I 0 W/m² -1,4 °C -3,7 °C 14,5 km/h (3 Bft)
18.03.2019 01:21 -0,1 °C 91 % 1014,9 hPa 0,0 mm 7,5 km/h (2 Bft) W 275 ° 0 min 0,000 mm 0,0 UV-I 0 W/m² -1,4 °C -2,7 °C 12,9 km/h (3 Bft)
18.03.2019 01:22 -0,1 °C 91 % 1014,9 hPa 0,0 mm 6,4 km/h (2 Bft) W-SW 256 ° 0 min 0,000 mm 0,0 UV-I 0 W/m² -1,4 °C -2,3 °C 17,7 km/h (3 Bft)
18.03.2019 01:23 -0,1 °C 91 % 1014,9 hPa 0,0 mm 12,2 km/h (2 Bft) W 259 ° 0 min 0,000 mm 0,0 UV-I 0 W/m² -1,4 °C -4,0 °C 14,5 km/h (3 Bft)
18.03.2019 01:24 -0,1 °C 91 % 1014,9 hPa 0,0 mm 10,9 km/h (2 Bft) W 270 ° 0 min 0,000 mm 0,0 UV-I 0 W/m² -1,4 °C -3,7 °C 14,5 km/h (3 Bft)
18.03.2019 01:25 -0,1 °C 91 % 1014,9 hPa 0,0 mm 8,1 km/h (2 Bft) SW 214 ° 0 min 0,000 mm 0,0 UV-I 0 W/m² -1,4 °C -2,9 °C 11,3 km/h (2 Bft)
18.03.2019 01:26 -0,1 °C 91 % 1014,9 hPa 0,0 mm 7,7 km/h (2 Bft) W 259 ° 0 min 0,000 mm 0,0 UV-I 0 W/m² -1,4 °C -2,8 °C 12,9 km/h (3 Bft)
18.03.2019 01:27 -0,1 °C 91 % 1014,9 hPa 0,0 mm 7,1 km/h (2 Bft) W-SW 254 ° 0 min 0,000 mm 0,0 UV-I 0 W/m² -1,4 °C -2,6 °C 11,3 km/h (2 Bft)
18.03.2019 01:28 -0,1 °C 91 % 1015,0 hPa 0,0 mm 5,8 km/h (2 Bft) SW 236 ° 0 min 0,000 mm 0,0 UV-I 0 W/m² -1,4 °C -2,1 °C 9,7 km/h (2 Bft)
18.03.2019 01:29 -0,1 °C 91 % 1015,0 hPa 0,0 mm 9,7 km/h (2 Bft) SW 236 ° 0 min 0,000 mm 0,0 UV-I 0 W/m² -1,4 °C -3,4 °C 14,5 km/h (3 Bft)
18.03.2019 01:30 -0,1 °C 91 % 1015,1 hPa 0,0 mm 11,8 km/h (2 Bft) W 281 ° 0 min 0,000 mm 0,0 UV-I 0 W/m² -1,4 °C -3,9 °C 19,3 km/h (3 Bft)
18.03.2019 01:31 -0,1 °C 91 % 1015,0 hPa 0,0 mm 12,4 km/h (3 Bft) W 271 ° 0 min 0,000 mm 0,0 UV-I 0 W/m² -1,4 °C -4,0 °C 16,1 km/h (3 Bft)
18.03.2019 01:32 -0,1 °C 91 % 1015,0 hPa 0,0 mm 7,7 km/h (2 Bft) W 267 ° 0 min 0,000 mm 0,0 UV-I 0 W/m² -1,4 °C -2,8 °C 11,3 km/h (2 Bft)
18.03.2019 01:33 -0,1 °C 91 % 1015,0 hPa 0,0 mm 9,6 km/h (2 Bft) W-SW 241 ° 0 min 0,000 mm 0,0 UV-I 0 W/m² -1,4 °C -3,3 °C 14,5 km/h (3 Bft)
18.03.2019 01:34 -0,2 °C 91 % 1015,0 hPa 0,0 mm 7,0 km/h (2 Bft) W-SW 258 ° 0 min 0,000 mm 0,0 UV-I 0 W/m² -1,5 °C -2,6 °C 11,3 km/h (2 Bft)
18.03.2019 01:35 -0,1 °C 91 % 1014,9 hPa 0,0 mm 5,1 km/h (1 Bft) SW 234 ° 0 min 0,000 mm 0,0 UV-I 0 W/m² -1,4 °C -1,7 °C 6,4 km/h (2 Bft)
18.03.2019 01:36 -0,1 °C 91 % 1014,9 hPa 0,0 mm 4,5 km/h (1 Bft) SW 217 ° 0 min 0,000 mm 0,0 UV-I 0 W/m² -1,4 °C -0,1 °C 6,4 km/h (2 Bft)
18.03.2019 01:37 -0,2 °C 91 % 1014,9 hPa 0,0 mm 4,8 km/h (1 Bft) W-SW 242 ° 0 min 0,000 mm 0,0 UV-I 0 W/m² -1,5 °C -1,7 °C 9,7 km/h (2 Bft)
18.03.2019 01:38 -0,2 °C 91 % 1015,0 hPa 0,0 mm 9,2 km/h (2 Bft) SW 232 ° 0 min 0,000 mm 0,0 UV-I 0 W/m² -1,5 °C -3,3 °C 16,1 km/h (3 Bft)
18.03.2019 01:39 -0,2 °C 91 % 1015,0 hPa 0,0 mm 5,4 km/h (1 Bft) W-SW 252 ° 0 min 0,000 mm 0,0 UV-I 0 W/m² -1,5 °C -2,0 °C 8,0 km/h (2 Bft)
18.03.2019 01:40 -0,2 °C 91 % 1015,0 hPa 0,0 mm 5,3 km/h (1 Bft) S-SW 209 ° 0 min 0,000 mm 0,0 UV-I 0 W/m² -1,5 °C -2,0 °C 9,7 km/h (2 Bft)
18.03.2019 01:41 -0,2 °C 91 % 1015,0 hPa 0,0 mm 3,8 km/h (1 Bft) S 187 ° 0 min 0,000 mm 0,0 UV-I 0 W/m² -1,5 °C -0,2 °C 6,4 km/h (2 Bft)
18.03.2019 01:42 -0,2 °C 91 % 1015,0 hPa 0,0 mm 8,9 km/h (2 Bft) W 266 ° 0 min 0,000 mm 0,0 UV-I 0 W/m² -1,5 °C -3,2 °C 12,9 km/h (3 Bft)
18.03.2019 01:43 -0,2 °C 91 % 1015,0 hPa 0,0 mm 9,8 km/h (2 Bft) SW 220 ° 0 min 0,000 mm 0,0 UV-I 0 W/m² -1,5 °C -3,5 °C 14,5 km/h (3 Bft)
18.03.2019 01:44 -0,2 °C 91 % 1015,0 hPa 0,0 mm 13,1 km/h (3 Bft) W 275 ° 0 min 0,000 mm 0,0 UV-I 0 W/m² -1,5 °C -4,3 °C 19,3 km/h (3 Bft)
18.03.2019 01:45 -0,2 °C 91 % 1015,1 hPa 0,0 mm 9,4 km/h (2 Bft) SW 223 ° 0 min 0,000 mm 0,0 UV-I 0 W/m² -1,5 °C -3,4 °C 14,5 km/h (3 Bft)
18.03.2019 01:46 -0,2 °C 91 % 1015,0 hPa 0,0 mm 7,6 km/h (2 Bft) SW 234 ° 0 min 0,000 mm 0,0 UV-I 0 W/m² -1,5 °C -2,8 °C 11,3 km/h (2 Bft)
18.03.2019 01:47 -0,2 °C 91 % 1015,0 hPa 0,0 mm 5,3 km/h (1 Bft) W-SW 250 ° 0 min 0,000 mm 0,0 UV-I 0 W/m² -1,5 °C -2,0 °C 11,3 km/h (2 Bft)
18.03.2019 01:48 -0,2 °C 91 % 1014,9 hPa 0,0 mm 4,0 km/h (1 Bft) W-SW 249 ° 0 min 0,000 mm 0,0 UV-I 0 W/m² -1,5 °C -0,2 °C 11,3 km/h (2 Bft)
18.03.2019 01:49 -0,2 °C 91 % 1014,9 hPa 0,0 mm 6,6 km/h (2 Bft) W 265 ° 0 min 0,000 mm 0,0 UV-I 0 W/m² -1,5 °C -2,5 °C 9,7 km/h (2 Bft)
18.03.2019 01:50 -0,2 °C 91 % 1014,9 hPa 0,0 mm 9,4 km/h (2 Bft) W 269 ° 0 min 0,000 mm 0,0 UV-I 0 W/m² -1,5 °C -3,4 °C 14,5 km/h (3 Bft)
18.03.2019 01:51 -0,2 °C 91 % 1015,0 hPa 0,0 mm 16,7 km/h (3 Bft) W 264 ° 0 min 0,000 mm 0,0 UV-I 0 W/m² -1,5 °C -5,0 °C 22,5 km/h (4 Bft)
18.03.2019 01:52 -0,2 °C 91 % 1014,9 hPa 0,0 mm 12,3 km/h (3 Bft) W-SW 240 ° 0 min 0,000 mm 0,0 UV-I 0 W/m² -1,5 °C -4,1 °C 16,1 km/h (3 Bft)
18.03.2019 01:53 -0,2 °C 91 % 1014,9 hPa 0,0 mm 7,6 km/h (2 Bft) W 273 ° 0 min 0,000 mm 0,0 UV-I 0 W/m² -1,5 °C -2,8 °C 11,3 km/h (2 Bft)
18.03.2019 01:54 -0,2 °C 91 % 1014,9 hPa 0,0 mm 12,4 km/h (3 Bft) W 271 ° 0 min 0,000 mm 0,0 UV-I 0 W/m² -1,5 °C -4,1 °C 19,3 km/h (3 Bft)
18.03.2019 01:55 -0,2 °C 91 % 1014,8 hPa 0,0 mm 10,0 km/h (2 Bft) W-NW 302 ° 0 min 0,000 mm 0,0 UV-I 0 W/m² -1,5 °C -3,6 °C 14,5 km/h (3 Bft)
18.03.2019 01:56 -0,2 °C 91 % 1014,9 hPa 0,0 mm 6,8 km/h (2 Bft) W-NW 282 ° 0 min 0,000 mm 0,0 UV-I 0 W/m² -1,5 °C -2,6 °C 9,7 km/h (2 Bft)
18.03.2019 01:57 -0,1 °C 91 % 1014,9 hPa 0,0 mm 7,5 km/h (2 Bft) W 279 ° 0 min 0,000 mm 0,0 UV-I 0 W/m² -1,4 °C -2,7 °C 11,3 km/h (2 Bft)
18.03.2019 01:58 -0,1 °C 91 % 1014,9 hPa 0,0 mm 7,8 km/h (2 Bft) W 279 ° 0 min 0,000 mm 0,0 UV-I 0 W/m² -1,4 °C -2,8 °C 12,9 km/h (3 Bft)
18.03.2019 01:59 -0,1 °C 91 % 1014,8 hPa 0,0 mm 8,6 km/h (2 Bft) NW 321 ° 0 min 0,000 mm 0,0 UV-I 0 W/m² -1,4 °C -3,0 °C 14,5 km/h (3 Bft)
18.03.2019 02:00 -0,1 °C 91 % 1014,9 hPa 0,0 mm 8,6 km/h (2 Bft) W 279 ° 0 min 0,000 mm 0,0 UV-I 0 W/m² -1,4 °C -3,0 °C 12,9 km/h (3 Bft)
18.03.2019 02:01 -0,1 °C 91 % 1014,9 hPa 0,0 mm 4,8 km/h (1 Bft) W-NW 294 ° 0 min 0,000 mm 0,0 UV-I 0 W/m² -1,4 °C -1,6 °C 9,7 km/h (2 Bft)
18.03.2019 02:02 -0,1 °C 91 % 1014,8 hPa 0,0 mm 4,6 km/h (1 Bft) W 264 ° 0 min 0,000 mm 0,0 UV-I 0 W/m² -1,4 °C -1,5 °C 6,4 km/h (2 Bft)
18.03.2019 02:03 -0,1 °C 91 % 1014,9 hPa 0,0 mm 5,9 km/h (2 Bft) W-SW 255 ° 0 min 0,000 mm 0,0 UV-I 0 W/m² -1,4 °C -2,1 °C 9,7 km/h (2 Bft)
18.03.2019 02:04 -0,1 °C 91 % 1014,9 hPa 0,0 mm 4,9 km/h (1 Bft) W-SW 248 ° 0 min 0,000 mm 0,0 UV-I 0 W/m² -1,4 °C -1,7 °C 8,0 km/h (2 Bft)
18.03.2019 02:05 -0,2 °C 91 % 1014,9 hPa 0,0 mm 3,8 km/h (1 Bft) W-SW 250 ° 0 min 0,000 mm 0,0 UV-I 0 W/m² -1,5 °C -0,2 °C 4,8 km/h (1 Bft)
18.03.2019 02:06 -0,2 °C 91 % 1014,9 hPa 0,0 mm 3,5 km/h (1 Bft) W-SW 252 ° 0 min 0,000 mm 0,0 UV-I 0 W/m² -1,5 °C -0,2 °C 4,8 km/h (1 Bft)
18.03.2019 02:07 -0,2 °C 91 % 1014,9 hPa 0,0 mm 4,2 km/h (1 Bft) W-SW 252 ° 0 min 0,000 mm 0,0 UV-I 0 W/m² -1,5 °C -0,2 °C 4,8 km/h (1 Bft)
18.03.2019 02:08 -0,2 °C 91 % 1014,9 hPa 0,0 mm 1,2 km/h (1 Bft) W-SW 252 ° 0 min 0,000 mm 0,0 UV-I 0 W/m² -1,5 °C -0,2 °C 3,2 km/h (1 Bft)
18.03.2019 02:09 -0,2 °C 91 % 1014,9 hPa 0,0 mm 1,3 km/h (1 Bft) W-SW 252 ° 0 min 0,000 mm 0,0 UV-I 0 W/m² -1,5 °C -0,2 °C 3,2 km/h (1 Bft)
18.03.2019 02:10 -0,2 °C 91 % 1014,9 hPa 0,0 mm 2,9 km/h (1 Bft) W-SW 251 ° 0 min 0,000 mm 0,0 UV-I 0 W/m² -1,5 °C -0,2 °C 4,8 km/h (1 Bft)
18.03.2019 02:11 -0,2 °C 91 % 1014,9 hPa 0,0 mm 2,2 km/h (1 Bft) W-SW 251 ° 0 min 0,000 mm 0,0 UV-I 0 W/m² -1,5 °C -0,2 °C 3,2 km/h (1 Bft)
18.03.2019 02:12 -0,2 °C 91 % 1014,8 hPa 0,0 mm 1,9 km/h (1 Bft) W-SW 251 ° 0 min 0,000 mm 0,0 UV-I 0 W/m² -1,5 °C -0,2 °C 3,2 km/h (1 Bft)
18.03.2019 02:13 -0,2 °C 91 % 1014,8 hPa 0,0 mm 2,7 km/h (1 Bft) W-SW 251 ° 0 min 0,000 mm 0,0 UV-I 0 W/m² -1,5 °C -0,2 °C 4,8 km/h (1 Bft)
18.03.2019 02:14 -0,2 °C 91 % 1014,9 hPa 0,0 mm 3,8 km/h (1 Bft) W 264 ° 0 min 0,000 mm 0,0 UV-I 0 W/m² -1,5 °C -0,2 °C 4,8 km/h (1 Bft)
18.03.2019 02:15 -0,3 °C 91 % 1014,9 hPa 0,0 mm 2,8 km/h (1 Bft) W 263 ° 0 min 0,000 mm 0,0 UV-I 0 W/m² -1,6 °C -0,3 °C 4,8 km/h (1 Bft)
18.03.2019 02:16 -0,2 °C 91 % 1014,8 hPa 0,0 mm 2,5 km/h (1 Bft) SW 214 ° 0 min 0,000 mm 0,0 UV-I 0 W/m² -1,5 °C -0,2 °C 4,8 km/h (1 Bft)
18.03.2019 02:17 -0,3 °C 91 % 1014,8 hPa 0,0 mm 2,3 km/h (1 Bft) SW 221 ° 0 min 0,000 mm 0,0 UV-I 0 W/m² -1,6 °C -0,3 °C 3,2 km/h (1 Bft)
18.03.2019 02:18 -0,3 °C 91 % 1014,8 hPa 0,0 mm 3,4 km/h (1 Bft) W 260 ° 0 min 0,000 mm 0,0 UV-I 0 W/m² -1,6 °C -0,3 °C 4,8 km/h (1 Bft)
18.03.2019 02:19 -0,3 °C 91 % 1014,7 hPa 0,0 mm 4,6 km/h (1 Bft) W 262 ° 0 min 0,000 mm 0,0 UV-I 0 W/m² -1,6 °C -1,7 °C 6,4 km/h (2 Bft)
18.03.2019 02:20 -0,2 °C 91 % 1014,7 hPa 0,0 mm 4,5 km/h (1 Bft) W 267 ° 0 min 0,000 mm 0,0 UV-I 0 W/m² -1,5 °C -0,2 °C 6,4 km/h (2 Bft)
18.03.2019 02:21 -0,2 °C 91 % 1014,7 hPa 0,0 mm 4,7 km/h (1 Bft) W-SW 257 ° 0 min 0,000 mm 0,0 UV-I 0 W/m² -1,5 °C -1,7 °C 6,4 km/h (2 Bft)
18.03.2019 02:22 -0,2 °C 91 % 1014,7 hPa 0,0 mm 8,3 km/h (2 Bft) W 261 ° 0 min 0,000 mm 0,0 UV-I 0 W/m² -1,5 °C -3,1 °C 12,9 km/h (3 Bft)
18.03.2019 02:23 -0,2 °C 91 % 1014,7 hPa 0,0 mm 6,0 km/h (2 Bft) SW 236 ° 0 min 0,000 mm 0,0 UV-I 0 W/m² -1,5 °C -2,3 °C 11,3 km/h (2 Bft)
18.03.2019 02:24 -0,2 °C 91 % 1014,8 hPa 0,0 mm 3,9 km/h (1 Bft) SW 232 ° 0 min 0,000 mm 0,0 UV-I 0 W/m² -1,5 °C -0,2 °C 6,4 km/h (2 Bft)
18.03.2019 02:25 -0,2 °C 91 % 1014,7 hPa 0,0 mm 5,2 km/h (1 Bft) W 259 ° 0 min 0,000 mm 0,0 UV-I 0 W/m² -1,5 °C -1,9 °C 9,7 km/h (2 Bft)
18.03.2019 02:26 -0,2 °C 91 % 1014,8 hPa 0,0 mm 10,1 km/h (2 Bft) W 259 ° 0 min 0,000 mm 0,0 UV-I 0 W/m² -1,5 °C -3,6 °C 14,5 km/h (3 Bft)
18.03.2019 02:27 -0,2 °C 91 % 1014,8 hPa 0,0 mm 3,2 km/h (1 Bft) W-SW 256 ° 0 min 0,000 mm 0,0 UV-I 0 W/m² -1,5 °C -0,2 °C 4,8 km/h (1 Bft)
18.03.2019 02:28 -0,2 °C 91 % 1014,8 hPa 0,0 mm 4,0 km/h (1 Bft) W-SW 244 ° 0 min 0,000 mm 0,0 UV-I 0 W/m² -1,5 °C -0,2 °C 6,4 km/h (2 Bft)
18.03.2019 02:29 -0,2 °C 91 % 1014,8 hPa 0,0 mm 4,2 km/h (1 Bft) W 263 ° 0 min 0,000 mm 0,0 UV-I 0 W/m² -1,5 °C -0,2 °C 9,7 km/h (2 Bft)
18.03.2019 02:30 -0,2 °C 91 % 1014,8 hPa 0,0 mm 6,4 km/h (2 Bft) W 271 ° 0 min 0,000 mm 0,0 UV-I 0 W/m² -1,5 °C -2,4 °C 9,7 km/h (2 Bft)
18.03.2019 02:31 -0,2 °C 91 % 1014,8 hPa 0,0 mm 4,8 km/h (1 Bft) W 263 ° 0 min 0,000 mm 0,0 UV-I 0 W/m² -1,5 °C -1,7 °C 6,4 km/h (2 Bft)
18.03.2019 02:32 -0,2 °C 91 % 1014,7 hPa 0,0 mm 1,9 km/h (1 Bft) W 265 ° 0 min 0,000 mm 0,0 UV-I 0 W/m² -1,5 °C -0,2 °C 3,2 km/h (1 Bft)
18.03.2019 02:33 -0,2 °C 91 % 1014,6 hPa 0,0 mm 0,7 km/h (0 Bft) W 265 ° 0 min 0,000 mm 0,0 UV-I 0 W/m² -1,5 °C -0,2 °C 1,6 km/h (1 Bft)
18.03.2019 02:34 -0,2 °C 91 % 1014,7 hPa 0,0 mm 3,4 km/h (1 Bft) W 262 ° 0 min 0,000 mm 0,0 UV-I 0 W/m² -1,5 °C -0,2 °C 4,8 km/h (1 Bft)
18.03.2019 02:35 -0,1 °C 91 % 1014,6 hPa 0,0 mm 3,4 km/h (1 Bft) W 263 ° 0 min 0,000 mm 0,0 UV-I 0 W/m² -1,4 °C -0,1 °C 6,4 km/h (2 Bft)
18.03.2019 02:36 -0,1 °C 91 % 1014,6 hPa 0,0 mm 3,9 km/h (1 Bft) W-SW 252 ° 0 min 0,000 mm 0,0 UV-I 0 W/m² -1,4 °C -0,1 °C 4,8 km/h (1 Bft)
18.03.2019 02:37 -0,1 °C 91 % 1014,5 hPa 0,0 mm 3,4 km/h (1 Bft) W-SW 243 ° 0 min 0,000 mm 0,0 UV-I 0 W/m² -1,4 °C -0,1 °C 6,4 km/h (2 Bft)
18.03.2019 02:38 -0,1 °C 91 % 1014,6 hPa 0,0 mm 3,2 km/h (1 Bft) W-SW 251 ° 0 min 0,000 mm 0,0 UV-I 0 W/m² -1,4 °C -0,1 °C 4,8 km/h (1 Bft)
18.03.2019 02:39 -0,1 °C 91 % 1014,6 hPa 0,0 mm 4,0 km/h (1 Bft) SW 236 ° 0 min 0,000 mm 0,0 UV-I 0 W/m² -1,4 °C -0,1 °C 6,4 km/h (2 Bft)
18.03.2019 02:40 -0,1 °C 91 % 1014,6 hPa 0,0 mm 2,5 km/h (1 Bft) SW 236 ° 0 min 0,000 mm 0,0 UV-I 0 W/m² -1,4 °C -0,1 °C 3,2 km/h (1 Bft)
18.03.2019 02:41 -0,1 °C 91 % 1014,6 hPa 0,0 mm 3,4 km/h (1 Bft) SW 234 ° 0 min 0,000 mm 0,0 UV-I 0 W/m² -1,4 °C -0,1 °C 4,8 km/h (1 Bft)
18.03.2019 02:42 -0,1 °C 91 % 1014,6 hPa 0,0 mm 4,5 km/h (1 Bft) W-SW 241 ° 0 min 0,000 mm 0,0 UV-I 0 W/m² -1,4 °C -0,1 °C 6,4 km/h (2 Bft)
18.03.2019 02:43 -0,1 °C 91 % 1014,7 hPa 0,0 mm 3,6 km/h (1 Bft) W-SW 255 ° 0 min 0,000 mm 0,0 UV-I 0 W/m² -1,4 °C -0,1 °C 4,8 km/h (1 Bft)
18.03.2019 02:44 -0,1 °C 91 % 1014,7 hPa 0,0 mm 2,9 km/h (1 Bft) W-SW 250 ° 0 min 0,000 mm 0,0 UV-I 0 W/m² -1,4 °C -0,1 °C 6,4 km/h (2 Bft)
18.03.2019 02:45 -0,1 °C 91 % 1014,7 hPa 0,0 mm 2,9 km/h (1 Bft) S 188 ° 0 min 0,000 mm 0,0 UV-I 0 W/m² -1,4 °C -0,1 °C 6,4 km/h (2 Bft)
18.03.2019 02:46 -0,1 °C 91 % 1014,6 hPa 0,0 mm 6,2 km/h (2 Bft) S 191 ° 0 min 0,000 mm 0,0 UV-I 0 W/m² -1,4 °C -2,2 °C 9,7 km/h (2 Bft)
18.03.2019 02:47 0,0 °C 91 % 1014,6 hPa 0,0 mm 5,2 km/h (1 Bft) W 269 ° 0 min 0,000 mm 0,0 UV-I 0 W/m² -1,3 °C -1,7 °C 11,3 km/h (2 Bft)
18.03.2019 02:48 -0,1 °C 91 % 1014,6 hPa 0,0 mm 5,2 km/h (1 Bft) W 262 ° 0 min 0,000 mm 0,0 UV-I 0 W/m² -1,4 °C -1,8 °C 9,7 km/h (2 Bft)
18.03.2019 02:49 0,0 °C 91 % 1014,7 hPa 0,0 mm 5,4 km/h (1 Bft) SW 219 ° 0 min 0,000 mm 0,0 UV-I 0 W/m² -1,3 °C -1,8 °C 11,3 km/h (2 Bft)
18.03.2019 02:50 0,0 °C 91 % 1014,6 hPa 0,0 mm 4,6 km/h (1 Bft) W 269 ° 0 min 0,000 mm 0,0 UV-I 0 W/m² -1,3 °C -1,4 °C 9,7 km/h (2 Bft)
18.03.2019 02:51 0,1 °C 91 % 1014,6 hPa 0,0 mm 2,7 km/h (1 Bft) SW 221 ° 0 min 0,000 mm 0,0 UV-I 0 W/m² -1,2 °C 0,1 °C 4,8 km/h (1 Bft)
18.03.2019 02:52 0,1 °C 91 % 1014,6 hPa 0,0 mm 3,8 km/h (1 Bft) SW 227 ° 0 min 0,000 mm 0,0 UV-I 0 W/m² -1,2 °C 0,1 °C 6,4 km/h (2 Bft)
18.03.2019 02:53 0,1 °C 91 % 1014,6 hPa 0,0 mm 2,1 km/h (1 Bft) SW 217 ° 0 min 0,000 mm 0,0 UV-I 0 W/m² -1,2 °C 0,1 °C 4,8 km/h (1 Bft)
18.03.2019 02:54 0,1 °C 91 % 1014,5 hPa 0,0 mm 3,1 km/h (1 Bft) W-SW 238 ° 0 min 0,000 mm 0,0 UV-I 0 W/m² -1,2 °C 0,1 °C 4,8 km/h (1 Bft)
18.03.2019 02:55 0,0 °C 91 % 1014,6 hPa 0,0 mm 2,3 km/h (1 Bft) S 191 ° 0 min 0,000 mm 0,0 UV-I 0 W/m² -1,3 °C 0,0 °C 4,8 km/h (1 Bft)
18.03.2019 02:56 0,1 °C 91 % 1014,5 hPa 0,0 mm 4,5 km/h (1 Bft) SW 215 ° 0 min 0,000 mm 0,0 UV-I 0 W/m² -1,2 °C 0,1 °C 6,4 km/h (2 Bft)
18.03.2019 02:57 0,1 °C 91 % 1014,6 hPa 0,0 mm 3,2 km/h (1 Bft) SW 221 ° 0 min 0,000 mm 0,0 UV-I 0 W/m² -1,2 °C 0,1 °C 4,8 km/h (1 Bft)
18.03.2019 02:58 0,1 °C 91 % 1014,5 hPa 0,0 mm 5,1 km/h (1 Bft) S 175 ° 0 min 0,000 mm 0,0 UV-I 0 W/m² -1,2 °C -1,5 °C 8,0 km/h (2 Bft)
18.03.2019 02:59 0,1 °C 91 % 1014,5 hPa 0,0 mm 3,5 km/h (1 Bft) S-SW 198 ° 0 min 0,000 mm 0,0 UV-I 0 W/m² -1,2 °C 0,1 °C 4,8 km/h (1 Bft)
18.03.2019 03:00 0,1 °C 91 % 1014,5 hPa 0,0 mm 6,1 km/h (2 Bft) SW 220 ° 0 min 0,000 mm 0,0 UV-I 0 W/m² -1,2 °C -1,9 °C 11,3 km/h (2 Bft)
18.03.2019 03:01 0,1 °C 91 % 1014,5 hPa 0,0 mm 7,5 km/h (2 Bft) SW 236 ° 0 min 0,000 mm 0,0 UV-I 0 W/m² -1,2 °C -2,5 °C 14,5 km/h (3 Bft)
18.03.2019 03:02 0,1 °C 91 % 1014,5 hPa 0,0 mm 3,8 km/h (1 Bft) W-SW 242 ° 0 min 0,000 mm 0,0 UV-I 0 W/m² -1,2 °C 0,1 °C 4,8 km/h (1 Bft)
18.03.2019 03:03 0,1 °C 91 % 1014,5 hPa 0,0 mm 2,5 km/h (1 Bft) S-SW 202 ° 0 min 0,000 mm 0,0 UV-I 0 W/m² -1,2 °C 0,1 °C 4,8 km/h (1 Bft)
18.03.2019 03:04 0,1 °C 91 % 1014,5 hPa 0,0 mm 2,3 km/h (1 Bft) S-SW 202 ° 0 min 0,000 mm 0,0 UV-I 0 W/m² -1,2 °C 0,1 °C 3,2 km/h (1 Bft)
18.03.2019 03:05 0,1 °C 91 % 1014,4 hPa 0,0 mm 3,4 km/h (1 Bft) S-SW 202 ° 0 min 0,000 mm 0,0 UV-I 0 W/m² -1,2 °C 0,1 °C 4,8 km/h (1 Bft)
18.03.2019 03:06 0,1 °C 91 % 1014,3 hPa 0,0 mm 2,4 km/h (1 Bft) S-SW 201 ° 0 min 0,000 mm 0,0 UV-I 0 W/m² -1,2 °C 0,1 °C 4,8 km/h (1 Bft)
18.03.2019 03:07 0,1 °C 91 % 1014,4 hPa 0,0 mm 1,0 km/h (0 Bft) S-SW 201 ° 0 min 0,000 mm 0,0 UV-I 0 W/m² -1,2 °C 0,1 °C 3,2 km/h (1 Bft)
18.03.2019 03:08 0,1 °C 91 % 1014,3 hPa 0,0 mm 0,8 km/h (0 Bft) S-SW 201 ° 0 min 0,000 mm 0,0 UV-I 0 W/m² -1,2 °C 0,1 °C 3,2 km/h (1 Bft)
18.03.2019 03:09 0,1 °C 91 % 1014,4 hPa 0,0 mm 1,3 km/h (1 Bft) S-SW 202 ° 0 min 0,000 mm 0,0 UV-I 0 W/m² -1,2 °C 0,1 °C 3,2 km/h (1 Bft)
18.03.2019 03:10 0,1 °C 91 % 1014,4 hPa 0,0 mm 0,1 km/h (0 Bft) S-SW 202 ° 0 min 0,000 mm 0,0 UV-I 0 W/m² -1,2 °C 0,1 °C 1,6 km/h (1 Bft)
18.03.2019 03:11 0,1 °C 91 % 1014,4 hPa 0,0 mm 0,0 km/h (0 Bft) S-SW 202 ° 0 min 0,000 mm 0,0 UV-I 0 W/m² -1,2 °C 0,1 °C 0,0 km/h (0 Bft)
18.03.2019 03:12 0,0 °C 91 % 1014,3 hPa 0,0 mm 0,0 km/h (0 Bft) S-SW 202 ° 0 min 0,000 mm 0,0 UV-I 0 W/m² -1,3 °C 0,0 °C 0,0 km/h (0 Bft)
18.03.2019 03:13 0,0 °C 91 % 1014,3 hPa 0,0 mm 0,0 km/h (0 Bft) S-SW 202 ° 0 min 0,000 mm 0,0 UV-I 0 W/m² -1,3 °C 0,0 °C 0,0 km/h (0 Bft)
18.03.2019 03:14 0,0 °C 91 % 1014,3 hPa 0,0 mm 0,1 km/h (0 Bft) S-SW 202 ° 0 min 0,000 mm 0,0 UV-I 0 W/m² -1,3 °C 0,0 °C 1,6 km/h (1 Bft)
18.03.2019 03:15 -0,1 °C 91 % 1014,3 hPa 0,0 mm 0,0 km/h (0 Bft) S-SW 202 ° 0 min 0,000 mm 0,0 UV-I 0 W/m² -1,4 °C -0,1 °C 0,0 km/h (0 Bft)
18.03.2019 03:16 -0,1 °C 91 % 1014,3 hPa 0,0 mm 0,0 km/h (0 Bft) S-SW 202 ° 0 min 0,000 mm 0,0 UV-I 0 W/m² -1,4 °C -0,1 °C 0,0 km/h (0 Bft)
18.03.2019 03:17 -0,1 °C 91 % 1014,3 hPa 0,0 mm 0,0 km/h (0 Bft) S-SW 202 ° 0 min 0,000 mm 0,0 UV-I 0 W/m² -1,4 °C -0,1 °C 0,0 km/h (0 Bft)
18.03.2019 03:18 -0,2 °C 91 % 1014,3 hPa 0,0 mm 0,0 km/h (0 Bft) S-SW 202 ° 0 min 0,000 mm 0,0 UV-I 0 W/m² -1,5 °C -0,2 °C 0,0 km/h (0 Bft)
18.03.2019 03:19 -0,2 °C 91 % 1014,2 hPa 0,0 mm 0,0 km/h (0 Bft) S-SW 202 ° 0 min 0,000 mm 0,0 UV-I 0 W/m² -1,5 °C -0,2 °C 0,0 km/h (0 Bft)
18.03.2019 03:20 -0,2 °C 91 % 1014,3 hPa 0,0 mm 0,0 km/h (0 Bft) S-SW 202 ° 0 min 0,000 mm 0,0 UV-I 0 W/m² -1,5 °C -0,2 °C 0,0 km/h (0 Bft)
18.03.2019 03:21 -0,2 °C 92 % 1014,3 hPa 0,0 mm 0,0 km/h (0 Bft) S-SW 202 ° 0 min 0,000 mm 0,0 UV-I 0 W/m² -1,3 °C -0,2 °C 0,0 km/h (0 Bft)
18.03.2019 03:22 -0,2 °C 92 % 1014,3 hPa 0,0 mm 0,0 km/h (0 Bft) S-SW 202 ° 0 min 0,000 mm 0,0 UV-I 0 W/m² -1,3 °C -0,2 °C 0,0 km/h (0 Bft)
18.03.2019 03:23 -0,3 °C 92 % 1014,4 hPa 0,0 mm 0,0 km/h (0 Bft) S-SW 202 ° 0 min 0,000 mm 0,0 UV-I 0 W/m² -1,4 °C -0,3 °C 0,0 km/h (0 Bft)
18.03.2019 03:24 -0,3 °C 92 % 1014,4 hPa 0,0 mm 0,0 km/h (0 Bft) S-SW 202 ° 0 min 0,000 mm 0,0 UV-I 0 W/m² -1,4 °C -0,3 °C 0,0 km/h (0 Bft)
18.03.2019 03:25 -0,3 °C 92 % 1014,4 hPa 0,0 mm 0,0 km/h (0 Bft) S-SW 202 ° 0 min 0,000 mm 0,0 UV-I 0 W/m² -1,4 °C -0,3 °C 0,0 km/h (0 Bft)
18.03.2019 03:26 -0,3 °C 92 % 1014,3 hPa 0,0 mm 0,0 km/h (0 Bft) S-SW 202 ° 0 min 0,000 mm 0,0 UV-I 0 W/m² -1,4 °C -0,3 °C 0,0 km/h (0 Bft)
18.03.2019 03:27 -0,3 °C 92 % 1014,3 hPa 0,0 mm 0,0 km/h (0 Bft) S-SW 202 ° 0 min 0,000 mm 0,0 UV-I 0 W/m² -1,4 °C -0,3 °C 0,0 km/h (0 Bft)
18.03.2019 03:28 -0,3 °C 92 % 1014,3 hPa 0,0 mm 0,0 km/h (0 Bft) S-SW 202 ° 0 min 0,000 mm 0,0 UV-I 0 W/m² -1,4 °C -0,3 °C 0,0 km/h (0 Bft)
18.03.2019 03:29 -0,3 °C 92 % 1014,4 hPa 0,0 mm 0,0 km/h (0 Bft) S-SW 202 ° 0 min 0,000 mm 0,0 UV-I 0 W/m² -1,4 °C -0,3 °C 0,0 km/h (0 Bft)
18.03.2019 03:30 -0,3 °C 92 % 1014,5 hPa 0,0 mm 0,0 km/h (0 Bft) S-SW 202 ° 0 min 0,000 mm 0,0 UV-I 0 W/m² -1,4 °C -0,3 °C 0,0 km/h (0 Bft)
18.03.2019 03:31 -0,2 °C 92 % 1014,5 hPa 0,0 mm 0,0 km/h (0 Bft) S-SW 202 ° 0 min 0,000 mm 0,0 UV-I 0 W/m² -1,3 °C -0,2 °C 0,0 km/h (0 Bft)
18.03.2019 03:32 -0,3 °C 92 % 1014,6 hPa 0,0 mm 0,0 km/h (0 Bft) S-SW 202 ° 0 min 0,000 mm 0,0 UV-I 0 W/m² -1,4 °C -0,3 °C 0,0 km/h (0 Bft)
18.03.2019 03:33 -0,3 °C 92 % 1014,5 hPa 0,0 mm 0,0 km/h (0 Bft) S-SW 202 ° 0 min 0,000 mm 0,0 UV-I 0 W/m² -1,4 °C -0,3 °C 0,0 km/h (0 Bft)
18.03.2019 03:34 -0,3 °C 92 % 1014,5 hPa 0,0 mm 0,0 km/h (0 Bft) S-SW 202 ° 0 min 0,000 mm 0,0 UV-I 0 W/m² -1,4 °C -0,3 °C 0,0 km/h (0 Bft)
18.03.2019 03:35 -0,2 °C 92 % 1014,5 hPa 0,0 mm 0,0 km/h (0 Bft) S-SW 202 ° 0 min 0,000 mm 0,0 UV-I 0 W/m² -1,3 °C -0,2 °C 0,0 km/h (0 Bft)
18.03.2019 03:36 -0,2 °C 92 % 1014,5 hPa 0,0 mm 0,0 km/h (0 Bft) S-SW 202 ° 0 min 0,000 mm 0,0 UV-I 0 W/m² -1,3 °C -0,2 °C 0,0 km/h (0 Bft)
18.03.2019 03:37 -0,2 °C 92 % 1014,5 hPa 0,0 mm 0,0 km/h (0 Bft) S-SW 202 ° 0 min 0,000 mm 0,0 UV-I 0 W/m² -1,3 °C -0,2 °C 0,0 km/h (0 Bft)
18.03.2019 03:38 -0,3 °C 92 % 1014,5 hPa 0,0 mm 0,0 km/h (0 Bft) S-SW 202 ° 0 min 0,000 mm 0,0 UV-I 0 W/m² -1,4 °C -0,3 °C 0,0 km/h (0 Bft)
18.03.2019 03:39 -0,3 °C 92 % 1014,5 hPa 0,0 mm 0,0 km/h (0 Bft) S-SW 202 ° 0 min 0,000 mm 0,0 UV-I 0 W/m² -1,4 °C -0,3 °C 0,0 km/h (0 Bft)
18.03.2019 03:40 -0,3 °C 92 % 1014,5 hPa 0,0 mm 0,0 km/h (0 Bft) S-SW 202 ° 0 min 0,000 mm 0,0 UV-I 0 W/m² -1,4 °C -0,3 °C 0,0 km/h (0 Bft)
18.03.2019 03:41 -0,3 °C 92 % 1014,5 hPa 0,0 mm 0,0 km/h (0 Bft) S-SW 202 ° 0 min 0,000 mm 0,0 UV-I 0 W/m² -1,4 °C -0,3 °C 0,0 km/h (0 Bft)
18.03.2019 03:42 -0,3 °C 92 % 1014,5 hPa 0,0 mm 0,0 km/h (0 Bft) S-SW 202 ° 0 min 0,000 mm 0,0 UV-I 0 W/m² -1,4 °C -0,3 °C 0,0 km/h (0 Bft)
18.03.2019 03:43 -0,3 °C 92 % 1014,5 hPa 0,0 mm 0,0 km/h (0 Bft) S-SW 202 ° 0 min 0,000 mm 0,0 UV-I 0 W/m² -1,4 °C -0,3 °C 0,0 km/h (0 Bft)
18.03.2019 03:44 -0,3 °C 92 % 1014,5 hPa 0,0 mm 0,0 km/h (0 Bft) S-SW 202 ° 0 min 0,000 mm 0,0 UV-I 0 W/m² -1,4 °C -0,3 °C 0,0 km/h (0 Bft)
18.03.2019 03:45 -0,3 °C 92 % 1014,5 hPa 0,0 mm 0,0 km/h (0 Bft) S-SW 202 ° 0 min 0,000 mm 0,0 UV-I 0 W/m² -1,4 °C -0,3 °C 0,0 km/h (0 Bft)
18.03.2019 03:46 -0,3 °C 92 % 1014,5 hPa 0,0 mm 0,0 km/h (0 Bft) S-SW 202 ° 0 min 0,000 mm 0,0 UV-I 0 W/m² -1,4 °C -0,3 °C 0,0 km/h (0 Bft)
18.03.2019 03:47 -0,3 °C 92 % 1014,6 hPa 0,0 mm 0,0 km/h (0 Bft) S-SW 202 ° 0 min 0,000 mm 0,0 UV-I 0 W/m² -1,4 °C -0,3 °C 0,0 km/h (0 Bft)
18.03.2019 03:48 -0,3 °C 92 % 1014,6 hPa 0,0 mm 0,0 km/h (0 Bft) S-SW 202 ° 0 min 0,000 mm 0,0 UV-I 0 W/m² -1,4 °C -0,3 °C 0,0 km/h (0 Bft)
18.03.2019 03:49 -0,3 °C 92 % 1014,7 hPa 0,0 mm 0,0 km/h (0 Bft) S-SW 202 ° 0 min 0,000 mm 0,0 UV-I 0 W/m² -1,4 °C -0,3 °C 0,0 km/h (0 Bft)
18.03.2019 03:50 -0,3 °C 92 % 1014,6 hPa 0,0 mm 0,0 km/h (0 Bft) S-SW 202 ° 0 min 0,000 mm 0,0 UV-I 0 W/m² -1,4 °C -0,3 °C 0,0 km/h (0 Bft)
18.03.2019 03:51 -0,3 °C 92 % 1014,7 hPa 0,0 mm 0,0 km/h (0 Bft) S-SW 202 ° 0 min 0,000 mm 0,0 UV-I 0 W/m² -1,4 °C -0,3 °C 0,0 km/h (0 Bft)
18.03.2019 03:52 -0,3 °C 92 % 1014,7 hPa 0,0 mm 0,1 km/h (0 Bft) S-SW 202 ° 0 min 0,000 mm 0,0 UV-I 0 W/m² -1,4 °C -0,3 °C 1,6 km/h (1 Bft)
18.03.2019 03:53 -0,3 °C 93 % 1014,7 hPa 0,0 mm 0,0 km/h (0 Bft) S-SW 202 ° 0 min 0,000 mm 0,0 UV-I 0 W/m² -1,3 °C -0,3 °C 0,0 km/h (0 Bft)
18.03.2019 03:54 -0,3 °C 93 % 1014,6 hPa 0,0 mm 0,0 km/h (0 Bft) S-SW 202 ° 0 min 0,000 mm 0,0 UV-I 0 W/m² -1,3 °C -0,3 °C 0,0 km/h (0 Bft)
18.03.2019 03:55 -0,3 °C 93 % 1014,6 hPa 0,0 mm 0,0 km/h (0 Bft) S-SW 202 ° 0 min 0,000 mm 0,0 UV-I 0 W/m² -1,3 °C -0,3 °C 0,0 km/h (0 Bft)
18.03.2019 03:56 -0,3 °C 92 % 1014,6 hPa 0,0 mm 0,0 km/h (0 Bft) S-SW 202 ° 0 min 0,000 mm 0,0 UV-I 0 W/m² -1,4 °C -0,3 °C 0,0 km/h (0 Bft)
18.03.2019 03:57 -0,3 °C 93 % 1014,6 hPa 0,0 mm 0,0 km/h (0 Bft) S-SW 202 ° 0 min 0,000 mm 0,0 UV-I 0 W/m² -1,3 °C -0,3 °C 0,0 km/h (0 Bft)
18.03.2019 03:58 -0,3 °C 93 % 1014,6 hPa 0,0 mm 0,0 km/h (0 Bft) S-SW 202 ° 0 min 0,000 mm 0,0 UV-I 0 W/m² -1,3 °C -0,3 °C 0,0 km/h (0 Bft)
18.03.2019 03:59 -0,3 °C 93 % 1014,5 hPa 0,0 mm 0,0 km/h (0 Bft) S-SW 202 ° 0 min 0,000 mm 0,0 UV-I 0 W/m² -1,3 °C -0,3 °C 0,0 km/h (0 Bft)
18.03.2019 04:00 -0,3 °C 93 % 1014,5 hPa 0,0 mm 0,0 km/h (0 Bft) S-SW 202 ° 0 min 0,000 mm 0,0 UV-I 0 W/m² -1,3 °C -0,3 °C 0,0 km/h (0 Bft)
18.03.2019 04:01 -0,3 °C 93 % 1014,6 hPa 0,0 mm 0,0 km/h (0 Bft) S-SW 202 ° 0 min 0,000 mm 0,0 UV-I 0 W/m² -1,3 °C -0,3 °C 0,0 km/h (0 Bft)
18.03.2019 04:02 -0,3 °C 93 % 1014,6 hPa 0,0 mm 0,0 km/h (0 Bft) S-SW 202 ° 0 min 0,000 mm 0,0 UV-I 0 W/m² -1,3 °C -0,3 °C 0,0 km/h (0 Bft)
18.03.2019 04:03 -0,3 °C 93 % 1014,6 hPa 0,0 mm 0,0 km/h (0 Bft) S-SW 202 ° 0 min 0,000 mm 0,0 UV-I 0 W/m² -1,3 °C -0,3 °C 0,0 km/h (0 Bft)
18.03.2019 04:04 -0,3 °C 93 % 1014,5 hPa 0,0 mm 0,0 km/h (0 Bft) S-SW 202 ° 0 min 0,000 mm 0,0 UV-I 0 W/m² -1,3 °C -0,3 °C 0,0 km/h (0 Bft)
18.03.2019 04:05 -0,3 °C 93 % 1014,5 hPa 0,0 mm 1,1 km/h (1 Bft) S-SW 202 ° 0 min 0,000 mm 0,0 UV-I 0 W/m² -1,3 °C -0,3 °C 3,2 km/h (1 Bft)
18.03.2019 04:06 -0,3 °C 93 % 1014,5 hPa 0,0 mm 1,4 km/h (1 Bft) S-SW 202 ° 0 min 0,000 mm 0,0 UV-I 0 W/m² -1,3 °C -0,3 °C 3,2 km/h (1 Bft)
18.03.2019 04:07 -0,3 °C 93 % 1014,4 hPa 0,0 mm 0,0 km/h (0 Bft) S-SW 202 ° 0 min 0,000 mm 0,0 UV-I 0 W/m² -1,3 °C -0,3 °C 0,0 km/h (0 Bft)
18.03.2019 04:08 -0,3 °C 93 % 1014,2 hPa 0,0 mm 0,9 km/h (0 Bft) S-SW 202 ° 0 min 0,000 mm 0,0 UV-I 0 W/m² -1,3 °C -0,3 °C 1,6 km/h (1 Bft)
18.03.2019 04:09 -0,3 °C 93 % 1014,2 hPa 0,0 mm 1,5 km/h (1 Bft) S-SW 202 ° 0 min 0,000 mm 0,0 UV-I 0 W/m² -1,3 °C -0,3 °C 3,2 km/h (1 Bft)
18.03.2019 04:10 -0,3 °C 93 % 1014,2 hPa 0,0 mm 1,3 km/h (1 Bft) S-SW 202 ° 0 min 0,000 mm 0,0 UV-I 0 W/m² -1,3 °C -0,3 °C 1,6 km/h (1 Bft)
18.03.2019 04:11 -0,3 °C 93 % 1014,1 hPa 0,0 mm 0,0 km/h (0 Bft) S-SW 202 ° 0 min 0,000 mm 0,0 UV-I 0 W/m² -1,3 °C -0,3 °C 0,0 km/h (0 Bft)
18.03.2019 04:12 -0,3 °C 93 % 1014,1 hPa 0,0 mm 0,1 km/h (0 Bft) S-SW 202 ° 0 min 0,000 mm 0,0 UV-I 0 W/m² -1,3 °C -0,3 °C 1,6 km/h (1 Bft)
18.03.2019 04:13 -0,3 °C 93 % 1014,1 hPa 0,0 mm 0,0 km/h (0 Bft) S-SW 202 ° 0 min 0,000 mm 0,0 UV-I 0 W/m² -1,3 °C -0,3 °C 0,0 km/h (0 Bft)
18.03.2019 04:14 -0,3 °C 93 % 1014,1 hPa 0,0 mm 0,0 km/h (0 Bft) S-SW 202 ° 0 min 0,000 mm 0,0 UV-I 0 W/m² -1,3 °C -0,3 °C 0,0 km/h (0 Bft)
18.03.2019 04:15 -0,3 °C 93 % 1014,1 hPa 0,0 mm 0,0 km/h (0 Bft) S-SW 202 ° 0 min 0,000 mm 0,0 UV-I 0 W/m² -1,3 °C -0,3 °C 0,0 km/h (0 Bft)
18.03.2019 04:16 -0,4 °C 93 % 1014,1 hPa 0,0 mm 0,0 km/h (0 Bft) S-SW 202 ° 0 min 0,000 mm 0,0 UV-I 0 W/m² -1,4 °C -0,4 °C 0,0 km/h (0 Bft)
18.03.2019 04:17 -0,4 °C 93 % 1014,2 hPa 0,0 mm 0,0 km/h (0 Bft) S-SW 202 ° 0 min 0,000 mm 0,0 UV-I 0 W/m² -1,4 °C -0,4 °C 0,0 km/h (0 Bft)
18.03.2019 04:18 -0,3 °C 93 % 1014,2 hPa 0,0 mm 0,0 km/h (0 Bft) S-SW 202 ° 0 min 0,000 mm 0,0 UV-I 0 W/m² -1,3 °C -0,3 °C 0,0 km/h (0 Bft)
18.03.2019 04:19 -0,4 °C 93 % 1014,2 hPa 0,0 mm 0,0 km/h (0 Bft) S-SW 202 ° 0 min 0,000 mm 0,0 UV-I 0 W/m² -1,4 °C -0,4 °C 0,0 km/h (0 Bft)
18.03.2019 04:20 -0,4 °C 93 % 1014,2 hPa 0,0 mm 0,0 km/h (0 Bft) S-SW 202 ° 0 min 0,000 mm 0,0 UV-I 0 W/m² -1,4 °C -0,4 °C 0,0 km/h (0 Bft)
18.03.2019 04:21 -0,5 °C 92 % 1014,3 hPa 0,0 mm 0,0 km/h (0 Bft) S-SW 202 ° 0 min 0,000 mm 0,0 UV-I 0 W/m² -1,6 °C -0,5 °C 0,0 km/h (0 Bft)
18.03.2019 04:22 -0,5 °C 92 % 1014,3 hPa 0,0 mm 0,0 km/h (0 Bft) S-SW 202 ° 0 min 0,000 mm 0,0 UV-I 0 W/m² -1,6 °C -0,5 °C 0,0 km/h (0 Bft)
18.03.2019 04:23 -0,5 °C 93 % 1014,4 hPa 0,0 mm 0,0 km/h (0 Bft) S-SW 202 ° 0 min 0,000 mm 0,0 UV-I 0 W/m² -1,5 °C -0,5 °C 0,0 km/h (0 Bft)
18.03.2019 04:24 -0,5 °C 93 % 1014,4 hPa 0,0 mm 0,0 km/h (0 Bft) S-SW 202 ° 0 min 0,000 mm 0,0 UV-I 0 W/m² -1,5 °C -0,5 °C 0,0 km/h (0 Bft)
18.03.2019 04:25 -0,4 °C 93 % 1014,4 hPa 0,0 mm 0,0 km/h (0 Bft) S-SW 202 ° 0 min 0,000 mm 0,0 UV-I 0 W/m² -1,4 °C -0,4 °C 0,0 km/h (0 Bft)
18.03.2019 04:26 -0,4 °C 93 % 1014,4 hPa 0,0 mm 0,0 km/h (0 Bft) S-SW 202 ° 0 min 0,000 mm 0,0 UV-I 0 W/m² -1,4 °C -0,4 °C 0,0 km/h (0 Bft)
18.03.2019 04:27 -0,4 °C 93 % 1014,4 hPa 0,0 mm 0,0 km/h (0 Bft) S-SW 202 ° 0 min 0,000 mm 0,0 UV-I 0 W/m² -1,4 °C -0,4 °C 0,0 km/h (0 Bft)
18.03.2019 04:28 -0,4 °C 93 % 1014,4 hPa 0,0 mm 0,0 km/h (0 Bft) S-SW 202 ° 0 min 0,000 mm 0,0 UV-I 0 W/m² -1,4 °C -0,4 °C 0,0 km/h (0 Bft)
18.03.2019 04:29 -0,4 °C 93 % 1014,5 hPa 0,0 mm 0,0 km/h (0 Bft) S-SW 202 ° 0 min 0,000 mm 0,0 UV-I 0 W/m² -1,4 °C -0,4 °C 0,0 km/h (0 Bft)
18.03.2019 04:30 -0,3 °C 93 % 1014,5 hPa 0,0 mm 0,0 km/h (0 Bft) S-SW 202 ° 0 min 0,000 mm 0,0 UV-I 0 W/m² -1,3 °C -0,3 °C 0,0 km/h (0 Bft)
18.03.2019 04:31 -0,3 °C 93 % 1014,5 hPa 0,0 mm 0,0 km/h (0 Bft) S-SW 202 ° 0 min 0,000 mm 0,0 UV-I 0 W/m² -1,3 °C -0,3 °C 0,0 km/h (0 Bft)
18.03.2019 04:32 -0,3 °C 93 % 1014,5 hPa 0,0 mm 0,0 km/h (0 Bft) S-SW 202 ° 0 min 0,000 mm 0,0 UV-I 0 W/m² -1,3 °C -0,3 °C 0,0 km/h (0 Bft)
18.03.2019 04:33 -0,3 °C 93 % 1014,5 hPa 0,0 mm 0,0 km/h (0 Bft) S-SW 202 ° 0 min 0,000 mm 0,0 UV-I 0 W/m² -1,3 °C -0,3 °C 0,0 km/h (0 Bft)
18.03.2019 04:34 -0,4 °C 93 % 1014,5 hPa 0,0 mm 0,0 km/h (0 Bft) S-SW 202 ° 0 min 0,000 mm 0,0 UV-I 0 W/m² -1,4 °C -0,4 °C 0,0 km/h (0 Bft)
18.03.2019 04:35 -0,4 °C 93 % 1014,5 hPa 0,0 mm 0,0 km/h (0 Bft) S-SW 202 ° 0 min 0,000 mm 0,0 UV-I 0 W/m² -1,4 °C -0,4 °C 0,0 km/h (0 Bft)
18.03.2019 04:36 -0,4 °C 93 % 1014,5 hPa 0,0 mm 0,0 km/h (0 Bft) S-SW 202 ° 0 min 0,000 mm 0,0 UV-I 0 W/m² -1,4 °C -0,4 °C 0,0 km/h (0 Bft)
18.03.2019 04:37 -0,4 °C 93 % 1014,5 hPa 0,0 mm 0,0 km/h (0 Bft) S-SW 202 ° 0 min 0,000 mm 0,0 UV-I 0 W/m² -1,4 °C -0,4 °C 0,0 km/h (0 Bft)
18.03.2019 04:38 -0,5 °C 92 % 1014,5 hPa 0,0 mm 0,0 km/h (0 Bft) S-SW 202 ° 0 min 0,000 mm 0,0 UV-I 0 W/m² -1,6 °C -0,5 °C 0,0 km/h (0 Bft)
18.03.2019 04:39 -0,6 °C 92 % 1014,4 hPa 0,0 mm 0,0 km/h (0 Bft) S-SW 202 ° 0 min 0,000 mm 0,0 UV-I 0 W/m² -1,7 °C -0,6 °C 0,0 km/h (0 Bft)
18.03.2019 04:40 -0,6 °C 92 % 1014,5 hPa 0,0 mm 0,0 km/h (0 Bft) S-SW 202 ° 0 min 0,000 mm 0,0 UV-I 0 W/m² -1,7 °C -0,6 °C 0,0 km/h (0 Bft)
18.03.2019 04:41 -0,5 °C 93 % 1014,4 hPa 0,0 mm 0,0 km/h (0 Bft) S-SW 202 ° 0 min 0,000 mm 0,0 UV-I 0 W/m² -1,5 °C -0,5 °C 0,0 km/h (0 Bft)
18.03.2019 04:42 -0,6 °C 93 % 1014,4 hPa 0,0 mm 0,0 km/h (0 Bft) S-SW 202 ° 0 min 0,000 mm 0,0 UV-I 0 W/m² -1,6 °C -0,6 °C 0,0 km/h (0 Bft)
18.03.2019 04:43 -0,5 °C 93 % 1014,4 hPa 0,0 mm 0,0 km/h (0 Bft) S-SW 202 ° 0 min 0,000 mm 0,0 UV-I 0 W/m² -1,5 °C -0,5 °C 0,0 km/h (0 Bft)
18.03.2019 04:44 -0,5 °C 93 % 1014,4 hPa 0,0 mm 0,0 km/h (0 Bft) S-SW 202 ° 0 min 0,000 mm 0,0 UV-I 0 W/m² -1,5 °C -0,5 °C 0,0 km/h (0 Bft)
18.03.2019 04:45 -0,5 °C 93 % 1014,4 hPa 0,0 mm 0,0 km/h (0 Bft) S-SW 202 ° 0 min 0,000 mm 0,0 UV-I 0 W/m² -1,5 °C -0,5 °C 0,0 km/h (0 Bft)
18.03.2019 04:46 -0,4 °C 93 % 1014,4 hPa 0,0 mm 0,2 km/h (0 Bft) S-SW 202 ° 0 min 0,000 mm 0,0 UV-I 0 W/m² -1,4 °C -0,4 °C 1,6 km/h (1 Bft)
18.03.2019 04:47 -0,4 °C 93 % 1014,5 hPa 0,0 mm 0,0 km/h (0 Bft) S-SW 202 ° 0 min 0,000 mm 0,0 UV-I 0 W/m² -1,4 °C -0,4 °C 0,0 km/h (0 Bft)
18.03.2019 04:48 -0,4 °C 93 % 1014,5 hPa 0,0 mm 0,0 km/h (0 Bft) S-SW 202 ° 0 min 0,000 mm 0,0 UV-I 0 W/m² -1,4 °C -0,4 °C 0,0 km/h (0 Bft)
18.03.2019 04:49 -0,3 °C 93 % 1014,5 hPa 0,0 mm 0,0 km/h (0 Bft) S-SW 202 ° 0 min 0,000 mm 0,0 UV-I 0 W/m² -1,3 °C -0,3 °C 0,0 km/h (0 Bft)
18.03.2019 04:50 -0,3 °C 93 % 1014,5 hPa 0,0 mm 0,0 km/h (0 Bft) S-SW 202 ° 0 min 0,000 mm 0,0 UV-I 0 W/m² -1,3 °C -0,3 °C 0,0 km/h (0 Bft)
18.03.2019 04:51 -0,4 °C 93 % 1014,5 hPa 0,0 mm 0,0 km/h (0 Bft) S-SW 202 ° 0 min 0,000 mm 0,0 UV-I 0 W/m² -1,4 °C -0,4 °C 0,0 km/h (0 Bft)
18.03.2019 04:52 -0,4 °C 93 % 1014,5 hPa 0,0 mm 0,0 km/h (0 Bft) S-SW 202 ° 0 min 0,000 mm 0,0 UV-I 0 W/m² -1,4 °C -0,4 °C 0,0 km/h (0 Bft)
18.03.2019 04:53 -0,4 °C 93 % 1014,5 hPa 0,0 mm 0,0 km/h (0 Bft) S-SW 202 ° 0 min 0,000 mm 0,0 UV-I 0 W/m² -1,4 °C -0,4 °C 0,0 km/h (0 Bft)
18.03.2019 04:54 -0,4 °C 93 % 1014,5 hPa 0,0 mm 0,0 km/h (0 Bft) S-SW 202 ° 0 min 0,000 mm 0,0 UV-I 0 W/m² -1,4 °C -0,4 °C 0,0 km/h (0 Bft)
18.03.2019 04:55 -0,4 °C 93 % 1014,5 hPa 0,0 mm 0,1 km/h (0 Bft) S-SW 202 ° 0 min 0,000 mm 0,0 UV-I 0 W/m² -1,4 °C -0,4 °C 1,6 km/h (1 Bft)
18.03.2019 04:56 -0,5 °C 93 % 1014,5 hPa 0,0 mm 1,0 km/h (0 Bft) S-SW 202 ° 0 min 0,000 mm 0,0 UV-I 0 W/m² -1,5 °C -0,5 °C 3,2 km/h (1 Bft)
18.03.2019 04:57 -0,5 °C 92 % 1014,5 hPa 0,0 mm 0,7 km/h (0 Bft) S-SW 202 ° 0 min 0,000 mm 0,0 UV-I 0 W/m² -1,6 °C -0,5 °C 3,2 km/h (1 Bft)
18.03.2019 04:58 -0,5 °C 92 % 1014,5 hPa 0,0 mm 0,0 km/h (0 Bft) S-SW 202 ° 0 min 0,000 mm 0,0 UV-I 0 W/m² -1,6 °C -0,5 °C 0,0 km/h (0 Bft)
18.03.2019 04:59 -0,5 °C 92 % 1014,5 hPa 0,0 mm 0,1 km/h (0 Bft) S-SW 202 ° 0 min 0,000 mm 0,0 UV-I 0 W/m² -1,6 °C -0,5 °C 1,6 km/h (1 Bft)
18.03.2019 05:00 -0,5 °C 92 % 1014,4 hPa 0,0 mm 0,0 km/h (0 Bft) S-SW 202 ° 0 min 0,000 mm 0,0 UV-I 0 W/m² -1,6 °C -0,5 °C 0,0 km/h (0 Bft)
18.03.2019 05:01 -0,5 °C 92 % 1014,4 hPa 0,0 mm 0,0 km/h (0 Bft) S-SW 202 ° 0 min 0,000 mm 0,0 UV-I 0 W/m² -1,6 °C -0,5 °C 0,0 km/h (0 Bft)
18.03.2019 05:02 -0,5 °C 92 % 1014,3 hPa 0,0 mm 0,0 km/h (0 Bft) S-SW 202 ° 0 min 0,000 mm 0,0 UV-I 0 W/m² -1,6 °C -0,5 °C 0,0 km/h (0 Bft)
18.03.2019 05:03 -0,6 °C 92 % 1014,3 hPa 0,0 mm 0,0 km/h (0 Bft) S-SW 208 ° 0 min 0,000 mm 0,0 UV-I 0 W/m² -1,7 °C -0,6 °C 0,0 km/h (0 Bft)
18.03.2019 05:04 -0,5 °C 92 % 1014,3 hPa 0,0 mm 0,5 km/h (0 Bft) S-SW 209 ° 0 min 0,000 mm 0,0 UV-I 0 W/m² -1,6 °C -0,5 °C 1,6 km/h (1 Bft)
18.03.2019 05:05 -0,6 °C 92 % 1014,2 hPa 0,0 mm 2,7 km/h (1 Bft) S 186 ° 0 min 0,000 mm 0,0 UV-I 0 W/m² -1,7 °C -0,6 °C 4,8 km/h (1 Bft)
18.03.2019 05:06 -0,6 °C 93 % 1014,2 hPa 0,0 mm 0,0 km/h (0 Bft) S 186 ° 0 min 0,000 mm 0,0 UV-I 0 W/m² -1,6 °C -0,6 °C 0,0 km/h (0 Bft)
18.03.2019 05:07 -0,5 °C 93 % 1014,2 hPa 0,0 mm 0,0 km/h (0 Bft) S 186 ° 0 min 0,000 mm 0,0 UV-I 0 W/m² -1,5 °C -0,5 °C 0,0 km/h (0 Bft)
18.03.2019 05:08 -0,5 °C 93 % 1014,2 hPa 0,0 mm 0,0 km/h (0 Bft) S 186 ° 0 min 0,000 mm 0,0 UV-I 0 W/m² -1,5 °C -0,5 °C 0,0 km/h (0 Bft)
18.03.2019 05:09 -0,5 °C 93 % 1014,2 hPa 0,0 mm 0,0 km/h (0 Bft) S 186 ° 0 min 0,000 mm 0,0 UV-I 0 W/m² -1,5 °C -0,5 °C 0,0 km/h (0 Bft)
18.03.2019 05:10 -0,5 °C 93 % 1014,2 hPa 0,0 mm 0,0 km/h (0 Bft) S 186 ° 0 min 0,000 mm 0,0 UV-I 0 W/m² -1,5 °C -0,5 °C 0,0 km/h (0 Bft)
18.03.2019 05:11 -0,5 °C 93 % 1014,3 hPa 0,0 mm 0,0 km/h (0 Bft) S 186 ° 0 min 0,000 mm 0,0 UV-I 0 W/m² -1,5 °C -0,5 °C 0,0 km/h (0 Bft)
18.03.2019 05:12 -0,6 °C 92 % 1014,3 hPa 0,0 mm 0,0 km/h (0 Bft) S 186 ° 0 min 0,000 mm 0,0 UV-I 0 W/m² -1,7 °C -0,6 °C 0,0 km/h (0 Bft)
18.03.2019 05:13 -0,6 °C 92 % 1014,3 hPa 0,0 mm 0,0 km/h (0 Bft) S 186 ° 0 min 0,000 mm 0,0 UV-I 0 W/m² -1,7 °C -0,6 °C 0,0 km/h (0 Bft)
18.03.2019 05:14 -0,6 °C 93 % 1014,3 hPa 0,0 mm 1,3 km/h (1 Bft) S 185 ° 0 min 0,000 mm 0,0 UV-I 0 W/m² -1,6 °C -0,6 °C 3,2 km/h (1 Bft)
18.03.2019 05:15 -0,6 °C 93 % 1014,3 hPa 0,0 mm 0,2 km/h (0 Bft) S 185 ° 0 min 0,000 mm 0,0 UV-I 0 W/m² -1,6 °C -0,6 °C 1,6 km/h (1 Bft)
18.03.2019 05:16 -0,6 °C 92 % 1014,3 hPa 0,0 mm 0,1 km/h (0 Bft) S 185 ° 0 min 0,000 mm 0,0 UV-I 0 W/m² -1,7 °C -0,6 °C 1,6 km/h (1 Bft)
18.03.2019 05:17 -0,6 °C 93 % 1014,4 hPa 0,0 mm 0,0 km/h (0 Bft) S 185 ° 0 min 0,000 mm 0,0 UV-I 0 W/m² -1,6 °C -0,6 °C 0,0 km/h (0 Bft)
18.03.2019 05:18 -0,6 °C 93 % 1014,4 hPa 0,0 mm 0,0 km/h (0 Bft) S 185 ° 0 min 0,000 mm 0,0 UV-I 0 W/m² -1,6 °C -0,6 °C 0,0 km/h (0 Bft)
18.03.2019 05:19 -0,6 °C 93 % 1014,3 hPa 0,0 mm 0,0 km/h (0 Bft) S 185 ° 0 min 0,000 mm 0,0 UV-I 0 W/m² -1,6 °C -0,6 °C 0,0 km/h (0 Bft)
18.03.2019 05:20 -0,6 °C 92 % 1014,3 hPa 0,0 mm 0,0 km/h (0 Bft) S 185 ° 0 min 0,000 mm 0,0 UV-I 0 W/m² -1,7 °C -0,6 °C 0,0 km/h (0 Bft)
18.03.2019 05:21 -0,6 °C 93 % 1014,3 hPa 0,0 mm 0,0 km/h (0 Bft) S 185 ° 0 min 0,000 mm 0,0 UV-I 0 W/m² -1,6 °C -0,6 °C 0,0 km/h (0 Bft)
18.03.2019 05:22 -0,6 °C 93 % 1014,3 hPa 0,0 mm 0,0 km/h (0 Bft) S 185 ° 0 min 0,000 mm 0,0 UV-I 0 W/m² -1,6 °C -0,6 °C 0,0 km/h (0 Bft)
18.03.2019 05:23 -0,6 °C 93 % 1014,3 hPa 0,0 mm 0,0 km/h (0 Bft) S 185 ° 0 min 0,000 mm 0,0 UV-I 0 W/m² -1,6 °C -0,6 °C 0,0 km/h (0 Bft)
18.03.2019 05:24 -0,5 °C 93 % 1014,2 hPa 0,0 mm 0,0 km/h (0 Bft) S 185 ° 0 min 0,000 mm 0,0 UV-I 0 W/m² -1,5 °C -0,5 °C 0,0 km/h (0 Bft)
18.03.2019 05:25 -0,6 °C 92 % 1014,3 hPa 0,0 mm 0,0 km/h (0 Bft) S 185 ° 0 min 0,000 mm 0,0 UV-I 0 W/m² -1,7 °C -0,6 °C 0,0 km/h (0 Bft)
18.03.2019 05:26 -0,6 °C 92 % 1014,3 hPa 0,0 mm 0,2 km/h (0 Bft) S 185 ° 0 min 0,000 mm 0,0 UV-I 0 W/m² -1,7 °C -0,6 °C 1,6 km/h (1 Bft)
18.03.2019 05:27 -0,6 °C 92 % 1014,3 hPa 0,0 mm 0,9 km/h (0 Bft) S 185 ° 0 min 0,000 mm 0,0 UV-I 0 W/m² -1,7 °C -0,6 °C 1,6 km/h (1 Bft)
18.03.2019 05:28 -0,6 °C 92 % 1014,3 hPa 0,0 mm 0,4 km/h (0 Bft) S 185 ° 0 min 0,000 mm 0,0 UV-I 0 W/m² -1,7 °C -0,6 °C 1,6 km/h (1 Bft)
18.03.2019 05:29 -0,6 °C 92 % 1014,4 hPa 0,0 mm 0,0 km/h (0 Bft) S 185 ° 0 min 0,000 mm 0,0 UV-I 0 W/m² -1,7 °C -0,6 °C 0,0 km/h (0 Bft)
18.03.2019 05:30 -0,6 °C 92 % 1014,4 hPa 0,0 mm 0,0 km/h (0 Bft) S 185 ° 0 min 0,000 mm 0,0 UV-I 0 W/m² -1,7 °C -0,6 °C 0,0 km/h (0 Bft)
18.03.2019 05:31 -0,6 °C 92 % 1014,3 hPa 0,0 mm 0,0 km/h (0 Bft) S 185 ° 0 min 0,000 mm 0,0 UV-I 0 W/m² -1,7 °C -0,6 °C 0,0 km/h (0 Bft)
18.03.2019 05:32 -0,6 °C 92 % 1014,4 hPa 0,0 mm 0,9 km/h (0 Bft) S 186 ° 0 min 0,000 mm 0,0 UV-I 0 W/m² -1,7 °C -0,6 °C 3,2 km/h (1 Bft)
18.03.2019 05:33 -0,6 °C 92 % 1014,4 hPa 0,0 mm 1,6 km/h (1 Bft) S 186 ° 0 min 0,000 mm 0,0 UV-I 0 W/m² -1,7 °C -0,6 °C 3,2 km/h (1 Bft)
18.03.2019 05:34 -0,6 °C 92 % 1014,5 hPa 0,0 mm 1,6 km/h (1 Bft) S 186 ° 0 min 0,000 mm 0,0 UV-I 0 W/m² -1,7 °C -0,6 °C 3,2 km/h (1 Bft)
18.03.2019 05:35 -0,6 °C 92 % 1014,5 hPa 0,0 mm 1,2 km/h (1 Bft) S 186 ° 0 min 0,000 mm 0,0 UV-I 0 W/m² -1,7 °C -0,6 °C 3,2 km/h (1 Bft)
18.03.2019 05:36 -0,6 °C 92 % 1014,5 hPa 0,0 mm 0,7 km/h (0 Bft) S 186 ° 0 min 0,000 mm 0,0 UV-I 0 W/m² -1,7 °C -0,6 °C 1,6 km/h (1 Bft)
18.03.2019 05:37 -0,6 °C 92 % 1014,5 hPa 0,0 mm 0,0 km/h (0 Bft) S 186 ° 0 min 0,000 mm 0,0 UV-I 0 W/m² -1,7 °C -0,6 °C 0,0 km/h (0 Bft)
18.03.2019 05:38 -0,6 °C 92 % 1014,5 hPa 0,0 mm 0,0 km/h (0 Bft) S 186 ° 0 min 0,000 mm 0,0 UV-I 0 W/m² -1,7 °C -0,6 °C 0,0 km/h (0 Bft)
18.03.2019 05:39 -0,6 °C 92 % 1014,5 hPa 0,0 mm 0,1 km/h (0 Bft) S 186 ° 0 min 0,000 mm 0,0 UV-I 0 W/m² -1,7 °C -0,6 °C 1,6 km/h (1 Bft)
18.03.2019 05:40 -0,6 °C 92 % 1014,5 hPa 0,0 mm 0,6 km/h (0 Bft) S 186 ° 0 min 0,000 mm 0,0 UV-I 0 W/m² -1,7 °C -0,6 °C 1,6 km/h (1 Bft)
18.03.2019 05:41 -0,6 °C 92 % 1014,5 hPa 0,0 mm 1,0 km/h (0 Bft) S 188 ° 0 min 0,000 mm 0,0 UV-I 0 W/m² -1,7 °C -0,6 °C 3,2 km/h (1 Bft)
18.03.2019 05:42 -0,6 °C 92 % 1014,5 hPa 0,0 mm 0,0 km/h (0 Bft) S 188 ° 0 min 0,000 mm 0,0 UV-I 0 W/m² -1,7 °C -0,6 °C 0,0 km/h (0 Bft)
18.03.2019 05:43 -0,6 °C 92 % 1014,5 hPa 0,0 mm 2,4 km/h (1 Bft) SW 229 ° 0 min 0,000 mm 0,0 UV-I 0 W/m² -1,7 °C -0,6 °C 4,8 km/h (1 Bft)
18.03.2019 05:44 -0,6 °C 91 % 1014,5 hPa 0,0 mm 2,2 km/h (1 Bft) SW 225 ° 0 min 0,000 mm 0,0 UV-I 0 W/m² -1,9 °C -0,6 °C 3,2 km/h (1 Bft)
18.03.2019 05:45 -0,5 °C 91 % 1014,5 hPa 0,0 mm 1,3 km/h (1 Bft) SW 225 ° 0 min 0,000 mm 0,0 UV-I 0 W/m² -1,8 °C -0,5 °C 1,6 km/h (1 Bft)
18.03.2019 05:46 -0,5 °C 91 % 1014,5 hPa 0,0 mm 2,1 km/h (1 Bft) SW 220 ° 0 min 0,000 mm 0,0 UV-I 0 W/m² -1,8 °C -0,5 °C 4,8 km/h (1 Bft)
18.03.2019 05:47 -0,5 °C 91 % 1014,5 hPa 0,0 mm 2,8 km/h (1 Bft) S 184 ° 0 min 0,000 mm 0,0 UV-I 0 W/m² -1,8 °C -0,5 °C 6,4 km/h (2 Bft)
18.03.2019 05:48 -0,4 °C 91 % 1014,5 hPa 0,0 mm 4,3 km/h (1 Bft) S 188 ° 0 min 0,000 mm 0,0 UV-I 0 W/m² -1,7 °C -0,4 °C 6,4 km/h (2 Bft)
18.03.2019 05:49 -0,4 °C 91 % 1014,5 hPa 0,0 mm 5,6 km/h (1 Bft) SW 219 ° 0 min 0,000 mm 0,0 UV-I 0 W/m² -1,7 °C -2,3 °C 8,0 km/h (2 Bft)
18.03.2019 05:50 -0,3 °C 91 % 1014,5 hPa 0,0 mm 3,0 km/h (1 Bft) S-SW 213 ° 0 min 0,000 mm 0,0 UV-I 0 W/m² -1,6 °C -0,3 °C 4,8 km/h (1 Bft)
18.03.2019 05:51 -0,3 °C 91 % 1014,4 hPa 0,0 mm 1,2 km/h (1 Bft) S-SW 213 ° 0 min 0,000 mm 0,0 UV-I 0 W/m² -1,6 °C -0,3 °C 3,2 km/h (1 Bft)
18.03.2019 05:52 -0,3 °C 91 % 1014,5 hPa 0,0 mm 0,1 km/h (0 Bft) S-SW 213 ° 0 min 0,000 mm 0,0 UV-I 0 W/m² -1,6 °C -0,3 °C 1,6 km/h (1 Bft)
18.03.2019 05:53 -0,3 °C 91 % 1014,5 hPa 0,0 mm 0,2 km/h (0 Bft) S-SW 213 ° 0 min 0,000 mm 0,0 UV-I 0 W/m² -1,6 °C -0,3 °C 1,6 km/h (1 Bft)
18.03.2019 05:54 -0,4 °C 91 % 1014,4 hPa 0,0 mm 0,0 km/h (0 Bft) S-SW 213 ° 0 min 0,000 mm 0,0 UV-I 0 W/m² -1,7 °C -0,4 °C 0,0 km/h (0 Bft)
18.03.2019 05:55 -0,4 °C 91 % 1014,4 hPa 0,0 mm 0,0 km/h (0 Bft) S-SW 213 ° 0 min 0,000 mm 0,0 UV-I 0 W/m² -1,7 °C -0,4 °C 0,0 km/h (0 Bft)
18.03.2019 05:56 -0,4 °C 91 % 1014,4 hPa 0,0 mm 0,0 km/h (0 Bft) S-SW 213 ° 0 min 0,000 mm 0,0 UV-I 0 W/m² -1,7 °C -0,4 °C 0,0 km/h (0 Bft)
18.03.2019 05:57 -0,4 °C 91 % 1014,4 hPa 0,0 mm 0,0 km/h (0 Bft) S-SW 213 ° 0 min 0,000 mm 0,0 UV-I 0 W/m² -1,7 °C -0,4 °C 0,0 km/h (0 Bft)
18.03.2019 05:58 -0,5 °C 91 % 1014,4 hPa 0,0 mm 0,0 km/h (0 Bft) S-SW 213 ° 0 min 0,000 mm 0,0 UV-I 0 W/m² -1,8 °C -0,5 °C 0,0 km/h (0 Bft)
18.03.2019 05:59 -0,6 °C 91 % 1014,4 hPa 0,0 mm 0,0 km/h (0 Bft) S-SW 213 ° 0 min 0,000 mm 0,0 UV-I 0 W/m² -1,9 °C -0,6 °C 0,0 km/h (0 Bft)
18.03.2019 06:00 -0,6 °C 91 % 1014,3 hPa 0,0 mm 0,0 km/h (0 Bft) S-SW 213 ° 0 min 0,000 mm 0,0 UV-I 0 W/m² -1,9 °C -0,6 °C 0,0 km/h (0 Bft)
18.03.2019 06:01 -0,6 °C 91 % 1014,3 hPa 0,0 mm 0,0 km/h (0 Bft) S-SW 213 ° 0 min 0,000 mm 0,0 UV-I 0 W/m² -1,9 °C -0,6 °C 0,0 km/h (0 Bft)
18.03.2019 06:02 -0,7 °C 91 % 1014,2 hPa 0,0 mm 0,0 km/h (0 Bft) S-SW 213 ° 0 min 0,000 mm 0,0 UV-I 0 W/m² -2,0 °C -0,7 °C 0,0 km/h (0 Bft)
18.03.2019 06:03 -0,7 °C 91 % 1014,2 hPa 0,0 mm 1,0 km/h (0 Bft) S-SW 213 ° 0 min 0,000 mm 0,0 UV-I 0 W/m² -2,0 °C -0,7 °C 3,2 km/h (1 Bft)
18.03.2019 06:04 -0,7 °C 91 % 1014,1 hPa 0,0 mm 1,5 km/h (1 Bft) S-SW 213 ° 0 min 0,000 mm 0,0 UV-I 0 W/m² -2,0 °C -0,7 °C 3,2 km/h (1 Bft)
18.03.2019 06:05 -0,7 °C 91 % 1014,1 hPa 0,0 mm 1,1 km/h (1 Bft) S-SW 213 ° 0 min 0,000 mm 0,0 UV-I 0 W/m² -2,0 °C -0,7 °C 3,2 km/h (1 Bft)
18.03.2019 06:06 -0,6 °C 91 % 1014,1 hPa 0,0 mm 0,3 km/h (0 Bft) S-SW 213 ° 0 min 0,000 mm 0,0 UV-I 0 W/m² -1,9 °C -0,6 °C 1,6 km/h (1 Bft)
18.03.2019 06:07 -0,6 °C 91 % 1014,1 hPa 0,0 mm 0,0 km/h (0 Bft) S-SW 213 ° 0 min 0,000 mm 0,0 UV-I 0 W/m² -1,9 °C -0,6 °C 0,0 km/h (0 Bft)
18.03.2019 06:08 -0,6 °C 91 % 1014,2 hPa 0,0 mm 0,0 km/h (0 Bft) S-SW 213 ° 0 min 0,000 mm 0,0 UV-I 0 W/m² -1,9 °C -0,6 °C 0,0 km/h (0 Bft)
18.03.2019 06:09 -0,6 °C 91 % 1014,2 hPa 0,0 mm 0,0 km/h (0 Bft) S-SW 213 ° 0 min 0,000 mm 0,0 UV-I 0 W/m² -1,9 °C -0,6 °C 0,0 km/h (0 Bft)
18.03.2019 06:10 -0,6 °C 91 % 1014,2 hPa 0,0 mm 0,0 km/h (0 Bft) S-SW 213 ° 0 min 0,000 mm 0,0 UV-I 0 W/m² -1,9 °C -0,6 °C 0,0 km/h (0 Bft)
18.03.2019 06:11 -0,6 °C 91 % 1014,2 hPa 0,0 mm 0,0 km/h (0 Bft) S-SW 213 ° 0 min 0,000 mm 0,0 UV-I 0 W/m² -1,9 °C -0,6 °C 0,0 km/h (0 Bft)
18.03.2019 06:12 -0,7 °C 91 % 1014,2 hPa 0,0 mm 0,0 km/h (0 Bft) S-SW 213 ° 0 min 0,000 mm 0,0 UV-I 0 W/m² -2,0 °C -0,7 °C 0,0 km/h (0 Bft)
18.03.2019 06:13 -0,7 °C 91 % 1014,2 hPa 0,0 mm 0,0 km/h (0 Bft) S-SW 213 ° 0 min 0,000 mm 0,0 UV-I 0 W/m² -2,0 °C -0,7 °C 0,0 km/h (0 Bft)
18.03.2019 06:14 -0,7 °C 91 % 1014,2 hPa 0,0 mm 0,0 km/h (0 Bft) S-SW 213 ° 0 min 0,000 mm 0,0 UV-I 0 W/m² -2,0 °C -0,7 °C 0,0 km/h (0 Bft)
18.03.2019 06:15 -0,7 °C 91 % 1014,2 hPa 0,0 mm 0,0 km/h (0 Bft) S-SW 213 ° 0 min 0,000 mm 0,0 UV-I 0 W/m² -2,0 °C -0,7 °C 0,0 km/h (0 Bft)
18.03.2019 06:16 -0,7 °C 91 % 1014,2 hPa 0,0 mm 0,3 km/h (0 Bft) S-SW 213 ° 0 min 0,000 mm 0,0 UV-I 0 W/m² -2,0 °C -0,7 °C 1,6 km/h (1 Bft)
18.03.2019 06:17 -0,7 °C 91 % 1014,3 hPa 0,0 mm 1,4 km/h (1 Bft) SW 221 ° 0 min 0,000 mm 0,0 UV-I 0 W/m² -2,0 °C -0,7 °C 3,2 km/h (1 Bft)
18.03.2019 06:18 -0,7 °C 91 % 1014,4 hPa 0,0 mm 1,3 km/h (1 Bft) SW 219 ° 0 min 0,000 mm 0,0 UV-I 0 W/m² -2,0 °C -0,7 °C 3,2 km/h (1 Bft)
18.03.2019 06:19 -0,7 °C 91 % 1014,3 hPa 0,0 mm 0,1 km/h (0 Bft) SW 219 ° 0 min 0,000 mm 0,0 UV-I 0 W/m² -2,0 °C -0,7 °C 1,6 km/h (1 Bft)
18.03.2019 06:20 -0,7 °C 91 % 1014,3 hPa 0,0 mm 0,0 km/h (0 Bft) SW 219 ° 0 min 0,000 mm 0,0 UV-I 0 W/m² -2,0 °C -0,7 °C 0,0 km/h (0 Bft)
18.03.2019 06:21 -0,7 °C 91 % 1014,3 hPa 0,0 mm 0,0 km/h (0 Bft) SW 219 ° 0 min 0,000 mm 0,0 UV-I 0 W/m² -2,0 °C -0,7 °C 0,0 km/h (0 Bft)
18.03.2019 06:22 -0,7 °C 91 % 1014,3 hPa 0,0 mm 0,3 km/h (0 Bft) SW 218 ° 0 min 0,000 mm 0,0 UV-I 0 W/m² -2,0 °C -0,7 °C 1,6 km/h (1 Bft)
18.03.2019 06:23 -0,7 °C 91 % 1014,2 hPa 0,0 mm 0,0 km/h (0 Bft) SW 218 ° 0 min 0,000 mm 0,0 UV-I 0 W/m² -2,0 °C -0,7 °C 0,0 km/h (0 Bft)
18.03.2019 06:24 -0,7 °C 91 % 1014,3 hPa 0,0 mm 0,0 km/h (0 Bft) SW 218 ° 0 min 0,000 mm 0,0 UV-I 0 W/m² -2,0 °C -0,7 °C 0,0 km/h (0 Bft)
18.03.2019 06:25 -0,7 °C 91 % 1014,3 hPa 0,0 mm 0,0 km/h (0 Bft) SW 218 ° 0 min 0,000 mm 0,0 UV-I 0 W/m² -2,0 °C -0,7 °C 0,0 km/h (0 Bft)
18.03.2019 06:26 -0,6 °C 91 % 1014,4 hPa 0,0 mm 0,0 km/h (0 Bft) SW 218 ° 0 min 0,000 mm 0,0 UV-I 0 W/m² -1,9 °C -0,6 °C 0,0 km/h (0 Bft)
18.03.2019 06:27 -0,6 °C 91 % 1014,3 hPa 0,0 mm 0,0 km/h (0 Bft) SW 218 ° 0 min 0,000 mm 0,0 UV-I 0 W/m² -1,9 °C -0,6 °C 0,0 km/h (0 Bft)
18.03.2019 06:28 -0,6 °C 91 % 1014,3 hPa 0,0 mm 0,0 km/h (0 Bft) SW 218 ° 0 min 0,000 mm 0,0 UV-I 0 W/m² -1,9 °C -0,6 °C 0,0 km/h (0 Bft)
18.03.2019 06:29 -0,6 °C 91 % 1014,2 hPa 0,0 mm 0,0 km/h (0 Bft) SW 218 ° 0 min 0,000 mm 0,0 UV-I 0 W/m² -1,9 °C -0,6 °C 0,0 km/h (0 Bft)
18.03.2019 06:30 -0,6 °C 91 % 1014,1 hPa 0,0 mm 0,0 km/h (0 Bft) SW 218 ° 0 min 0,000 mm 0,0 UV-I 0 W/m² -1,9 °C -0,6 °C 0,0 km/h (0 Bft)
18.03.2019 06:31 -0,6 °C 91 % 1014,1 hPa 0,0 mm 0,0 km/h (0 Bft) SW 218 ° 0 min 0,000 mm 0,0 UV-I 0 W/m² -1,9 °C -0,6 °C 0,0 km/h (0 Bft)
18.03.2019 06:32 -0,7 °C 91 % 1014,1 hPa 0,0 mm 2,4 km/h (1 Bft) SW 232 ° 0 min 0,000 mm 0,0 UV-I 0 W/m² -2,0 °C -0,7 °C 3,2 km/h (1 Bft)
18.03.2019 06:33 -0,7 °C 91 % 1014,1 hPa 0,0 mm 0,8 km/h (0 Bft) SW 232 ° 0 min 0,000 mm 0,0 UV-I 0 W/m² -2,0 °C -0,7 °C 3,2 km/h (1 Bft)
18.03.2019 06:34 -0,7 °C 91 % 1014,1 hPa 0,0 mm 0,0 km/h (0 Bft) SW 232 ° 0 min 0,000 mm 0,0 UV-I 0 W/m² -2,0 °C -0,7 °C 0,0 km/h (0 Bft)
18.03.2019 06:35 -0,7 °C 91 % 1014,1 hPa 0,0 mm 0,0 km/h (0 Bft) SW 232 ° 0 min 0,000 mm 0,0 UV-I 0 W/m² -2,0 °C -0,7 °C 0,0 km/h (0 Bft)
18.03.2019 06:36 -0,7 °C 91 % 1014,1 hPa 0,0 mm 0,0 km/h (0 Bft) SW 232 ° 0 min 0,000 mm 0,0 UV-I 0 W/m² -2,0 °C -0,7 °C 0,0 km/h (0 Bft)
18.03.2019 06:37 -0,7 °C 91 % 1014,2 hPa 0,0 mm 0,0 km/h (0 Bft) SW 232 ° 0 min 0,000 mm 0,0 UV-I 0 W/m² -2,0 °C -0,7 °C 0,0 km/h (0 Bft)
18.03.2019 06:38 -0,7 °C 91 % 1014,3 hPa 0,0 mm 0,0 km/h (0 Bft) SW 232 ° 0 min 0,000 mm 0,0 UV-I 0 W/m² -2,0 °C -0,7 °C 0,0 km/h (0 Bft)
18.03.2019 06:39 -0,6 °C 91 % 1014,5 hPa 0,0 mm 0,0 km/h (0 Bft) SW 232 ° 0 min 0,000 mm 0,0 UV-I 0 W/m² -1,9 °C -0,6 °C 0,0 km/h (0 Bft)
18.03.2019 06:40 -0,6 °C 91 % 1014,6 hPa 0,0 mm 0,0 km/h (0 Bft) SW 232 ° 0 min 0,000 mm 0,0 UV-I 0 W/m² -1,9 °C -0,6 °C 0,0 km/h (0 Bft)
18.03.2019 06:41 -0,6 °C 91 % 1014,6 hPa 0,0 mm 1,1 km/h (1 Bft) SW 232 ° 0 min 0,000 mm 0,0 UV-I 0 W/m² -1,9 °C -0,6 °C 3,2 km/h (1 Bft)
18.03.2019 06:42 -0,6 °C 91 % 1014,6 hPa 0,0 mm 0,1 km/h (0 Bft) SW 232 ° 0 min 0,000 mm 0,0 UV-I 0 W/m² -1,9 °C -0,6 °C 1,6 km/h (1 Bft)
18.03.2019 06:43 -0,6 °C 90 % 1014,7 hPa 0,0 mm 0,0 km/h (0 Bft) SW 232 ° 0 min 0,000 mm 0,0 UV-I 0 W/m² -2,0 °C -0,6 °C 0,0 km/h (0 Bft)
18.03.2019 06:44 -0,6 °C 90 % 1014,7 hPa 0,0 mm 0,0 km/h (0 Bft) SW 232 ° 0 min 0,000 mm 0,0 UV-I 0 W/m² -2,0 °C -0,6 °C 0,0 km/h (0 Bft)
18.03.2019 06:45 -0,6 °C 90 % 1014,6 hPa 0,0 mm 0,0 km/h (0 Bft) SW 232 ° 0 min 0,000 mm 0,0 UV-I 0 W/m² -2,0 °C -0,6 °C 0,0 km/h (0 Bft)
18.03.2019 06:46 -0,6 °C 90 % 1014,6 hPa 0,0 mm 0,0 km/h (0 Bft) SW 232 ° 0 min 0,000 mm 0,0 UV-I 0 W/m² -2,0 °C -0,6 °C 0,0 km/h (0 Bft)
18.03.2019 06:47 -0,6 °C 90 % 1014,6 hPa 0,0 mm 0,0 km/h (0 Bft) SW 232 ° 0 min 0,000 mm 0,0 UV-I 0 W/m² -2,0 °C -0,6 °C 0,0 km/h (0 Bft)
18.03.2019 06:48 -0,6 °C 90 % 1014,6 hPa 0,0 mm 0,0 km/h (0 Bft) SW 232 ° 0 min 0,000 mm 0,0 UV-I 0 W/m² -2,0 °C -0,6 °C 0,0 km/h (0 Bft)
18.03.2019 06:49 -0,6 °C 90 % 1014,6 hPa 0,0 mm 0,0 km/h (0 Bft) SW 232 ° 0 min 0,000 mm 0,0 UV-I 0 W/m² -2,0 °C -0,6 °C 0,0 km/h (0 Bft)
18.03.2019 06:50 -0,6 °C 91 % 1014,6 hPa 0,0 mm 0,0 km/h (0 Bft) SW 232 ° 0 min 0,000 mm 0,0 UV-I 5 W/m² -1,9 °C -0,6 °C 0,0 km/h (0 Bft)
18.03.2019 06:51 -0,6 °C 90 % 1014,6 hPa 0,0 mm 2,3 km/h (1 Bft) W-SW 240 ° 0 min 0,000 mm 0,0 UV-I 5 W/m² -2,0 °C -0,6 °C 4,8 km/h (1 Bft)
18.03.2019 06:52 -0,6 °C 90 % 1014,5 hPa 0,0 mm 1,0 km/h (0 Bft) W-SW 240 ° 0 min 0,000 mm 0,0 UV-I 5 W/m² -2,0 °C -0,6 °C 3,2 km/h (1 Bft)
18.03.2019 06:53 -0,6 °C 90 % 1014,4 hPa 0,0 mm 0,7 km/h (0 Bft) W-SW 240 ° 0 min 0,000 mm 0,0 UV-I 5 W/m² -2,0 °C -0,6 °C 1,6 km/h (1 Bft)
18.03.2019 06:54 -0,6 °C 91 % 1014,4 hPa 0,0 mm 0,0 km/h (0 Bft) W-SW 240 ° 0 min 0,000 mm 0,0 UV-I 7 W/m² -1,9 °C -0,6 °C 0,0 km/h (0 Bft)
18.03.2019 06:55 -0,6 °C 91 % 1014,5 hPa 0,0 mm 0,0 km/h (0 Bft) W-SW 240 ° 0 min 0,000 mm 0,0 UV-I 7 W/m² -1,9 °C -0,6 °C 0,0 km/h (0 Bft)
18.03.2019 06:56 -0,6 °C 91 % 1014,5 hPa 0,0 mm 0,0 km/h (0 Bft) W-SW 240 ° 0 min 0,000 mm 0,0 UV-I 7 W/m² -1,9 °C -0,6 °C 0,0 km/h (0 Bft)
18.03.2019 06:57 -0,6 °C 91 % 1014,5 hPa 0,0 mm 0,0 km/h (0 Bft) W-SW 240 ° 0 min 0,000 mm 0,0 UV-I 7 W/m² -1,9 °C -0,6 °C 0,0 km/h (0 Bft)
18.03.2019 06:58 -0,6 °C 91 % 1014,6 hPa 0,0 mm 0,0 km/h (0 Bft) W-SW 240 ° 0 min 0,000 mm 0,0 UV-I 7 W/m² -1,9 °C -0,6 °C 0,0 km/h (0 Bft)
18.03.2019 06:59 -0,6 °C 91 % 1014,6 hPa 0,0 mm 0,0 km/h (0 Bft) W-SW 240 ° 0 min 0,000 mm 0,0 UV-I 7 W/m² -1,9 °C -0,6 °C 0,0 km/h (0 Bft)
18.03.2019 07:00 -0,6 °C 91 % 1014,7 hPa 0,0 mm 0,0 km/h (0 Bft) W-SW 240 ° 0 min 0,000 mm 0,0 UV-I 9 W/m² -1,9 °C -0,6 °C 0,0 km/h (0 Bft)
18.03.2019 07:01 -0,6 °C 91 % 1014,7 hPa 0,0 mm 0,0 km/h (0 Bft) W-SW 240 ° 0 min 0,000 mm 0,0 UV-I 9 W/m² -1,9 °C -0,6 °C 0,0 km/h (0 Bft)
18.03.2019 07:02 -0,6 °C 91 % 1014,8 hPa 0,0 mm 0,0 km/h (0 Bft) W-SW 240 ° 0 min 0,000 mm 0,0 UV-I 9 W/m² -1,9 °C -0,6 °C 0,0 km/h (0 Bft)
18.03.2019 07:03 -0,6 °C 91 % 1014,8 hPa 0,0 mm 0,2 km/h (0 Bft) W-SW 240 ° 0 min 0,000 mm 0,0 UV-I 11 W/m² -1,9 °C -0,6 °C 1,6 km/h (1 Bft)
18.03.2019 07:04 -0,6 °C 91 % 1014,9 hPa 0,0 mm 0,0 km/h (0 Bft) W-SW 240 ° 0 min 0,000 mm 0,0 UV-I 11 W/m² -1,9 °C -0,6 °C 0,0 km/h (0 Bft)
18.03.2019 07:05 -0,6 °C 91 % 1015,0 hPa 0,0 mm 0,9 km/h (0 Bft) W-SW 240 ° 0 min 0,000 mm 0,0 UV-I 11 W/m² -1,9 °C -0,6 °C 3,2 km/h (1 Bft)
18.03.2019 07:06 -0,6 °C 91 % 1015,0 hPa 0,0 mm 1,5 km/h (1 Bft) W-SW 240 ° 0 min 0,000 mm 0,0 UV-I 11 W/m² -1,9 °C -0,6 °C 3,2 km/h (1 Bft)
18.03.2019 07:07 -0,6 °C 91 % 1015,0 hPa 0,0 mm 1,5 km/h (1 Bft) W-SW 240 ° 0 min 0,000 mm 0,0 UV-I 11 W/m² -1,9 °C -0,6 °C 3,2 km/h (1 Bft)
18.03.2019 07:08 -0,6 °C 91 % 1014,9 hPa 0,0 mm 1,3 km/h (1 Bft) W-SW 240 ° 0 min 0,000 mm 0,0 UV-I 11 W/m² -1,9 °C -0,6 °C 3,2 km/h (1 Bft)
18.03.2019 07:09 -0,6 °C 91 % 1014,9 hPa 0,0 mm 1,6 km/h (1 Bft) W-SW 240 ° 0 min 0,000 mm 0,0 UV-I 11 W/m² -1,9 °C -0,6 °C 3,2 km/h (1 Bft)
18.03.2019 07:10 -0,6 °C 91 % 1014,9 hPa 0,0 mm 1,2 km/h (1 Bft) W-SW 240 ° 0 min 0,000 mm 0,0 UV-I 11 W/m² -1,9 °C -0,6 °C 1,6 km/h (1 Bft)
18.03.2019 07:11 -0,5 °C 91 % 1014,8 hPa 0,0 mm 2,1 km/h (1 Bft) W-SW 240 ° 0 min 0,000 mm 0,0 UV-I 12 W/m² -1,8 °C -0,5 °C 3,2 km/h (1 Bft)
18.03.2019 07:12 -0,4 °C 91 % 1014,8 hPa 0,0 mm 3,0 km/h (1 Bft) SW 219 ° 0 min 0,000 mm 0,0 UV-I 12 W/m² -1,7 °C -0,4 °C 3,2 km/h (1 Bft)
18.03.2019 07:13 -0,4 °C 90 % 1014,8 hPa 0,0 mm 0,6 km/h (0 Bft) SW 219 ° 0 min 0,000 mm 0,0 UV-I 12 W/m² -1,8 °C -0,4 °C 3,2 km/h (1 Bft)
18.03.2019 07:14 -0,3 °C 90 % 1014,9 hPa 0,0 mm 0,5 km/h (0 Bft) SW 219 ° 0 min 0,000 mm 0,0 UV-I 12 W/m² -1,7 °C -0,3 °C 1,6 km/h (1 Bft)
18.03.2019 07:15 -0,3 °C 90 % 1014,9 hPa 0,0 mm 0,8 km/h (0 Bft) SW 219 ° 0 min 0,000 mm 0,0 UV-I 12 W/m² -1,7 °C -0,3 °C 1,6 km/h (1 Bft)
18.03.2019 07:16 -0,3 °C 90 % 1014,9 hPa 0,0 mm 0,8 km/h (0 Bft) SW 219 ° 0 min 0,000 mm 0,0 UV-I 12 W/m² -1,7 °C -0,3 °C 1,6 km/h (1 Bft)
18.03.2019 07:17 -0,3 °C 90 % 1014,9 hPa 0,0 mm 3,3 km/h (1 Bft) W 277 ° 0 min 0,000 mm 0,0 UV-I 12 W/m² -1,7 °C -0,3 °C 4,8 km/h (1 Bft)
18.03.2019 07:18 -0,3 °C 90 % 1014,9 hPa 0,0 mm 2,3 km/h (1 Bft) W 277 ° 0 min 0,000 mm 0,0 UV-I 12 W/m² -1,7 °C -0,3 °C 3,2 km/h (1 Bft)
18.03.2019 07:19 -0,3 °C 90 % 1014,9 hPa 0,0 mm 3,4 km/h (1 Bft) W 277 ° 0 min 0,000 mm 0,0 UV-I 12 W/m² -1,7 °C -0,3 °C 4,8 km/h (1 Bft)
18.03.2019 07:20 -0,3 °C 90 % 1014,9 hPa 0,0 mm 3,8 km/h (1 Bft) W 277 ° 0 min 0,000 mm 0,0 UV-I 14 W/m² -1,7 °C -0,3 °C 4,8 km/h (1 Bft)
18.03.2019 07:21 -0,3 °C 90 % 1015,0 hPa 0,0 mm 3,4 km/h (1 Bft) W 277 ° 0 min 0,000 mm 0,0 UV-I 14 W/m² -1,7 °C -0,3 °C 4,8 km/h (1 Bft)
18.03.2019 07:22 -0,3 °C 90 % 1015,0 hPa 0,0 mm 2,8 km/h (1 Bft) W 276 ° 0 min 0,000 mm 0,0 UV-I 14 W/m² -1,7 °C -0,3 °C 4,8 km/h (1 Bft)
18.03.2019 07:23 -0,3 °C 90 % 1015,1 hPa 0,0 mm 2,5 km/h (1 Bft) W-SW 257 ° 0 min 0,000 mm 0,0 UV-I 16 W/m² -1,7 °C -0,3 °C 3,2 km/h (1 Bft)
18.03.2019 07:24 -0,3 °C 90 % 1015,1 hPa 0,0 mm 3,8 km/h (1 Bft) SW 235 ° 0 min 0,000 mm 0,0 UV-I 16 W/m² -1,7 °C -0,3 °C 4,8 km/h (1 Bft)
18.03.2019 07:25 -0,3 °C 90 % 1015,0 hPa 0,0 mm 4,4 km/h (1 Bft) W 264 ° 0 min 0,000 mm 0,0 UV-I 16 W/m² -1,7 °C -0,3 °C 6,4 km/h (2 Bft)
18.03.2019 07:26 -0,2 °C 90 % 1015,1 hPa 0,0 mm 5,6 km/h (1 Bft) W-SW 252 ° 0 min 0,000 mm 0,0 UV-I 16 W/m² -1,6 °C -2,1 °C 9,7 km/h (2 Bft)
18.03.2019 07:27 -0,2 °C 90 % 1015,2 hPa 0,0 mm 8,9 km/h (2 Bft) W 263 ° 0 min 0,000 mm 0,0 UV-I 18 W/m² -1,6 °C -3,2 °C 11,3 km/h (2 Bft)
18.03.2019 07:28 -0,1 °C 90 % 1015,2 hPa 0,0 mm 10,1 km/h (2 Bft) W-SW 253 ° 0 min 0,000 mm 0,0 UV-I 18 W/m² -1,5 °C -3,5 °C 12,9 km/h (3 Bft)
18.03.2019 07:29 -0,1 °C 89 % 1015,3 hPa 0,0 mm 9,5 km/h (2 Bft) W 264 ° 0 min 0,000 mm 0,0 UV-I 18 W/m² -1,7 °C -3,3 °C 11,3 km/h (2 Bft)
18.03.2019 07:30 -0,1 °C 89 % 1015,4 hPa 0,0 mm 5,2 km/h (1 Bft) W 269 ° 0 min 0,000 mm 0,0 UV-I 18 W/m² -1,7 °C -1,8 °C 6,4 km/h (2 Bft)
18.03.2019 07:31 -0,1 °C 89 % 1015,5 hPa 0,0 mm 5,4 km/h (1 Bft) W 264 ° 0 min 0,000 mm 0,0 UV-I 18 W/m² -1,7 °C -1,9 °C 6,4 km/h (2 Bft)
18.03.2019 07:32 0,0 °C 89 % 1015,5 hPa 0,0 mm 5,8 km/h (2 Bft) W 263 ° 0 min 0,000 mm 0,0 UV-I 18 W/m² -1,6 °C -1,9 °C 9,7 km/h (2 Bft)
18.03.2019 07:33 0,0 °C 89 % 1015,4 hPa 0,0 mm 9,5 km/h (2 Bft) W-NW 287 ° 0 min 0,000 mm 0,0 UV-I 18 W/m² -1,6 °C -3,2 °C 16,1 km/h (3 Bft)
18.03.2019 07:34 0,0 °C 89 % 1015,5 hPa 0,0 mm 8,4 km/h (2 Bft) W-NW 289 ° 0 min 0,000 mm 0,0 UV-I 18 W/m² -1,6 °C -2,9 °C 14,5 km/h (3 Bft)
18.03.2019 07:35 0,0 °C 89 % 1015,5 hPa 0,0 mm 4,9 km/h (1 Bft) W 271 ° 0 min 0,000 mm 0,0 UV-I 18 W/m² -1,6 °C -1,5 °C 12,9 km/h (3 Bft)
18.03.2019 07:36 0,0 °C 89 % 1015,5 hPa 0,0 mm 11,1 km/h (2 Bft) W-SW 244 ° 0 min 0,000 mm 0,0 UV-I 18 W/m² -1,6 °C -3,6 °C 17,7 km/h (3 Bft)
18.03.2019 07:37 0,1 °C 89 % 1015,5 hPa 0,0 mm 11,6 km/h (2 Bft) W 270 ° 0 min 0,000 mm 0,0 UV-I 19 W/m² -1,5 °C -3,6 °C 17,7 km/h (3 Bft)
18.03.2019 07:38 0,1 °C 88 % 1015,5 hPa 0,0 mm 15,8 km/h (3 Bft) W-NW 286 ° 0 min 0,000 mm 0,0 UV-I 19 W/m² -1,6 °C -4,4 °C 22,5 km/h (4 Bft)
18.03.2019 07:39 0,1 °C 88 % 1015,5 hPa 0,0 mm 8,0 km/h (2 Bft) W-NW 292 ° 0 min 0,000 mm 0,0 UV-I 19 W/m² -1,6 °C -2,6 °C 12,9 km/h (3 Bft)
18.03.2019 07:40 0,1 °C 88 % 1015,4 hPa 0,0 mm 9,5 km/h (2 Bft) NW 309 ° 0 min 0,000 mm 0,0 UV-I 21 W/m² -1,6 °C -3,1 °C 14,5 km/h (3 Bft)
18.03.2019 07:41 0,1 °C 88 % 1015,4 hPa 0,0 mm 9,6 km/h (2 Bft) W 262 ° 0 min 0,000 mm 0,0 UV-I 21 W/m² -1,6 °C -3,1 °C 16,1 km/h (3 Bft)
18.03.2019 07:42 0,2 °C 88 % 1015,5 hPa 0,0 mm 12,0 km/h (2 Bft) W 270 ° 0 min 0,000 mm 0,0 UV-I 19 W/m² -1,5 °C -3,6 °C 14,5 km/h (3 Bft)
18.03.2019 07:43 0,2 °C 88 % 1015,5 hPa 0,0 mm 9,5 km/h (2 Bft) W 275 ° 0 min 0,000 mm 0,0 UV-I 19 W/m² -1,5 °C -2,9 °C 14,5 km/h (3 Bft)
18.03.2019 07:44 0,2 °C 88 % 1015,6 hPa 0,0 mm 7,4 km/h (2 Bft) W-NW 284 ° 0 min 0,000 mm 0,0 UV-I 19 W/m² -1,5 °C -2,3 °C 14,5 km/h (3 Bft)
18.03.2019 07:45 0,2 °C 88 % 1015,6 hPa 0,0 mm 7,8 km/h (2 Bft) W 259 ° 0 min 0,000 mm 0,0 UV-I 19 W/m² -1,5 °C -2,4 °C 12,9 km/h (3 Bft)
18.03.2019 07:46 0,2 °C 88 % 1015,6 hPa 0,0 mm 12,6 km/h (3 Bft) W 267 ° 0 min 0,000 mm 0,0 UV-I 16 W/m² -1,5 °C -3,7 °C 19,3 km/h (3 Bft)
18.03.2019 07:47 0,1 °C 88 % 1015,7 hPa 0,0 mm 11,0 km/h (2 Bft) W-SW 244 ° 0 min 0,000 mm 0,0 UV-I 16 W/m² -1,6 °C -3,4 °C 16,1 km/h (3 Bft)
18.03.2019 07:48 0,1 °C 88 % 1015,7 hPa 0,0 mm 11,7 km/h (2 Bft) W-SW 254 ° 0 min 0,000 mm 0,0 UV-I 16 W/m² -1,6 °C -3,6 °C 16,1 km/h (3 Bft)
18.03.2019 07:49 0,1 °C 89 % 1015,7 hPa 0,0 mm 10,7 km/h (2 Bft) W-NW 290 ° 0 min 0,000 mm 0,0 UV-I 16 W/m² -1,5 °C -3,4 °C 17,7 km/h (3 Bft)
18.03.2019 07:50 0,0 °C 89 % 1015,8 hPa 0,0 mm 8,6 km/h (2 Bft) SW 215 ° 0 min 0,000 mm 0,0 UV-I 18 W/m² -1,6 °C -2,9 °C 14,5 km/h (3 Bft)
18.03.2019 07:51 0,0 °C 89 % 1015,8 hPa 0,0 mm 12,3 km/h (3 Bft) W-SW 255 ° 0 min 0,000 mm 0,0 UV-I 21 W/m² -1,6 °C -3,9 °C 16,1 km/h (3 Bft)
18.03.2019 07:52 -0,1 °C 89 % 1015,8 hPa 0,0 mm 13,0 km/h (3 Bft) W-SW 257 ° 0 min 0,000 mm 0,0 UV-I 30 W/m² -1,7 °C -4,1 °C 17,7 km/h (3 Bft)
18.03.2019 07:53 -0,1 °C 90 % 1015,8 hPa 0,0 mm 8,9 km/h (2 Bft) W 260 ° 0 min 0,000 mm 0,0 UV-I 32 W/m² -1,5 °C -3,1 °C 12,9 km/h (3 Bft)
18.03.2019 07:54 -0,2 °C 90 % 1015,8 hPa 0,0 mm 7,6 km/h (2 Bft) SW 217 ° 0 min 0,000 mm 0,0 UV-I 37 W/m² -1,6 °C -2,8 °C 11,3 km/h (2 Bft)
18.03.2019 07:55 -0,2 °C 90 % 1015,8 hPa 0,0 mm 4,2 km/h (1 Bft) W-SW 252 ° 0 min 0,000 mm 0,0 UV-I 40 W/m² -1,6 °C -0,2 °C 6,4 km/h (2 Bft)
18.03.2019 07:56 -0,2 °C 90 % 1015,9 hPa 0,0 mm 5,2 km/h (1 Bft) W-SW 251 ° 0 min 0,000 mm 0,0 UV-I 42 W/m² -1,6 °C -1,9 °C 6,4 km/h (2 Bft)
18.03.2019 07:57 -0,2 °C 90 % 1015,9 hPa 0,0 mm 6,6 km/h (2 Bft) SW 236 ° 0 min 0,000 mm 0,0 UV-I 40 W/m² -1,6 °C -2,5 °C 11,3 km/h (2 Bft)
18.03.2019 07:58 -0,2 °C 90 % 1015,9 hPa 0,0 mm 5,0 km/h (1 Bft) W 259 ° 0 min 0,000 mm 0,0 UV-I 40 W/m² -1,6 °C -1,8 °C 9,7 km/h (2 Bft)
18.03.2019 07:59 -0,2 °C 90 % 1015,8 hPa 0,0 mm 5,3 km/h (1 Bft) S-SW 211 ° 0 min 0,000 mm 0,0 UV-I 42 W/m² -1,6 °C -2,0 °C 6,4 km/h (2 Bft)
18.03.2019 08:00 -0,2 °C 90 % 1015,8 hPa 0,0 mm 3,9 km/h (1 Bft) SW 236 ° 0 min 0,000 mm 0,0 UV-I 44 W/m² -1,6 °C -0,2 °C 6,4 km/h (2 Bft)
18.03.2019 08:01 -0,2 °C 91 % 1015,8 hPa 0,0 mm 6,5 km/h (2 Bft) SW 229 ° 0 min 0,000 mm 0,0 UV-I 44 W/m² -1,5 °C -2,5 °C 9,7 km/h (2 Bft)
18.03.2019 08:02 -0,2 °C 91 % 1015,7 hPa 0,0 mm 5,3 km/h (1 Bft) SW 227 ° 0 min 0,000 mm 0,0 UV-I 46 W/m² -1,5 °C -2,0 °C 8,0 km/h (2 Bft)
18.03.2019 08:03 -0,2 °C 91 % 1015,7 hPa 0,0 mm 4,0 km/h (1 Bft) W-SW 248 ° 0 min 0,000 mm 0,0 UV-I 47 W/m² -1,5 °C -0,2 °C 6,4 km/h (2 Bft)
18.03.2019 08:04 -0,2 °C 91 % 1015,7 hPa 0,0 mm 6,6 km/h (2 Bft) W-SW 254 ° 0 min 0,000 mm 0,0 UV-I 49 W/m² -1,5 °C -2,5 °C 11,3 km/h (2 Bft)
18.03.2019 08:05 -0,2 °C 91 % 1015,7 hPa 0,0 mm 2,5 km/h (1 Bft) S-SW 211 ° 0 min 0,000 mm 0,0 UV-I 51 W/m² -1,5 °C -0,2 °C 4,8 km/h (1 Bft)
18.03.2019 08:06 -0,2 °C 91 % 1015,7 hPa 0,0 mm 6,6 km/h (2 Bft) SW 236 ° 0 min 0,000 mm 0,0 UV-I 51 W/m² -1,5 °C -2,5 °C 11,3 km/h (2 Bft)
18.03.2019 08:07 -0,1 °C 91 % 1015,7 hPa 0,0 mm 6,2 km/h (2 Bft) W-SW 257 ° 0 min 0,000 mm 0,0 UV-I 49 W/m² -1,4 °C -2,2 °C 9,7 km/h (2 Bft)
18.03.2019 08:08 -0,2 °C 91 % 1015,8 hPa 0,0 mm 5,8 km/h (2 Bft) W-SW 258 ° 0 min 0,000 mm 0,0 UV-I 51 W/m² -1,5 °C -2,2 °C 8,0 km/h (2 Bft)
18.03.2019 08:09 -0,1 °C 91 % 1015,8 hPa 0,0 mm 4,3 km/h (1 Bft) W 268 ° 0 min 0,000 mm 0,0 UV-I 51 W/m² -1,4 °C -0,1 °C 6,4 km/h (2 Bft)
18.03.2019 08:10 -0,1 °C 91 % 1015,8 hPa 0,0 mm 4,5 km/h (1 Bft) S-SW 194 ° 0 min 0,000 mm 0,0 UV-I 53 W/m² -1,4 °C -0,1 °C 8,0 km/h (2 Bft)
18.03.2019 08:11 -0,1 °C 91 % 1015,7 hPa 0,0 mm 3,2 km/h (1 Bft) W-SW 237 ° 0 min 0,000 mm 0,0 UV-I 54 W/m² -1,4 °C -0,1 °C 4,8 km/h (1 Bft)
18.03.2019 08:12 -0,1 °C 91 % 1015,7 hPa 0,0 mm 3,9 km/h (1 Bft) W 273 ° 0 min 0,000 mm 0,0 UV-I 56 W/m² -1,4 °C -0,1 °C 6,4 km/h (2 Bft)
18.03.2019 08:13 -0,1 °C 91 % 1015,7 hPa 0,0 mm 4,9 km/h (1 Bft) W-SW 248 ° 0 min 0,000 mm 0,0 UV-I 56 W/m² -1,4 °C -1,7 °C 6,4 km/h (2 Bft)
18.03.2019 08:14 -0,1 °C 91 % 1015,7 hPa 0,0 mm 5,0 km/h (1 Bft) W 271 ° 0 min 0,000 mm 0,0 UV-I 56 W/m² -1,4 °C -1,7 °C 11,3 km/h (2 Bft)
18.03.2019 08:15 -0,1 °C 91 % 1015,8 hPa 0,0 mm 6,8 km/h (2 Bft) W-SW 249 ° 0 min 0,000 mm 0,0 UV-I 54 W/m² -1,4 °C -2,4 °C 12,9 km/h (3 Bft)
18.03.2019 08:16 0,0 °C 91 % 1015,8 hPa 0,0 mm 4,1 km/h (1 Bft) SW 222 ° 0 min 0,000 mm 0,0 UV-I 56 W/m² -1,3 °C 0,0 °C 6,4 km/h (2 Bft)
18.03.2019 08:17 0,0 °C 91 % 1015,7 hPa 0,0 mm 3,1 km/h (1 Bft) SW 219 ° 0 min 0,000 mm 0,0 UV-I 58 W/m² -1,3 °C 0,0 °C 4,8 km/h (1 Bft)
18.03.2019 08:18 0,0 °C 91 % 1015,7 hPa 0,0 mm 4,4 km/h (1 Bft) S-SW 200 ° 0 min 0,000 mm 0,0 UV-I 62 W/m² -1,3 °C 0,0 °C 6,4 km/h (2 Bft)
18.03.2019 08:19 0,1 °C 90 % 1015,7 hPa 0,0 mm 4,8 km/h (1 Bft) S-SW 194 ° 0 min 0,000 mm 0,0 UV-I 63 W/m² -1,3 °C -1,4 °C 8,0 km/h (2 Bft)
18.03.2019 08:20 0,1 °C 90 % 1015,7 hPa 0,0 mm 6,3 km/h (2 Bft) S-SW 192 ° 0 min 0,000 mm 0,0 UV-I 65 W/m² -1,3 °C -2,0 °C 9,7 km/h (2 Bft)
18.03.2019 08:21 0,1 °C 90 % 1015,7 hPa 0,0 mm 1,5 km/h (1 Bft) S-SW 193 ° 0 min 0,000 mm 0,0 UV-I 65 W/m² -1,3 °C 0,1 °C 3,2 km/h (1 Bft)
18.03.2019 08:22 0,1 °C 90 % 1015,7 hPa 0,0 mm 2,3 km/h (1 Bft) S-SW 193 ° 0 min 0,000 mm 0,0 UV-I 60 W/m² -1,3 °C 0,1 °C 4,8 km/h (1 Bft)
18.03.2019 08:23 0,1 °C 90 % 1015,7 hPa 0,0 mm 4,2 km/h (1 Bft) W-SW 255 ° 0 min 0,000 mm 0,0 UV-I 53 W/m² -1,3 °C 0,1 °C 6,4 km/h (2 Bft)
18.03.2019 08:24 0,1 °C 90 % 1015,7 hPa 0,0 mm 5,3 km/h (1 Bft) W-SW 255 ° 0 min 0,000 mm 0,0 UV-I 47 W/m² -1,3 °C -1,6 °C 9,7 km/h (2 Bft)
18.03.2019 08:25 0,1 °C 90 % 1015,8 hPa 0,0 mm 5,9 km/h (2 Bft) W-SW 254 ° 0 min 0,000 mm 0,0 UV-I 47 W/m² -1,3 °C -1,9 °C 8,0 km/h (2 Bft)
18.03.2019 08:26 0,2 °C 90 % 1015,8 hPa 0,0 mm 7,4 km/h (2 Bft) W-SW 257 ° 0 min 0,000 mm 0,0 UV-I 53 W/m² -1,2 °C -2,3 °C 11,3 km/h (2 Bft)
18.03.2019 08:27 0,2 °C 90 % 1015,7 hPa 0,0 mm 7,3 km/h (2 Bft) W 266 ° 0 min 0,000 mm 0,0 UV-I 56 W/m² -1,2 °C -2,3 °C 11,3 km/h (2 Bft)
18.03.2019 08:28 0,2 °C 90 % 1015,7 hPa 0,0 mm 7,7 km/h (2 Bft) W 276 ° 0 min 0,000 mm 0,0 UV-I 63 W/m² -1,2 °C -2,4 °C 11,3 km/h (2 Bft)
18.03.2019 08:29 0,3 °C 90 % 1015,6 hPa 0,0 mm 6,2 km/h (2 Bft) SW 228 ° 0 min 0,000 mm 0,0 UV-I 65 W/m² -1,1 °C -1,8 °C 11,3 km/h (2 Bft)
18.03.2019 08:30 0,3 °C 90 % 1015,6 hPa 0,0 mm 5,4 km/h (1 Bft) W-SW 252 ° 0 min 0,000 mm 0,0 UV-I 67 W/m² -1,1 °C -1,4 °C 6,4 km/h (2 Bft)
18.03.2019 08:31 0,3 °C 90 % 1015,6 hPa 0,0 mm 6,3 km/h (2 Bft) W 265 ° 0 min 0,000 mm 0,0 UV-I 69 W/m² -1,1 °C -1,8 °C 9,7 km/h (2 Bft)
18.03.2019 08:32 0,3 °C 90 % 1015,6 hPa 0,0 mm 9,0 km/h (2 Bft) W 272 ° 0 min 0,000 mm 0,0 UV-I 65 W/m² -1,1 °C -2,7 °C 12,9 km/h (3 Bft)
18.03.2019 08:33 0,3 °C 90 % 1015,7 hPa 0,0 mm 8,4 km/h (2 Bft) W 261 ° 0 min 0,000 mm 0,0 UV-I 60 W/m² -1,1 °C -2,5 °C 14,5 km/h (3 Bft)
18.03.2019 08:34 0,4 °C 90 % 1015,7 hPa 0,0 mm 7,6 km/h (2 Bft) W 278 ° 0 min 0,000 mm 0,0 UV-I 58 W/m² -1,0 °C -2,1 °C 12,9 km/h (3 Bft)
18.03.2019 08:35 0,4 °C 90 % 1015,7 hPa 0,0 mm 7,8 km/h (2 Bft) W 265 ° 0 min 0,000 mm 0,0 UV-I 58 W/m² -1,0 °C -2,2 °C 11,3 km/h (2 Bft)
18.03.2019 08:36 0,4 °C 89 % 1015,7 hPa 0,0 mm 5,8 km/h (2 Bft) W 264 ° 0 min 0,000 mm 0,0 UV-I 58 W/m² -1,2 °C -1,5 °C 9,7 km/h (2 Bft)
18.03.2019 08:37 0,4 °C 89 % 1015,7 hPa 0,0 mm 8,3 km/h (2 Bft) W-SW 258 ° 0 min 0,000 mm 0,0 UV-I 54 W/m² -1,2 °C -2,4 °C 14,5 km/h (3 Bft)
18.03.2019 08:38 0,4 °C 89 % 1015,7 hPa 0,0 mm 8,6 km/h (2 Bft) W 261 ° 0 min 0,000 mm 0,0 UV-I 54 W/m² -1,2 °C -2,5 °C 14,5 km/h (3 Bft)
18.03.2019 08:39 0,4 °C 89 % 1015,7 hPa 0,0 mm 10,7 km/h (2 Bft) W-NW 282 ° 0 min 0,000 mm 0,0 UV-I 65 W/m² -1,2 °C -3,0 °C 16,1 km/h (3 Bft)
18.03.2019 08:40 0,4 °C 89 % 1015,7 hPa 0,0 mm 9,1 km/h (2 Bft) W 263 ° 0 min 0,000 mm 0,0 UV-I 67 W/m² -1,2 °C -2,6 °C 12,9 km/h (3 Bft)
18.03.2019 08:41 0,5 °C 89 % 1015,7 hPa 0,0 mm 7,5 km/h (2 Bft) SW 234 ° 0 min 0,000 mm 0,0 UV-I 70 W/m² -1,1 °C -2,0 °C 14,5 km/h (3 Bft)
18.03.2019 08:42 0,5 °C 88 % 1015,7 hPa 0,0 mm 9,3 km/h (2 Bft) W-SW 251 ° 0 min 0,000 mm 0,0 UV-I 72 W/m² -1,3 °C -2,5 °C 17,7 km/h (3 Bft)
18.03.2019 08:43 0,6 °C 88 % 1015,7 hPa 0,0 mm 7,5 km/h (2 Bft) S-SW 203 ° 0 min 0,000 mm 0,0 UV-I 67 W/m² -1,2 °C -1,9 °C 12,9 km/h (3 Bft)
18.03.2019 08:44 0,6 °C 88 % 1015,7 hPa 0,0 mm 9,7 km/h (2 Bft) W-SW 237 ° 0 min 0,000 mm 0,0 UV-I 63 W/m² -1,2 °C -2,5 °C 19,3 km/h (3 Bft)
18.03.2019 08:45 0,7 °C 88 % 1015,7 hPa 0,0 mm 6,6 km/h (2 Bft) S-SW 213 ° 0 min 0,000 mm 0,0 UV-I 63 W/m² -1,1 °C -1,4 °C 11,3 km/h (2 Bft)
18.03.2019 08:46 0,7 °C 87 % 1015,8 hPa 0,0 mm 6,6 km/h (2 Bft) W-SW 254 ° 0 min 0,000 mm 0,0 UV-I 62 W/m² -1,2 °C -1,4 °C 12,9 km/h (3 Bft)
18.03.2019 08:47 0,7 °C 87 % 1015,8 hPa 0,0 mm 8,8 km/h (2 Bft) W-SW 249 ° 0 min 0,000 mm 0,0 UV-I 63 W/m² -1,2 °C -2,2 °C 14,5 km/h (3 Bft)
18.03.2019 08:48 0,7 °C 86 % 1015,8 hPa 0,0 mm 5,9 km/h (2 Bft) W 259 ° 0 min 0,000 mm 0,5 UV-I 67 W/m² -1,4 °C -1,2 °C 8,0 km/h (2 Bft)
18.03.2019 08:49 0,8 °C 86 % 1015,8 hPa 0,0 mm 6,7 km/h (2 Bft) SW 234 ° 0 min 0,000 mm 0,5 UV-I 72 W/m² -1,3 °C -1,4 °C 11,3 km/h (2 Bft)
18.03.2019 08:50 0,8 °C 86 % 1015,9 hPa 0,0 mm 6,8 km/h (2 Bft) W-SW 246 ° 0 min 0,000 mm 0,5 UV-I 77 W/m² -1,3 °C -1,4 °C 9,7 km/h (2 Bft)
18.03.2019 08:51 0,8 °C 86 % 1015,9 hPa 0,0 mm 11,0 km/h (2 Bft) W-SW 245 ° 0 min 0,000 mm 0,5 UV-I 84 W/m² -1,3 °C -2,6 °C 17,7 km/h (3 Bft)
18.03.2019 08:52 0,8 °C 86 % 1015,9 hPa 0,0 mm 7,9 km/h (2 Bft) SW 236 ° 0 min 0,000 mm 0,5 UV-I 84 W/m² -1,3 °C -1,8 °C 14,5 km/h (3 Bft)
18.03.2019 08:53 0,8 °C 86 % 1015,8 hPa 0,0 mm 7,7 km/h (2 Bft) W-SW 244 ° 0 min 0,000 mm 0,5 UV-I 91 W/m² -1,3 °C -1,7 °C 11,3 km/h (2 Bft)
18.03.2019 08:54 0,9 °C 85 % 1015,9 hPa 0,0 mm 7,0 km/h (2 Bft) W-SW 254 ° 0 min 0,000 mm 0,5 UV-I 93 W/m² -1,3 °C -1,4 °C 11,3 km/h (2 Bft)
18.03.2019 08:55 0,9 °C 85 % 1015,9 hPa 0,0 mm 5,7 km/h (1 Bft) W-SW 246 ° 0 min 0,000 mm 0,5 UV-I 83 W/m² -1,3 °C -0,9 °C 11,3 km/h (2 Bft)
18.03.2019 08:56 0,9 °C 85 % 1015,9 hPa 0,0 mm 6,2 km/h (2 Bft) W-SW 252 ° 0 min 0,000 mm 0,5 UV-I 83 W/m² -1,3 °C -1,1 °C 9,7 km/h (2 Bft)
18.03.2019 08:57 1,0 °C 85 % 1016,0 hPa 0,0 mm 8,3 km/h (2 Bft) W-SW 252 ° 0 min 0,000 mm 0,5 UV-I 107 W/m² -1,2 °C -1,7 °C 11,3 km/h (2 Bft)
18.03.2019 08:58 1,1 °C 85 % 1016,0 hPa 0,0 mm 8,6 km/h (2 Bft) W 263 ° 0 min 0,000 mm 0,5 UV-I 109 W/m² -1,1 °C -1,6 °C 14,5 km/h (3 Bft)
18.03.2019 08:59 1,1 °C 85 % 1016,0 hPa 0,0 mm 6,7 km/h (2 Bft) SW 224 ° 0 min 0,000 mm 0,5 UV-I 95 W/m² -1,1 °C -1,0 °C 9,7 km/h (2 Bft)
18.03.2019 09:00 1,1 °C 85 % 1016,0 hPa 0,0 mm 5,8 km/h (2 Bft) W 264 ° 0 min 0,000 mm 0,5 UV-I 93 W/m² -1,1 °C -0,7 °C 9,7 km/h (2 Bft)
18.03.2019 09:01 1,1 °C 85 % 1015,9 hPa 0,0 mm 7,2 km/h (2 Bft) W-SW 242 ° 0 min 0,025 mm 0,5 UV-I 95 W/m² -1,1 °C -1,2 °C 12,9 km/h (3 Bft)
18.03.2019 09:02 1,1 °C 85 % 1015,9 hPa 0,0 mm 7,7 km/h (2 Bft) SW 225 ° 0 min 0,000 mm 0,6 UV-I 90 W/m² -1,1 °C -1,4 °C 12,9 km/h (3 Bft)
18.03.2019 09:03 1,1 °C 84 % 1015,9 hPa 0,0 mm 10,0 km/h (2 Bft) W 275 ° 0 min 0,000 mm 0,6 UV-I 88 W/m² -1,3 °C -2,0 °C 11,3 km/h (2 Bft)
18.03.2019 09:04 1,1 °C 84 % 1015,9 hPa 0,0 mm 7,0 km/h (2 Bft) W-SW 245 ° 0 min 0,000 mm 0,7 UV-I 93 W/m² -1,3 °C -1,1 °C 16,1 km/h (3 Bft)
18.03.2019 09:05 1,2 °C 84 % 1016,1 hPa 0,0 mm 6,1 km/h (2 Bft) W 269 ° 0 min 0,000 mm 0,7 UV-I 98 W/m² -1,2 °C -0,7 °C 11,3 km/h (2 Bft)
18.03.2019 09:06 1,2 °C 84 % 1016,1 hPa 0,0 mm 5,8 km/h (2 Bft) W 271 ° 0 min 0,000 mm 0,7 UV-I 104 W/m² -1,2 °C -0,6 °C 9,7 km/h (2 Bft)
18.03.2019 09:07 1,2 °C 84 % 1016,1 hPa 0,0 mm 6,6 km/h (2 Bft) W-SW 256 ° 0 min 0,000 mm 0,8 UV-I 113 W/m² -1,2 °C -0,9 °C 9,7 km/h (2 Bft)
18.03.2019 09:08 1,2 °C 84 % 1016,1 hPa 0,0 mm 4,8 km/h (1 Bft) W-SW 246 ° 0 min 0,000 mm 0,8 UV-I 116 W/m² -1,2 °C -0,1 °C 6,4 km/h (2 Bft)
18.03.2019 09:09 1,2 °C 84 % 1016,1 hPa 0,0 mm 6,8 km/h (2 Bft) W 263 ° 0 min 0,000 mm 0,8 UV-I 135 W/m² -1,2 °C -0,9 °C 9,7 km/h (2 Bft)
18.03.2019 09:10 1,2 °C 84 % 1016,1 hPa 0,0 mm 6,4 km/h (2 Bft) W 259 ° 0 min 0,000 mm 1,0 UV-I 149 W/m² -1,2 °C -0,8 °C 12,9 km/h (3 Bft)
18.03.2019 09:11 1,2 °C 84 % 1016,1 hPa 0,0 mm 7,0 km/h (2 Bft) W 260 ° 0 min 0,000 mm 1,1 UV-I 167 W/m² -1,2 °C -1,0 °C 14,5 km/h (3 Bft)
18.03.2019 09:12 1,3 °C 84 % 1016,1 hPa 0,0 mm 5,5 km/h (1 Bft) W-SW 254 ° 0 min 0,000 mm 1,1 UV-I 186 W/m² -1,1 °C -0,3 °C 9,7 km/h (2 Bft)
18.03.2019 09:13 1,3 °C 85 % 1016,1 hPa 0,0 mm 7,8 km/h (2 Bft) W 265 ° 0 min 0,000 mm 1,0 UV-I 181 W/m² -0,9 °C -1,2 °C 12,9 km/h (3 Bft)
18.03.2019 09:14 1,3 °C 84 % 1016,2 hPa 0,0 mm 8,9 km/h (2 Bft) W-SW 254 ° 0 min 0,000 mm 0,9 UV-I 132 W/m² -1,1 °C -1,5 °C 12,9 km/h (3 Bft)
18.03.2019 09:15 1,3 °C 85 % 1016,2 hPa 0,0 mm 7,3 km/h (2 Bft) W-SW 248 ° 0 min 0,000 mm 1,0 UV-I 127 W/m² -0,9 °C -1,0 °C 11,3 km/h (2 Bft)
18.03.2019 09:16 1,3 °C 85 % 1016,2 hPa 0,0 mm 11,6 km/h (2 Bft) W-SW 257 ° 0 min 0,000 mm 1,0 UV-I 125 W/m² -0,9 °C -2,1 °C 19,3 km/h (3 Bft)
18.03.2019 09:17 1,3 °C 85 % 1016,3 hPa 0,0 mm 12,0 km/h (2 Bft) W-SW 250 ° 0 min 0,000 mm 0,9 UV-I 114 W/m² -0,9 °C -2,2 °C 16,1 km/h (3 Bft)
18.03.2019 09:18 1,3 °C 85 % 1016,3 hPa 0,0 mm 9,2 km/h (2 Bft) W-SW 251 ° 0 min 0,000 mm 1,0 UV-I 120 W/m² -0,9 °C -1,6 °C 16,1 km/h (3 Bft)
18.03.2019 09:19 1,2 °C 85 % 1016,3 hPa 0,0 mm 8,2 km/h (2 Bft) W-SW 244 ° 0 min 0,000 mm 1,1 UV-I 127 W/m² -1,0 °C -1,4 °C 12,9 km/h (3 Bft)
18.03.2019 09:20 1,2 °C 85 % 1016,4 hPa 0,0 mm 8,4 km/h (2 Bft) SW 222 ° 0 min 0,000 mm 1,2 UV-I 141 W/m² -1,0 °C -1,4 °C 11,3 km/h (2 Bft)
18.03.2019 09:21 1,1 °C 85 % 1016,4 hPa 0,0 mm 10,3 km/h (2 Bft) W 277 ° 0 min 0,000 mm 1,2 UV-I 142 W/m² -1,1 °C -2,1 °C 16,1 km/h (3 Bft)
18.03.2019 09:22 1,1 °C 86 % 1016,4 hPa 0,0 mm 8,7 km/h (2 Bft) W 267 ° 0 min 0,000 mm 1,2 UV-I 149 W/m² -1,0 °C -1,7 °C 12,9 km/h (3 Bft)
18.03.2019 09:23 1,1 °C 85 % 1016,3 hPa 0,0 mm 9,6 km/h (2 Bft) W 259 ° 0 min 0,000 mm 1,3 UV-I 158 W/m² -1,1 °C -1,9 °C 12,9 km/h (3 Bft)
18.03.2019 09:24 1,1 °C 86 % 1016,3 hPa 0,0 mm 10,3 km/h (2 Bft) W 274 ° 0 min 0,000 mm 1,3 UV-I 151 W/m² -1,0 °C -2,1 °C 14,5 km/h (3 Bft)
18.03.2019 09:25 1,1 °C 86 % 1016,3 hPa 0,0 mm 6,2 km/h (2 Bft) W-SW 256 ° 0 min 0,000 mm 1,3 UV-I 137 W/m² -1,0 °C -0,8 °C 9,7 km/h (2 Bft)
18.03.2019 09:26 1,1 °C 86 % 1016,3 hPa 0,0 mm 6,6 km/h (2 Bft) W 265 ° 0 min 0,000 mm 1,3 UV-I 134 W/m² -1,0 °C -1,0 °C 11,3 km/h (2 Bft)
18.03.2019 09:27 1,1 °C 86 % 1016,3 hPa 0,0 mm 7,7 km/h (2 Bft) W-SW 248 ° 0 min 0,000 mm 1,3 UV-I 142 W/m² -1,0 °C -1,4 °C 12,9 km/h (3 Bft)
18.03.2019 09:28 1,1 °C 86 % 1016,3 hPa 0,0 mm 11,3 km/h (2 Bft) W-NW 292 ° 0 min 0,000 mm 1,4 UV-I 162 W/m² -1,0 °C -2,3 °C 14,5 km/h (3 Bft)
18.03.2019 09:29 1,1 °C 86 % 1016,4 hPa 0,0 mm 6,6 km/h (2 Bft) W 268 ° 0 min 0,000 mm 1,6 UV-I 221 W/m² -1,0 °C -1,0 °C 12,9 km/h (3 Bft)
18.03.2019 09:30 1,2 °C 87 % 1016,4 hPa 0,0 mm 8,9 km/h (2 Bft) W 263 ° 0 min 0,000 mm 2,0 UV-I 221 W/m² -0,7 °C -1,6 °C 16,1 km/h (3 Bft)
18.03.2019 09:31 1,2 °C 86 % 1016,5 hPa 0,0 mm 10,8 km/h (2 Bft) W 265 ° 0 min 0,000 mm 1,7 UV-I 221 W/m² -0,9 °C -2,1 °C 17,7 km/h (3 Bft)
18.03.2019 09:32 1,3 °C 86 % 1016,6 hPa 0,0 mm 11,5 km/h (2 Bft) S-SW 204 ° 0 min 0,000 mm 1,5 UV-I 221 W/m² -0,8 °C -2,1 °C 16,1 km/h (3 Bft)
18.03.2019 09:33 1,4 °C 86 % 1016,6 hPa 0,0 mm 9,7 km/h (2 Bft) W 264 ° 0 min 0,000 mm 1,3 UV-I 190 W/m² -0,7 °C -1,6 °C 16,1 km/h (3 Bft)
18.03.2019 09:34 1,4 °C 85 % 1016,6 hPa 0,0 mm 13,8 km/h (3 Bft) W-NW 286 ° 0 min 0,000 mm 1,3 UV-I 216 W/m² -0,8 °C -2,5 °C 17,7 km/h (3 Bft)
18.03.2019 09:35 1,4 °C 85 % 1016,6 hPa 0,0 mm 14,0 km/h (3 Bft) W-NW 287 ° 0 min 0,000 mm 1,1 UV-I 149 W/m² -0,8 °C -2,5 °C 17,7 km/h (3 Bft)
18.03.2019 09:36 1,5 °C 85 % 1016,7 hPa 0,0 mm 8,6 km/h (2 Bft) W-SW 252 ° 0 min 0,000 mm 1,1 UV-I 149 W/m² -0,7 °C -1,2 °C 14,5 km/h (3 Bft)
18.03.2019 09:37 1,5 °C 84 % 1016,8 hPa 0,0 mm 8,9 km/h (2 Bft) W 271 ° 0 min 0,000 mm 1,0 UV-I 141 W/m² -0,9 °C -1,2 °C 12,9 km/h (3 Bft)
18.03.2019 09:38 1,5 °C 84 % 1016,7 hPa 0,0 mm 10,9 km/h (2 Bft) W-SW 258 ° 0 min 0,000 mm 1,1 UV-I 146 W/m² -0,9 °C -1,7 °C 17,7 km/h (3 Bft)
18.03.2019 09:39 1,5 °C 84 % 1016,7 hPa 0,2 mm 5,0 km/h (1 Bft) W 281 ° 0 min 0,000 mm 1,3 UV-I 176 W/m² -0,9 °C 0,1 °C 6,4 km/h (2 Bft)
18.03.2019 09:40 1,6 °C 84 % 1016,8 hPa 0,0 mm 6,6 km/h (2 Bft) S-SW 194 ° 0 min 0,000 mm 1,2 UV-I 165 W/m² -0,8 °C -0,4 °C 12,9 km/h (3 Bft)
18.03.2019 09:41 1,6 °C 84 % 1016,7 hPa 0,0 mm 10,6 km/h (2 Bft) W 276 ° 0 min 0,000 mm 1,2 UV-I 160 W/m² -0,8 °C -1,5 °C 19,3 km/h (3 Bft)
18.03.2019 09:42 1,5 °C 83 % 1016,8 hPa 0,0 mm 15,6 km/h (3 Bft) W 265 ° 0 min 0,000 mm 1,0 UV-I 135 W/m² -1,1 °C -2,7 °C 20,9 km/h (4 Bft)
18.03.2019 09:43 1,5 °C 83 % 1016,8 hPa 0,0 mm 11,6 km/h (2 Bft) W 272 ° 0 min 0,000 mm 0,8 UV-I 95 W/m² -1,1 °C -1,9 °C 17,7 km/h (3 Bft)
18.03.2019 09:44 1,6 °C 83 % 1016,8 hPa 0,0 mm 12,5 km/h (3 Bft) W 261 ° 0 min 0,000 mm 0,7 UV-I 79 W/m² -1,0 °C -2,0 °C 16,1 km/h (3 Bft)
18.03.2019 09:45 1,4 °C 83 % 1016,8 hPa 0,0 mm 15,5 km/h (3 Bft) W-SW 251 ° 0 min 0,000 mm 0,7 UV-I 76 W/m² -1,2 °C -2,8 °C 19,3 km/h (3 Bft)
18.03.2019 09:46 1,4 °C 83 % 1016,9 hPa 0,0 mm 11,3 km/h (2 Bft) W 260 ° 0 min 0,000 mm 0,7 UV-I 74 W/m² -1,2 °C -2,0 °C 17,7 km/h (3 Bft)
18.03.2019 09:47 1,4 °C 84 % 1016,9 hPa 0,0 mm 9,9 km/h (2 Bft) W 266 ° 0 min 0,000 mm 0,6 UV-I 70 W/m² -1,0 °C -1,6 °C 14,5 km/h (3 Bft)
18.03.2019 09:48 1,4 °C 84 % 1016,9 hPa 0,0 mm 14,5 km/h (3 Bft) NW 304 ° 0 min 0,000 mm 0,6 UV-I 63 W/m² -1,0 °C -2,6 °C 19,3 km/h (3 Bft)
18.03.2019 09:49 1,4 °C 84 % 1016,9 hPa 0,2 mm 7,7 km/h (2 Bft) SW 230 ° 0 min 0,000 mm 0,0 UV-I 53 W/m² -1,0 °C -1,0 °C 11,3 km/h (2 Bft)
18.03.2019 09:50 1,4 °C 84 % 1016,9 hPa 0,0 mm 8,9 km/h (2 Bft) W-SW 248 ° 0 min 0,000 mm 0,0 UV-I 51 W/m² -1,0 °C -1,4 °C 16,1 km/h (3 Bft)
18.03.2019 09:51 1,3 °C 84 % 1016,9 hPa 0,0 mm 10,3 km/h (2 Bft) W-SW 257 ° 0 min 0,000 mm 0,5 UV-I 56 W/m² -1,1 °C -1,8 °C 12,9 km/h (3 Bft)
18.03.2019 09:52 1,3 °C 84 % 1016,9 hPa 0,0 mm 5,8 km/h (2 Bft) W-SW 253 ° 0 min 0,000 mm 0,6 UV-I 62 W/m² -1,1 °C -0,5 °C 9,7 km/h (2 Bft)
18.03.2019 09:53 1,3 °C 84 % 1017,0 hPa 0,0 mm 8,3 km/h (2 Bft) W-SW 242 ° 0 min 0,000 mm 0,6 UV-I 69 W/m² -1,1 °C -1,3 °C 16,1 km/h (3 Bft)
18.03.2019 09:54 1,3 °C 84 % 1016,9 hPa 0,0 mm 9,8 km/h (2 Bft) W-SW 237 ° 0 min 0,000 mm 0,6 UV-I 77 W/m² -1,1 °C -1,7 °C 14,5 km/h (3 Bft)
18.03.2019 09:55 1,3 °C 84 % 1016,9 hPa 0,0 mm 8,1 km/h (2 Bft) W 269 ° 0 min 0,000 mm 0,7 UV-I 95 W/m² -1,1 °C -1,2 °C 12,9 km/h (3 Bft)
18.03.2019 09:56 1,3 °C 84 % 1016,9 hPa 0,0 mm 9,4 km/h (2 Bft) W-SW 257 ° 0 min 0,000 mm 0,8 UV-I 100 W/m² -1,1 °C -1,6 °C 14,5 km/h (3 Bft)
18.03.2019 09:57 1,3 °C 84 % 1016,9 hPa 0,0 mm 8,0 km/h (2 Bft) S-SW 207 ° 0 min 0,000 mm 0,9 UV-I 120 W/m² -1,1 °C -1,2 °C 16,1 km/h (3 Bft)
18.03.2019 09:58 1,3 °C 84 % 1016,9 hPa 0,0 mm 4,8 km/h (1 Bft) W 259 ° 0 min 0,000 mm 1,1 UV-I 144 W/m² -1,1 °C -0,0 °C 11,3 km/h (2 Bft)
18.03.2019 09:59 1,3 °C 84 % 1016,8 hPa 0,0 mm 5,5 km/h (1 Bft) S-SW 208 ° 0 min 0,000 mm 1,3 UV-I 167 W/m² -1,1 °C -0,3 °C 8,0 km/h (2 Bft)
18.03.2019 10:00 1,3 °C 84 % 1016,8 hPa 0,0 mm 5,5 km/h (1 Bft) S 187 ° 0 min 0,000 mm 1,5 UV-I 181 W/m² -1,1 °C -0,3 °C 9,7 km/h (2 Bft)
18.03.2019 10:01 1,4 °C 83 % 1016,8 hPa 0,0 mm 5,3 km/h (1 Bft) W-SW 240 ° 0 min 0,051 mm 1,7 UV-I 213 W/m² -1,2 °C -0,1 °C 11,3 km/h (2 Bft)
18.03.2019 10:02 1,4 °C 84 % 1016,8 hPa 0,0 mm 5,9 km/h (2 Bft) W-SW 245 ° 0 min 0,000 mm 2,0 UV-I 241 W/m² -1,0 °C -0,4 °C 12,9 km/h (3 Bft)
18.03.2019 10:03 1,4 °C 84 % 1016,8 hPa 0,0 mm 7,4 km/h (2 Bft) W-SW 251 ° 0 min 0,000 mm 2,1 UV-I 292 W/m² -1,0 °C -0,9 °C 11,3 km/h (2 Bft)
18.03.2019 10:04 1,6 °C 84 % 1016,9 hPa 0,0 mm 5,2 km/h (1 Bft) W-NW 300 ° 0 min 0,000 mm 3,1 UV-I 292 W/m² -0,8 °C 0,1 °C 14,5 km/h (3 Bft)
18.03.2019 10:05 1,7 °C 85 % 1016,9 hPa 0,0 mm 10,6 km/h (2 Bft) W-SW 255 ° 0 min 0,000 mm 3,0 UV-I 292 W/m² -0,5 °C -1,4 °C 14,5 km/h (3 Bft)
18.03.2019 10:06 1,9 °C 85 % 1016,9 hPa 0,0 mm 9,1 km/h (2 Bft) W-SW 253 ° 0 min 0,000 mm 2,5 UV-I 292 W/m² -0,3 °C -0,8 °C 12,9 km/h (3 Bft)
18.03.2019 10:07 1,9 °C 85 % 1017,0 hPa 0,0 mm 13,2 km/h (3 Bft) W 264 ° 0 min 0,000 mm 1,7 UV-I 292 W/m² -0,3 °C -1,7 °C 16,1 km/h (3 Bft)
18.03.2019 10:08 1,9 °C 85 % 1017,0 hPa 0,2 mm 9,2 km/h (2 Bft) S-SW 210 ° 0 min 0,000 mm 1,0 UV-I 292 W/m² -0,3 °C -0,8 °C 14,5 km/h (3 Bft)
18.03.2019 10:09 1,9 °C 84 % 1017,0 hPa 0,0 mm 7,8 km/h (2 Bft) SW 232 ° 0 min 0,000 mm 1,0 UV-I 167 W/m² -0,5 °C -0,4 °C 14,5 km/h (3 Bft)
18.03.2019 10:10 1,9 °C 83 % 1017,0 hPa 0,0 mm 13,3 km/h (3 Bft) W 277 ° 0 min 0,000 mm 1,1 UV-I 165 W/m² -0,7 °C -1,8 °C 17,7 km/h (3 Bft)
18.03.2019 10:11 1,8 °C 84 % 1017,0 hPa 0,0 mm 8,0 km/h (2 Bft) W 270 ° 0 min 0,000 mm 0,9 UV-I 151 W/m² -0,6 °C -0,6 °C 14,5 km/h (3 Bft)
18.03.2019 10:12 1,7 °C 84 % 1017,0 hPa 0,0 mm 11,8 km/h (2 Bft) W 265 ° 0 min 0,000 mm 0,7 UV-I 125 W/m² -0,7 °C -1,7 °C 14,5 km/h (3 Bft)
18.03.2019 10:13 1,7 °C 85 % 1017,1 hPa 0,0 mm 12,0 km/h (2 Bft) W-NW 290 ° 0 min 0,000 mm 0,7 UV-I 90 W/m² -0,5 °C -1,7 °C 14,5 km/h (3 Bft)
18.03.2019 10:14 1,6 °C 85 % 1017,2 hPa 0,0 mm 9,1 km/h (2 Bft) NW 317 ° 0 min 0,000 mm 0,0 UV-I 69 W/m² -0,6 °C -1,2 °C 16,1 km/h (3 Bft)
18.03.2019 10:15 1,6 °C 85 % 1017,3 hPa 0,0 mm 6,8 km/h (2 Bft) NW 321 ° 0 min 0,000 mm 0,0 UV-I 62 W/m² -0,6 °C -0,5 °C 11,3 km/h (2 Bft)
18.03.2019 10:16 1,4 °C 86 % 1017,3 hPa 0,0 mm 12,4 km/h (3 Bft) NW 317 ° 0 min 0,000 mm 0,0 UV-I 58 W/m² -0,7 °C -2,2 °C 17,7 km/h (3 Bft)
18.03.2019 10:17 1,4 °C 86 % 1017,4 hPa 0,0 mm 14,1 km/h (3 Bft) W-NW 288 ° 0 min 0,000 mm 0,0 UV-I 44 W/m² -0,7 °C -2,5 °C 22,5 km/h (4 Bft)
18.03.2019 10:18 1,2 °C 86 % 1017,6 hPa 0,0 mm 15,8 km/h (3 Bft) W-NW 296 ° 0 min 0,000 mm 0,0 UV-I 25 W/m² -0,9 °C -3,1 °C 20,9 km/h (4 Bft)
18.03.2019 10:19 1,1 °C 86 % 1017,6 hPa 0,0 mm 20,2 km/h (4 Bft) W-SW 254 ° 0 min 0,000 mm 0,0 UV-I 23 W/m² -1,0 °C -3,9 °C 24,1 km/h (4 Bft)
18.03.2019 10:20 0,9 °C 86 % 1017,6 hPa 0,0 mm 9,9 km/h (2 Bft) W 271 ° 0 min 0,000 mm 0,0 UV-I 23 W/m² -1,2 °C -2,2 °C 17,7 km/h (3 Bft)
18.03.2019 10:21 0,7 °C 87 % 1017,6 hPa 0,0 mm 15,2 km/h (3 Bft) W-NW 290 ° 0 min 0,000 mm 0,0 UV-I 23 W/m² -1,2 °C -3,6 °C 20,9 km/h (4 Bft)
18.03.2019 10:22 0,6 °C 88 % 1017,7 hPa 0,0 mm 15,0 km/h (3 Bft) W 270 ° 0 min 0,000 mm 0,0 UV-I 25 W/m² -1,2 °C -3,7 °C 27,4 km/h (4 Bft)
18.03.2019 10:23 0,4 °C 88 % 1017,7 hPa 0,0 mm 14,5 km/h (3 Bft) W 260 ° 0 min 0,000 mm 0,0 UV-I 26 W/m² -1,3 °C -3,8 °C 25,7 km/h (4 Bft)
18.03.2019 10:24 0,3 °C 88 % 1017,7 hPa 0,0 mm 14,7 km/h (3 Bft) NW 311 ° 0 min 0,000 mm 0,0 UV-I 28 W/m² -1,4 °C -4,0 °C 24,1 km/h (4 Bft)
18.03.2019 10:25 0,2 °C 88 % 1017,7 hPa 0,0 mm 15,8 km/h (3 Bft) W 266 ° 0 min 0,000 mm 0,0 UV-I 33 W/m² -1,5 °C -4,3 °C 19,3 km/h (3 Bft)
18.03.2019 10:26 0,1 °C 89 % 1017,8 hPa 0,0 mm 9,0 km/h (2 Bft) W 276 ° 0 min 0,000 mm 0,0 UV-I 32 W/m² -1,5 °C -2,9 °C 14,5 km/h (3 Bft)
18.03.2019 10:27 -0,1 °C 89 % 1017,8 hPa 0,0 mm 6,1 km/h (2 Bft) NW 307 ° 0 min 0,000 mm 0,0 UV-I 33 W/m² -1,7 °C -2,2 °C 11,3 km/h (2 Bft)
18.03.2019 10:28 -0,1 °C 90 % 1017,8 hPa 0,0 mm 8,9 km/h (2 Bft) W-NW 294 ° 0 min 0,000 mm 0,0 UV-I 33 W/m² -1,5 °C -3,1 °C 16,1 km/h (3 Bft)
18.03.2019 10:29 -0,2 °C 90 % 1017,8 hPa 0,0 mm 8,8 km/h (2 Bft) W-SW 242 ° 0 min 0,000 mm 0,0 UV-I 33 W/m² -1,6 °C -3,2 °C 14,5 km/h (3 Bft)
18.03.2019 10:30 -0,3 °C 90 % 1017,9 hPa 0,0 mm 12,7 km/h (3 Bft) W-SW 240 ° 0 min 0,000 mm 0,0 UV-I 35 W/m² -1,7 °C -4,3 °C 16,1 km/h (3 Bft)
18.03.2019 10:31 -0,3 °C 90 % 1018,0 hPa 0,0 mm 13,4 km/h (3 Bft) W-NW 283 ° 0 min 0,000 mm 0,0 UV-I 35 W/m² -1,7 °C -4,5 °C 19,3 km/h (3 Bft)
18.03.2019 10:32 -0,3 °C 90 % 1018,0 hPa 0,0 mm 14,6 km/h (3 Bft) W 265 ° 0 min 0,000 mm 0,0 UV-I 40 W/m² -1,7 °C -4,7 °C 20,9 km/h (4 Bft)
18.03.2019 10:33 -0,4 °C 90 % 1018,0 hPa 0,0 mm 9,5 km/h (2 Bft) W-NW 300 ° 0 min 0,000 mm 0,0 UV-I 44 W/m² -1,8 °C -3,7 °C 12,9 km/h (3 Bft)
18.03.2019 10:34 -0,5 °C 90 % 1018,0 hPa 0,0 mm 10,1 km/h (2 Bft) W 270 ° 0 min 0,000 mm 0,0 UV-I 42 W/m² -1,9 °C -3,9 °C 14,5 km/h (3 Bft)
18.03.2019 10:35 -0,6 °C 90 % 1018,1 hPa 0,0 mm 9,3 km/h (2 Bft) W-NW 297 ° 0 min 0,000 mm 0,0 UV-I 42 W/m² -2,0 °C -3,8 °C 12,9 km/h (3 Bft)
18.03.2019 10:36 -0,6 °C 91 % 1018,0 hPa 0,0 mm 10,3 km/h (2 Bft) W-SW 254 ° 0 min 0,000 mm 0,0 UV-I 39 W/m² -1,9 °C -4,1 °C 14,5 km/h (3 Bft)
18.03.2019 10:37 -0,6 °C 91 % 1018,1 hPa 0,0 mm 12,5 km/h (3 Bft) W-SW 253 ° 0 min 0,000 mm 0,0 UV-I 39 W/m² -1,9 °C -4,6 °C 16,1 km/h (3 Bft)
18.03.2019 10:38 -0,6 °C 91 % 1018,1 hPa 0,0 mm 13,3 km/h (3 Bft) W-NW 286 ° 0 min 0,000 mm 0,0 UV-I 39 W/m² -1,9 °C -4,8 °C 19,3 km/h (3 Bft)
18.03.2019 10:39 -0,7 °C 91 % 1018,1 hPa 0,0 mm 11,7 km/h (2 Bft) W-SW 248 ° 0 min 0,000 mm 0,0 UV-I 33 W/m² -2,0 °C -4,6 °C 14,5 km/h (3 Bft)
18.03.2019 10:40 -0,7 °C 91 % 1018,1 hPa 0,0 mm 10,4 km/h (2 Bft) W 265 ° 0 min 0,000 mm 0,0 UV-I 33 W/m² -2,0 °C -4,3 °C 14,5 km/h (3 Bft)
18.03.2019 10:41 -0,7 °C 91 % 1018,2 hPa 0,0 mm 11,4 km/h (2 Bft) W-SW 255 ° 0 min 0,000 mm 0,0 UV-I 35 W/m² -2,0 °C -4,5 °C 19,3 km/h (3 Bft)
18.03.2019 10:42 -0,7 °C 91 % 1018,2 hPa 0,0 mm 17,6 km/h (3 Bft) W-SW 246 ° 0 min 0,000 mm 0,0 UV-I 42 W/m² -2,0 °C -5,7 °C 24,1 km/h (4 Bft)
18.03.2019 10:43 -0,7 °C 91 % 1018,2 hPa 0,0 mm 9,7 km/h (2 Bft) W 269 ° 0 min 0,000 mm 0,0 UV-I 42 W/m² -2,0 °C -4,1 °C 17,7 km/h (3 Bft)
18.03.2019 10:44 -0,7 °C 91 % 1018,2 hPa 0,0 mm 10,2 km/h (2 Bft) W 271 ° 0 min 0,000 mm 0,0 UV-I 44 W/m² -2,0 °C -4,2 °C 16,1 km/h (3 Bft)
18.03.2019 10:45 -0,7 °C 91 % 1018,2 hPa 0,0 mm 14,7 km/h (3 Bft) W 259 ° 0 min 0,000 mm 0,0 UV-I 42 W/m² -2,0 °C -5,2 °C 20,9 km/h (4 Bft)
18.03.2019 10:46 -0,7 °C 92 % 1018,3 hPa 0,0 mm 13,5 km/h (3 Bft) W 266 ° 0 min 0,000 mm 0,0 UV-I 42 W/m² -1,8 °C -5,0 °C 20,9 km/h (4 Bft)
18.03.2019 10:47 -0,7 °C 92 % 1018,3 hPa 0,0 mm 13,6 km/h (3 Bft) W 267 ° 0 min 0,000 mm 0,0 UV-I 42 W/m² -1,8 °C -5,0 °C 19,3 km/h (3 Bft)
18.03.2019 10:48 -0,7 °C 92 % 1018,4 hPa 0,0 mm 9,9 km/h (2 Bft) W-SW 246 ° 0 min 0,000 mm 0,0 UV-I 40 W/m² -1,8 °C -4,1 °C 16,1 km/h (3 Bft)
18.03.2019 10:49 -0,7 °C 92 % 1018,4 hPa 0,0 mm 10,3 km/h (2 Bft) W 266 ° 0 min 0,000 mm 0,0 UV-I 40 W/m² -1,8 °C -4,2 °C 12,9 km/h (3 Bft)
18.03.2019 10:50 -0,7 °C 92 % 1018,4 hPa 0,0 mm 10,3 km/h (2 Bft) W-SW 257 ° 0 min 0,000 mm 0,0 UV-I 40 W/m² -1,8 °C -4,2 °C 14,5 km/h (3 Bft)
18.03.2019 10:51 -0,7 °C 92 % 1018,4 hPa 0,0 mm 12,1 km/h (2 Bft) W-SW 255 ° 0 min 0,000 mm 0,0 UV-I 46 W/m² -1,8 °C -4,7 °C 16,1 km/h (3 Bft)
18.03.2019 10:52 -0,7 °C 92 % 1018,4 hPa 0,0 mm 13,3 km/h (3 Bft) W-NW 291 ° 0 min 0,000 mm 0,0 UV-I 53 W/m² -1,8 °C -4,9 °C 16,1 km/h (3 Bft)
18.03.2019 10:53 -0,6 °C 92 % 1018,3 hPa 0,0 mm 6,1 km/h (2 Bft) SW 234 ° 0 min 0,000 mm 0,0 UV-I 65 W/m² -1,7 °C -2,8 °C 12,9 km/h (3 Bft)
18.03.2019 10:54 -0,6 °C 92 % 1018,3 hPa 0,0 mm 11,3 km/h (2 Bft) W-SW 257 ° 0 min 0,000 mm 0,0 UV-I 84 W/m² -1,7 °C -4,4 °C 19,3 km/h (3 Bft)
18.03.2019 10:55 -0,6 °C 92 % 1018,3 hPa 0,0 mm 10,4 km/h (2 Bft) W-SW 258 ° 0 min 0,000 mm 0,5 UV-I 97 W/m² -1,7 °C -4,1 °C 19,3 km/h (3 Bft)
18.03.2019 10:56 -0,6 °C 92 % 1018,3 hPa 0,0 mm 14,5 km/h (3 Bft) W 281 ° 0 min 0,000 mm 0,6 UV-I 105 W/m² -1,7 °C -5,1 °C 17,7 km/h (3 Bft)
18.03.2019 10:57 -0,6 °C 92 % 1018,4 hPa 0,0 mm 11,7 km/h (2 Bft) W-SW 252 ° 0 min 0,000 mm 0,6 UV-I 113 W/m² -1,7 °C -4,5 °C 14,5 km/h (3 Bft)
18.03.2019 10:58 -0,5 °C 91 % 1018,4 hPa 0,0 mm 9,1 km/h (2 Bft) W 264 ° 0 min 0,000 mm 0,6 UV-I 120 W/m² -1,8 °C -3,7 °C 17,7 km/h (3 Bft)
18.03.2019 10:59 -0,4 °C 92 % 1018,4 hPa 0,0 mm 14,1 km/h (3 Bft) NW 315 ° 0 min 0,000 mm 0,7 UV-I 125 W/m² -1,5 °C -4,7 °C 19,3 km/h (3 Bft)
18.03.2019 11:00 -0,3 °C 92 % 1018,5 hPa 0,0 mm 7,2 km/h (2 Bft) W-SW 241 ° 0 min 0,051 mm 0,7 UV-I 137 W/m² -1,4 °C -2,8 °C 11,3 km/h (2 Bft)
18.03.2019 11:01 -0,3 °C 92 % 1018,4 hPa 0,0 mm 7,3 km/h (2 Bft) W 279 ° 0 min 0,000 mm 0,8 UV-I 142 W/m² -1,4 °C -2,9 °C 9,7 km/h (2 Bft)
18.03.2019 11:02 -0,2 °C 92 % 1018,4 hPa 0,0 mm 9,0 km/h (2 Bft) W-SW 255 ° 0 min 0,000 mm 0,9 UV-I 148 W/m² -1,3 °C -3,3 °C 12,9 km/h (3 Bft)
18.03.2019 11:03 -0,2 °C 91 % 1018,4 hPa 0,0 mm 9,9 km/h (2 Bft) W 263 ° 0 min 0,000 mm 1,0 UV-I 160 W/m² -1,5 °C -3,5 °C 14,5 km/h (3 Bft)
18.03.2019 11:04 -0,1 °C 91 % 1018,4 hPa 0,0 mm 5,2 km/h (1 Bft) W-NW 290 ° 0 min 0,000 mm 1,0 UV-I 163 W/m² -1,4 °C -1,8 °C 6,4 km/h (2 Bft)
18.03.2019 11:05 -0,1 °C 91 % 1018,4 hPa 0,0 mm 9,3 km/h (2 Bft) W-SW 256 ° 0 min 0,000 mm 1,0 UV-I 156 W/m² -1,4 °C -3,2 °C 17,7 km/h (3 Bft)
18.03.2019 11:06 0,0 °C 91 % 1018,4 hPa 0,0 mm 8,0 km/h (2 Bft) W-NW 284 ° 0 min 0,000 mm 1,1 UV-I 239 W/m² -1,3 °C -2,7 °C 12,9 km/h (3 Bft)
18.03.2019 11:07 0,1 °C 91 % 1018,5 hPa 0,0 mm 4,8 km/h (1 Bft) W-NW 289 ° 0 min 0,000 mm 2,2 UV-I 308 W/m² -1,2 °C -1,4 °C 11,3 km/h (2 Bft)
18.03.2019 11:08 0,2 °C 91 % 1018,5 hPa 0,0 mm 7,3 km/h (2 Bft) W 263 ° 0 min 0,000 mm 1,5 UV-I 345 W/m² -1,1 °C -2,3 °C 14,5 km/h (3 Bft)
18.03.2019 11:09 0,3 °C 91 % 1018,4 hPa 0,0 mm 12,2 km/h (2 Bft) W-SW 252 ° 0 min 0,000 mm 1,6 UV-I 341 W/m² -1,0 °C -3,5 °C 17,7 km/h (3 Bft)
18.03.2019 11:10 0,4 °C 91 % 1018,4 hPa 0,0 mm 11,0 km/h (2 Bft) W 259 ° 0 min 0,000 mm 1,6 UV-I 369 W/m² -0,9 °C -3,1 °C 17,7 km/h (3 Bft)
18.03.2019 11:11 0,4 °C 90 % 1018,4 hPa 0,0 mm 8,4 km/h (2 Bft) W 267 ° 0 min 0,000 mm 1,4 UV-I 316 W/m² -1,0 °C -2,4 °C 12,9 km/h (3 Bft)
18.03.2019 11:12 0,4 °C 90 % 1018,4 hPa 0,0 mm 11,4 km/h (2 Bft) NW 318 ° 0 min 0,000 mm 1,4 UV-I 301 W/m² -1,0 °C -3,2 °C 17,7 km/h (3 Bft)
18.03.2019 11:13 0,5 °C 90 % 1018,4 hPa 0,0 mm 10,1 km/h (2 Bft) W 275 ° 0 min 0,000 mm 1,6 UV-I 301 W/m² -0,9 °C -2,7 °C 14,5 km/h (3 Bft)
18.03.2019 11:14 0,5 °C 89 % 1018,4 hPa 0,0 mm 11,0 km/h (2 Bft) W-NW 283 ° 0 min 0,000 mm 1,6 UV-I 271 W/m² -1,1 °C -3,0 °C 14,5 km/h (3 Bft)
18.03.2019 11:15 0,5 °C 89 % 1018,4 hPa 0,0 mm 11,5 km/h (2 Bft) W-SW 249 ° 0 min 0,000 mm 1,6 UV-I 276 W/m² -1,1 °C -3,1 °C 16,1 km/h (3 Bft)
18.03.2019 11:16 0,6 °C 89 % 1018,4 hPa 0,0 mm 9,8 km/h (2 Bft) W 265 ° 0 min 0,000 mm 1,8 UV-I 276 W/m² -1,0 °C -2,5 °C 14,5 km/h (3 Bft)
18.03.2019 11:17 0,6 °C 89 % 1018,5 hPa 0,0 mm 6,8 km/h (2 Bft) W-NW 285 ° 0 min 0,000 mm 1,7 UV-I 297 W/m² -1,0 °C -1,6 °C 11,3 km/h (2 Bft)
18.03.2019 11:18 0,6 °C 89 % 1018,4 hPa 0,0 mm 5,6 km/h (1 Bft) W-SW 238 ° 0 min 0,000 mm 1,9 UV-I 285 W/m² -1,0 °C -1,2 °C 9,7 km/h (2 Bft)
18.03.2019 11:19 0,6 °C 89 % 1018,5 hPa 0,0 mm 15,4 km/h (3 Bft) W-NW 290 ° 0 min 0,000 mm 1,8 UV-I 278 W/m² -1,0 °C -3,7 °C 22,5 km/h (4 Bft)
18.03.2019 11:20 0,6 °C 89 % 1018,5 hPa 0,0 mm 12,6 km/h (3 Bft) NW 306 ° 0 min 0,000 mm 1,8 UV-I 302 W/m² -1,0 °C -3,2 °C 17,7 km/h (3 Bft)
18.03.2019 11:21 0,6 °C 88 % 1018,5 hPa 0,0 mm 10,3 km/h (2 Bft) W 273 ° 0 min 0,000 mm 1,9 UV-I 278 W/m² -1,2 °C -2,7 °C 17,7 km/h (3 Bft)
18.03.2019 11:22 0,6 °C 88 % 1018,5 hPa 0,0 mm 13,6 km/h (3 Bft) W 270 ° 0 min 0,000 mm 2,0 UV-I 301 W/m² -1,2 °C -3,4 °C 17,7 km/h (3 Bft)
18.03.2019 11:23 0,7 °C 88 % 1018,5 hPa 0,0 mm 11,2 km/h (2 Bft) W 266 ° 0 min 0,000 mm 1,9 UV-I 237 W/m² -1,1 °C -2,8 °C 16,1 km/h (3 Bft)
18.03.2019 11:24 0,6 °C 88 % 1018,5 hPa 0,0 mm 12,2 km/h (2 Bft) W-SW 245 ° 0 min 0,000 mm 1,9 UV-I 227 W/m² -1,2 °C -3,1 °C 16,1 km/h (3 Bft)
18.03.2019 11:25 0,7 °C 88 % 1018,6 hPa 0,0 mm 12,5 km/h (3 Bft) W-NW 286 ° 0 min 0,000 mm 3,1 UV-I 271 W/m² -1,1 °C -3,1 °C 19,3 km/h (3 Bft)
18.03.2019 11:26 0,6 °C 88 % 1018,6 hPa 0,0 mm 14,0 km/h (3 Bft) W-NW 296 ° 0 min 0,000 mm 2,3 UV-I 271 W/m² -1,2 °C -3,5 °C 17,7 km/h (3 Bft)
18.03.2019 11:27 0,6 °C 88 % 1018,6 hPa 0,0 mm 15,0 km/h (3 Bft) NW 311 ° 0 min 0,000 mm 2,3 UV-I 290 W/m² -1,2 °C -3,7 °C 22,5 km/h (4 Bft)
18.03.2019 11:28 0,6 °C 88 % 1018,6 hPa 0,0 mm 12,1 km/h (2 Bft) W 263 ° 0 min 0,000 mm 2,2 UV-I 243 W/m² -1,2 °C -3,1 °C 20,9 km/h (4 Bft)
18.03.2019 11:29 0,6 °C 88 % 1018,6 hPa 0,0 mm 9,0 km/h (2 Bft) W-SW 252 ° 0 min 0,000 mm 2,5 UV-I 320 W/m² -1,2 °C -2,3 °C 12,9 km/h (3 Bft)
18.03.2019 11:30 0,7 °C 88 % 1018,6 hPa 0,0 mm 7,4 km/h (2 Bft) W-NW 282 ° 0 min 0,000 mm 3,9 UV-I 320 W/m² -1,1 °C -1,7 °C 12,9 km/h (3 Bft)
18.03.2019 11:31 0,7 °C 88 % 1018,6 hPa 0,0 mm 14,5 km/h (3 Bft) W-SW 250 ° 1 min 0,000 mm 3,8 UV-I 731 W/m² -1,1 °C -3,5 °C 24,1 km/h (4 Bft)
18.03.2019 11:32 0,8 °C 88 % 1018,7 hPa 0,0 mm 13,2 km/h (3 Bft) W-SW 243 ° 1 min 0,000 mm 3,2 UV-I 731 W/m² -1,0 °C -3,1 °C 17,7 km/h (3 Bft)
18.03.2019 11:33 0,9 °C 88 % 1018,6 hPa 0,0 mm 17,0 km/h (3 Bft) W 273 ° 1 min 0,000 mm 4,2 UV-I 731 W/m² -0,9 °C -3,7 °C 22,5 km/h (4 Bft)
18.03.2019 11:34 0,9 °C 87 % 1018,6 hPa 0,0 mm 11,3 km/h (2 Bft) W 281 ° 1 min 0,000 mm 4,2 UV-I 714 W/m² -1,0 °C -2,6 °C 16,1 km/h (3 Bft)
18.03.2019 11:35 1,0 °C 87 % 1018,5 hPa 0,0 mm 10,3 km/h (2 Bft) W 266 ° 1 min 0,000 mm 3,9 UV-I 714 W/m² -0,9 °C -2,2 °C 16,1 km/h (3 Bft)
18.03.2019 11:36 1,1 °C 87 % 1018,6 hPa 0,0 mm 7,1 km/h (2 Bft) W-NW 291 ° 1 min 0,000 mm 3,8 UV-I 686 W/m² -0,8 °C -1,2 °C 11,3 km/h (2 Bft)
18.03.2019 11:37 1,1 °C 87 % 1018,6 hPa 0,0 mm 8,1 km/h (2 Bft) W-NW 284 ° 1 min 0,000 mm 4,1 UV-I 675 W/m² -0,8 °C -1,5 °C 12,9 km/h (3 Bft)
18.03.2019 11:38 1,1 °C 87 % 1018,6 hPa 0,0 mm 8,5 km/h (2 Bft) W-NW 294 ° 1 min 0,000 mm 4,1 UV-I 684 W/m² -0,8 °C -1,6 °C 11,3 km/h (2 Bft)
18.03.2019 11:39 1,1 °C 87 % 1018,6 hPa 0,0 mm 4,6 km/h (1 Bft) S-SW 209 ° 1 min 0,000 mm 4,0 UV-I 686 W/m² -0,8 °C -0,2 °C 6,4 km/h (2 Bft)
18.03.2019 11:40 1,1 °C 87 % 1018,6 hPa 0,0 mm 5,3 km/h (1 Bft) W-NW 296 ° 1 min 0,000 mm 4,1 UV-I 671 W/m² -0,8 °C -0,5 °C 11,3 km/h (2 Bft)
18.03.2019 11:41 1,2 °C 87 % 1018,7 hPa 0,0 mm 4,4 km/h (1 Bft) NW 312 ° 1 min 0,000 mm 4,1 UV-I 661 W/m² -0,7 °C 1,2 °C 6,4 km/h (2 Bft)
18.03.2019 11:42 1,2 °C 87 % 1018,7 hPa 0,0 mm 5,4 km/h (1 Bft) W 266 ° 1 min 0,000 mm 4,1 UV-I 657 W/m² -0,7 °C -0,4 °C 9,7 km/h (2 Bft)
18.03.2019 11:43 1,3 °C 87 % 1018,8 hPa 0,0 mm 8,5 km/h (2 Bft) NW 317 ° 1 min 0,000 mm 4,1 UV-I 686 W/m² -0,6 °C -1,4 °C 14,5 km/h (3 Bft)
18.03.2019 11:44 1,3 °C 87 % 1018,7 hPa 0,0 mm 7,1 km/h (2 Bft) W-NW 284 ° 1 min 0,000 mm 4,1 UV-I 668 W/m² -0,6 °C -0,9 °C 12,9 km/h (3 Bft)
18.03.2019 11:45 1,4 °C 87 % 1018,7 hPa 0,0 mm 5,4 km/h (1 Bft) W-SW 246 ° 1 min 0,000 mm 4,2 UV-I 717 W/m² -0,5 °C -0,2 °C 8,0 km/h (2 Bft)
18.03.2019 11:46 1,4 °C 86 % 1018,7 hPa 0,0 mm 9,1 km/h (2 Bft) NW 325 ° 1 min 0,000 mm 3,5 UV-I 717 W/m² -0,7 °C -1,4 °C 16,1 km/h (3 Bft)
18.03.2019 11:47 1,3 °C 86 % 1018,7 hPa 0,0 mm 8,2 km/h (2 Bft) W-NW 291 ° 1 min 0,000 mm 2,2 UV-I 717 W/m² -0,8 °C -1,3 °C 16,1 km/h (3 Bft)
18.03.2019 11:48 1,3 °C 86 % 1018,8 hPa 0,0 mm 11,2 km/h (2 Bft) W 273 ° 1 min 0,000 mm 4,2 UV-I 700 W/m² -0,8 °C -2,0 °C 17,7 km/h (3 Bft)
18.03.2019 11:49 1,4 °C 86 % 1018,8 hPa 0,0 mm 12,3 km/h (3 Bft) W 265 ° 1 min 0,000 mm 4,3 UV-I 731 W/m² -0,7 °C -2,2 °C 17,7 km/h (3 Bft)
18.03.2019 11:50 1,4 °C 85 % 1018,8 hPa 0,0 mm 13,9 km/h (3 Bft) W-NW 284 ° 1 min 0,000 mm 4,4 UV-I 761 W/m² -0,8 °C -2,5 °C 19,3 km/h (3 Bft)
18.03.2019 11:51 1,5 °C 85 % 1018,8 hPa 0,0 mm 13,6 km/h (3 Bft) NW 306 ° 1 min 0,000 mm 4,5 UV-I 817 W/m² -0,7 °C -2,3 °C 17,7 km/h (3 Bft)
18.03.2019 11:52 1,6 °C 85 % 1018,8 hPa 0,0 mm 9,4 km/h (2 Bft) W 265 ° 1 min 0,000 mm 4,6 UV-I 817 W/m² -0,6 °C -1,3 °C 12,9 km/h (3 Bft)
18.03.2019 11:53 1,7 °C 85 % 1018,8 hPa 0,0 mm 13,9 km/h (3 Bft) W 279 ° 1 min 0,000 mm 3,1 UV-I 817 W/m² -0,5 °C -2,1 °C 16,1 km/h (3 Bft)
18.03.2019 11:54 1,7 °C 85 % 1018,8 hPa 0,0 mm 16,4 km/h (3 Bft) W-NW 284 ° 1 min 0,000 mm 4,5 UV-I 784 W/m² -0,5 °C -2,6 °C 20,9 km/h (4 Bft)
18.03.2019 11:55 1,7 °C 84 % 1018,8 hPa 0,0 mm 11,3 km/h (2 Bft) W 267 ° 1 min 0,000 mm 4,4 UV-I 763 W/m² -0,7 °C -1,6 °C 16,1 km/h (3 Bft)
18.03.2019 11:56 1,8 °C 83 % 1018,8 hPa 0,0 mm 13,3 km/h (3 Bft) W 273 ° 1 min 0,000 mm 4,2 UV-I 721 W/m² -0,8 °C -1,9 °C 19,3 km/h (3 Bft)
18.03.2019 11:57 1,8 °C 83 % 1018,8 hPa 0,0 mm 13,7 km/h (3 Bft) W-SW 242 ° 1 min 0,000 mm 4,2 UV-I 701 W/m² -0,8 °C -2,0 °C 20,9 km/h (4 Bft)
18.03.2019 11:58 1,9 °C 83 % 1018,8 hPa 0,0 mm 13,9 km/h (3 Bft) NW 305 ° 1 min 0,000 mm 4,2 UV-I 703 W/m² -0,7 °C -1,9 °C 19,3 km/h (3 Bft)
18.03.2019 11:59 1,9 °C 83 % 1018,8 hPa 0,0 mm 20,7 km/h (4 Bft) W 270 ° 1 min 0,000 mm 4,1 UV-I 696 W/m² -0,7 °C -2,9 °C 25,7 km/h (4 Bft)
18.03.2019 12:00 1,9 °C 83 % 1018,8 hPa 0,0 mm 14,8 km/h (3 Bft) W-SW 257 ° 1 min 0,000 mm 4,2 UV-I 698 W/m² -0,7 °C -2,0 °C 20,9 km/h (4 Bft)
18.03.2019 12:01 1,9 °C 82 % 1018,8 hPa 0,0 mm 15,3 km/h (3 Bft) W 262 ° 1 min 0,178 mm 4,2 UV-I 701 W/m² -0,8 °C -2,1 °C 20,9 km/h (4 Bft)
18.03.2019 12:02 1,9 °C 83 % 1018,9 hPa 0,0 mm 14,8 km/h (3 Bft) W-SW 256 ° 1 min 0,000 mm 4,2 UV-I 705 W/m² -0,7 °C -2,0 °C 19,3 km/h (3 Bft)
18.03.2019 12:03 1,9 °C 83 % 1018,9 hPa 0,2 mm 13,6 km/h (3 Bft) W 265 ° 1 min 0,000 mm 4,2 UV-I 707 W/m² -0,7 °C -1,8 °C 17,7 km/h (3 Bft)
18.03.2019 12:04 1,9 °C 82 % 1018,8 hPa 0,0 mm 9,7 km/h (2 Bft) NW 311 ° 1 min 0,000 mm 4,2 UV-I 708 W/m² -0,8 °C -1,0 °C 16,1 km/h (3 Bft)
18.03.2019 12:05 1,9 °C 83 % 1018,8 hPa 0,0 mm 13,7 km/h (3 Bft) NW 304 ° 1 min 0,000 mm 4,2 UV-I 712 W/m² -0,7 °C -1,8 °C 22,5 km/h (4 Bft)
18.03.2019 12:06 1,9 °C 83 % 1018,8 hPa 0,0 mm 10,8 km/h (2 Bft) W 259 ° 1 min 0,000 mm 4,2 UV-I 714 W/m² -0,7 °C -1,2 °C 17,7 km/h (3 Bft)
18.03.2019 12:07 1,9 °C 83 % 1018,9 hPa 0,2 mm 11,2 km/h (2 Bft) W 267 ° 1 min 0,000 mm 4,2 UV-I 714 W/m² -0,7 °C -1,3 °C 14,5 km/h (3 Bft)
18.03.2019 12:08 2,1 °C 83 % 1018,9 hPa 0,0 mm 14,7 km/h (3 Bft) W-SW 246 ° 1 min 0,000 mm 4,2 UV-I 714 W/m² -0,5 °C -1,8 °C 20,9 km/h (4 Bft)
18.03.2019 12:09 2,1 °C 84 % 1018,9 hPa 0,2 mm 10,9 km/h (2 Bft) W 259 ° 1 min 0,000 mm 4,2 UV-I 721 W/m² -0,3 °C -1,0 °C 16,1 km/h (3 Bft)
18.03.2019 12:10 2,1 °C 84 % 1018,9 hPa 0,0 mm 14,1 km/h (3 Bft) W-NW 291 ° 1 min 0,000 mm 4,2 UV-I 728 W/m² -0,3 °C -1,7 °C 20,9 km/h (4 Bft)
18.03.2019 12:11 2,1 °C 83 % 1018,9 hPa 0,0 mm 12,3 km/h (3 Bft) W-SW 256 ° 1 min 0,000 mm 4,2 UV-I 728 W/m² -0,5 °C -1,3 °C 16,1 km/h (3 Bft)
18.03.2019 12:12 2,2 °C 83 % 1018,9 hPa 0,0 mm 12,4 km/h (3 Bft) W-NW 288 ° 1 min 0,000 mm 4,2 UV-I 733 W/m² -0,4 °C -1,2 °C 17,7 km/h (3 Bft)
18.03.2019 12:13 2,2 °C 84 % 1018,9 hPa 0,2 mm 16,8 km/h (3 Bft) W 267 ° 1 min 0,000 mm 4,2 UV-I 738 W/m² -0,2 °C -2,0 °C 24,1 km/h (4 Bft)
18.03.2019 12:14 2,2 °C 83 % 1019,0 hPa 0,0 mm 14,6 km/h (3 Bft) W 280 ° 1 min 0,000 mm 4,3 UV-I 744 W/m² -0,4 °C -1,6 °C 19,3 km/h (3 Bft)
18.03.2019 12:15 2,2 °C 83 % 1018,9 hPa 0,0 mm 12,6 km/h (3 Bft) W 264 ° 1 min 0,000 mm 4,3 UV-I 751 W/m² -0,4 °C -1,3 °C 22,5 km/h (4 Bft)
18.03.2019 12:16 2,2 °C 81 % 1019,0 hPa 0,0 mm 15,1 km/h (3 Bft) W-NW 288 ° 1 min 0,000 mm 4,3 UV-I 749 W/m² -0,7 °C -1,7 °C 22,5 km/h (4 Bft)
18.03.2019 12:17 2,2 °C 81 % 1019,0 hPa 0,0 mm 12,6 km/h (3 Bft) W-NW 290 ° 1 min 0,000 mm 4,2 UV-I 749 W/m² -0,7 °C -1,3 °C 17,7 km/h (3 Bft)
18.03.2019 12:18 2,3 °C 81 % 1019,0 hPa 0,2 mm 13,7 km/h (3 Bft) W-SW 238 ° 1 min 0,000 mm 4,3 UV-I 759 W/m² -0,6 °C -1,3 °C 19,3 km/h (3 Bft)
18.03.2019 12:19 2,3 °C 81 % 1019,0 hPa 0,0 mm 14,2 km/h (3 Bft) W-NW 284 ° 1 min 0,000 mm 4,3 UV-I 765 W/m² -0,6 °C -1,4 °C 17,7 km/h (3 Bft)
18.03.2019 12:20 2,3 °C 80 % 1019,0 hPa 0,0 mm 15,6 km/h (3 Bft) W-SW 244 ° 1 min 0,000 mm 4,3 UV-I 773 W/m² -0,8 °C -1,7 °C 22,5 km/h (4 Bft)
18.03.2019 12:21 2,3 °C 79 % 1019,0 hPa 0,0 mm 14,1 km/h (3 Bft) W-SW 250 ° 1 min 0,000 mm 4,4 UV-I 780 W/m² -1,0 °C -1,4 °C 22,5 km/h (4 Bft)
18.03.2019 12:22 2,3 °C 79 % 1019,0 hPa 0,0 mm 9,4 km/h (2 Bft) W-NW 298 ° 1 min 0,000 mm 4,4 UV-I 789 W/m² -1,0 °C -0,4 °C 19,3 km/h (3 Bft)
18.03.2019 12:23 2,3 °C 80 % 1019,0 hPa 0,2 mm 16,3 km/h (3 Bft) W 273 ° 1 min 0,000 mm 4,4 UV-I 800 W/m² -0,8 °C -1,8 °C 20,9 km/h (4 Bft)
18.03.2019 12:24 2,3 °C 80 % 1019,0 hPa 0,0 mm 15,4 km/h (3 Bft) W 265 ° 1 min 0,000 mm 4,5 UV-I 810 W/m² -0,8 °C -1,6 °C 24,1 km/h (4 Bft)
18.03.2019 12:25 2,3 °C 79 % 1019,0 hPa 0,0 mm 13,3 km/h (3 Bft) W-NW 290 ° 1 min 0,000 mm 4,3 UV-I 795 W/m² -1,0 °C -1,3 °C 19,3 km/h (3 Bft)
18.03.2019 12:26 2,3 °C 79 % 1019,0 hPa 0,0 mm 12,0 km/h (2 Bft) W-SW 258 ° 1 min 0,000 mm 4,3 UV-I 805 W/m² -1,0 °C -1,0 °C 17,7 km/h (3 Bft)
18.03.2019 12:27 2,2 °C 79 % 1018,9 hPa 0,0 mm 15,6 km/h (3 Bft) W 272 ° 1 min 0,000 mm 4,4 UV-I 761 W/m² -1,1 °C -1,8 °C 20,9 km/h (4 Bft)
18.03.2019 12:28 2,2 °C 79 % 1018,9 hPa 0,0 mm 9,5 km/h (2 Bft) W 265 ° 1 min 0,000 mm 4,4 UV-I 756 W/m² -1,1 °C -0,6 °C 14,5 km/h (3 Bft)
18.03.2019 12:29 2,3 °C 81 % 1019,0 hPa 0,0 mm 6,4 km/h (2 Bft) W-SW 252 ° 1 min 0,000 mm 4,3 UV-I 840 W/m² -0,6 °C 0,5 °C 11,3 km/h (2 Bft)
18.03.2019 12:30 2,5 °C 82 % 1019,0 hPa 0,2 mm 11,1 km/h (2 Bft) SW 230 ° 1 min 0,000 mm 4,6 UV-I 868 W/m² -0,3 °C -0,6 °C 17,7 km/h (3 Bft)
18.03.2019 12:31 2,6 °C 81 % 1019,0 hPa 0,0 mm 8,1 km/h (2 Bft) W-NW 294 ° 1 min 0,000 mm 4,7 UV-I 893 W/m² -0,3 °C 0,3 °C 12,9 km/h (3 Bft)
18.03.2019 12:32 2,6 °C 81 % 1019,0 hPa 0,0 mm 13,6 km/h (3 Bft) W 277 ° 1 min 0,000 mm 4,7 UV-I 909 W/m² -0,3 °C -1,0 °C 24,1 km/h (4 Bft)
18.03.2019 12:33 2,5 °C 80 % 1018,9 hPa 0,0 mm 14,1 km/h (3 Bft) W 266 ° 1 min 0,000 mm 4,7 UV-I 902 W/m² -0,6 °C -1,2 °C 16,1 km/h (3 Bft)
18.03.2019 12:34 2,5 °C 80 % 1019,0 hPa 0,2 mm 8,9 km/h (2 Bft) W 263 ° 1 min 0,000 mm 4,7 UV-I 932 W/m² -0,6 °C -0,1 °C 14,5 km/h (3 Bft)
18.03.2019 12:35 2,6 °C 81 % 1019,0 hPa 0,0 mm 6,2 km/h (2 Bft) W 264 ° 1 min 0,000 mm 4,7 UV-I 951 W/m² -0,3 °C 0,9 °C 11,3 km/h (2 Bft)
18.03.2019 12:36 2,7 °C 82 % 1019,0 hPa 0,0 mm 12,7 km/h (3 Bft) W-SW 255 ° 1 min 0,000 mm 4,4 UV-I 1002 W/m² -0,1 °C -0,7 °C 19,3 km/h (3 Bft)
18.03.2019 12:37 2,8 °C 81 % 1019,0 hPa 0,0 mm 11,9 km/h (2 Bft) W 262 ° 1 min 0,000 mm 3,4 UV-I 1002 W/m² -0,1 °C -0,4 °C 16,1 km/h (3 Bft)
18.03.2019 12:38 2,7 °C 80 % 1019,0 hPa 0,0 mm 7,2 km/h (2 Bft) W-SW 243 ° 1 min 0,000 mm 2,6 UV-I 1002 W/m² -0,4 °C 0,7 °C 11,3 km/h (2 Bft)
18.03.2019 12:39 2,6 °C 79 % 1019,0 hPa 0,0 mm 15,0 km/h (3 Bft) NW 307 ° 0 min 0,000 mm 2,4 UV-I 329 W/m² -0,7 °C -1,2 °C 20,9 km/h (4 Bft)
18.03.2019 12:40 2,5 °C 79 % 1018,9 hPa 0,2 mm 8,4 km/h (2 Bft) NW 315 ° 0 min 0,000 mm 2,4 UV-I 327 W/m² -0,8 °C 0,1 °C 11,3 km/h (2 Bft)
18.03.2019 12:41 2,4 °C 78 % 1018,9 hPa 0,0 mm 13,4 km/h (3 Bft) W-NW 285 ° 0 min 0,000 mm 2,3 UV-I 320 W/m² -1,0 °C -1,2 °C 19,3 km/h (3 Bft)
18.03.2019 12:42 2,4 °C 79 % 1019,0 hPa 0,0 mm 7,4 km/h (2 Bft) W-SW 258 ° 0 min 0,000 mm 2,3 UV-I 318 W/m² -0,9 °C 0,3 °C 11,3 km/h (2 Bft)
18.03.2019 12:43 2,3 °C 79 % 1019,0 hPa 0,0 mm 10,0 km/h (2 Bft) W-NW 285 ° 0 min 0,000 mm 2,4 UV-I 327 W/m² -1,0 °C -0,6 °C 19,3 km/h (3 Bft)
18.03.2019 12:44 2,3 °C 79 % 1019,0 hPa 0,0 mm 11,0 km/h (2 Bft) W-NW 290 ° 0 min 0,000 mm 2,6 UV-I 367 W/m² -1,0 °C -0,8 °C 14,5 km/h (3 Bft)
18.03.2019 12:45 2,3 °C 80 % 1019,0 hPa 0,0 mm 12,0 km/h (2 Bft) W-NW 300 ° 0 min 0,000 mm 2,6 UV-I 383 W/m² -0,8 °C -1,0 °C 14,5 km/h (3 Bft)
18.03.2019 12:46 2,3 °C 81 % 1019,1 hPa 0,0 mm 12,6 km/h (3 Bft) W-NW 292 ° 0 min 0,000 mm 2,8 UV-I 380 W/m² -0,6 °C -1,1 °C 19,3 km/h (3 Bft)
18.03.2019 12:47 2,3 °C 80 % 1019,1 hPa 0,0 mm 13,1 km/h (3 Bft) NW 311 ° 0 min 0,000 mm 2,7 UV-I 381 W/m² -0,8 °C -1,2 °C 17,7 km/h (3 Bft)
18.03.2019 12:48 2,3 °C 79 % 1019,0 hPa 0,0 mm 12,7 km/h (3 Bft) W-NW 288 ° 0 min 0,000 mm 2,6 UV-I 364 W/m² -1,0 °C -1,2 °C 16,1 km/h (3 Bft)
18.03.2019 12:49 2,3 °C 81 % 1019,0 hPa 0,0 mm 10,4 km/h (2 Bft) W-SW 248 ° 0 min 0,000 mm 2,7 UV-I 371 W/m² -0,6 °C -0,7 °C 16,1 km/h (3 Bft)
18.03.2019 12:50 2,3 °C 80 % 1019,1 hPa 0,2 mm 6,3 km/h (2 Bft) W 267 ° 0 min 0,000 mm 2,8 UV-I 396 W/m² -0,8 °C 0,5 °C 11,3 km/h (2 Bft)
18.03.2019 12:51 2,3 °C 80 % 1019,1 hPa 0,0 mm 7,8 km/h (2 Bft) W-NW 296 ° 0 min 0,000 mm 3,0 UV-I 441 W/m² -0,8 °C 0,0 °C 12,9 km/h (3 Bft)
18.03.2019 12:52 2,3 °C 80 % 1019,0 hPa 0,0 mm 13,8 km/h (3 Bft) W-NW 301 ° 0 min 0,000 mm 2,4 UV-I 313 W/m² -0,8 °C -1,4 °C 17,7 km/h (3 Bft)
18.03.2019 12:53 2,2 °C 80 % 1019,1 hPa 0,0 mm 10,5 km/h (2 Bft) W-NW 301 ° 0 min 0,000 mm 2,3 UV-I 294 W/m² -0,9 °C -0,8 °C 16,1 km/h (3 Bft)
18.03.2019 12:54 2,2 °C 79 % 1019,1 hPa 0,0 mm 8,9 km/h (2 Bft) W 269 ° 0 min 0,000 mm 2,2 UV-I 279 W/m² -1,1 °C -0,4 °C 14,5 km/h (3 Bft)
18.03.2019 12:55 2,2 °C 79 % 1019,0 hPa 0,0 mm 11,6 km/h (2 Bft) W 268 ° 0 min 0,000 mm 2,1 UV-I 271 W/m² -1,1 °C -1,1 °C 17,7 km/h (3 Bft)
18.03.2019 12:56 2,1 °C 80 % 1019,1 hPa 0,0 mm 11,5 km/h (2 Bft) W-NW 284 ° 0 min 0,000 mm 2,1 UV-I 267 W/m² -1,0 °C -1,2 °C 16,1 km/h (3 Bft)
18.03.2019 12:57 2,1 °C 80 % 1019,0 hPa 0,0 mm 11,4 km/h (2 Bft) W 268 ° 0 min 0,000 mm 2,1 UV-I 260 W/m² -1,0 °C -1,1 °C 16,1 km/h (3 Bft)
18.03.2019 12:58 2,2 °C 80 % 1019,0 hPa 0,0 mm 12,3 km/h (3 Bft) SW 234 ° 0 min 0,000 mm 1,9 UV-I 250 W/m² -0,9 °C -1,2 °C 17,7 km/h (3 Bft)
18.03.2019 12:59 2,1 °C 80 % 1019,0 hPa 0,0 mm 11,7 km/h (2 Bft) W 271 ° 0 min 0,000 mm 1,9 UV-I 243 W/m² -1,0 °C -1,2 °C 14,5 km/h (3 Bft)
18.03.2019 13:00 2,1 °C 80 % 1019,1 hPa 0,0 mm 17,5 km/h (3 Bft) W 265 ° 0 min 0,000 mm 1,8 UV-I 236 W/m² -1,0 °C -2,2 °C 24,1 km/h (4 Bft)
18.03.2019 13:01 2,1 °C 79 % 1019,1 hPa 0,0 mm 14,6 km/h (3 Bft) NW 305 ° 0 min 0,228 mm 1,8 UV-I 232 W/m² -1,2 °C -1,8 °C 22,5 km/h (4 Bft)
18.03.2019 13:02 2,1 °C 79 % 1019,1 hPa 0,0 mm 10,6 km/h (2 Bft) W-NW 296 ° 0 min 0,000 mm 1,8 UV-I 232 W/m² -1,2 °C -0,9 °C 20,9 km/h (4 Bft)
18.03.2019 13:03 2,0 °C 79 % 1019,1 hPa 0,0 mm 11,6 km/h (2 Bft) W 267 ° 0 min 0,000 mm 1,7 UV-I 211 W/m² -1,2 °C -1,3 °C 14,5 km/h (3 Bft)
18.03.2019 13:04 1,9 °C 80 % 1019,0 hPa 0,0 mm 16,9 km/h (3 Bft) W-SW 248 ° 0 min 0,000 mm 1,5 UV-I 197 W/m² -1,2 °C -2,4 °C 24,1 km/h (4 Bft)
18.03.2019 13:05 1,9 °C 80 % 1019,0 hPa 0,0 mm 13,6 km/h (3 Bft) W-NW 291 ° 0 min 0,000 mm 1,4 UV-I 186 W/m² -1,2 °C -1,8 °C 19,3 km/h (3 Bft)
18.03.2019 13:06 1,9 °C 79 % 1019,0 hPa 0,0 mm 12,8 km/h (3 Bft) W 265 ° 0 min 0,000 mm 1,4 UV-I 193 W/m² -1,3 °C -1,7 °C 17,7 km/h (3 Bft)
18.03.2019 13:07 1,9 °C 81 % 1019,1 hPa 0,0 mm 12,7 km/h (3 Bft) W 277 ° 0 min 0,000 mm 1,5 UV-I 214 W/m² -1,0 °C -1,6 °C 16,1 km/h (3 Bft)
18.03.2019 13:08 1,9 °C 80 % 1019,0 hPa 0,0 mm 11,9 km/h (2 Bft) W-SW 253 ° 0 min 0,000 mm 1,7 UV-I 244 W/m² -1,2 °C -1,5 °C 14,5 km/h (3 Bft)
18.03.2019 13:09 1,8 °C 80 % 1019,1 hPa 0,0 mm 14,1 km/h (3 Bft) W 279 ° 0 min 0,000 mm 1,9 UV-I 309 W/m² -1,3 °C -2,0 °C 16,1 km/h (3 Bft)
18.03.2019 13:10 1,8 °C 80 % 1019,1 hPa 0,0 mm 11,3 km/h (2 Bft) W 268 ° 0 min 0,000 mm 2,3 UV-I 327 W/m² -1,3 °C -1,5 °C 14,5 km/h (3 Bft)
18.03.2019 13:11 1,9 °C 81 % 1019,0 hPa 0,0 mm 11,3 km/h (2 Bft) W-SW 257 ° 0 min 0,000 mm 2,4 UV-I 338 W/m² -1,0 °C -1,3 °C 16,1 km/h (3 Bft)
18.03.2019 13:12 1,9 °C 82 % 1019,0 hPa 0,0 mm 12,1 km/h (2 Bft) W-SW 258 ° 0 min 0,000 mm 2,3 UV-I 323 W/m² -0,8 °C -1,5 °C 14,5 km/h (3 Bft)
18.03.2019 13:13 2,0 °C 81 % 1019,0 hPa 0,0 mm 12,8 km/h (3 Bft) NW 314 ° 0 min 0,000 mm 2,3 UV-I 299 W/m² -0,9 °C -1,5 °C 17,7 km/h (3 Bft)
18.03.2019 13:14 2,0 °C 81 % 1019,0 hPa 0,0 mm 11,7 km/h (2 Bft) SW 229 ° 0 min 0,000 mm 2,4 UV-I 299 W/m² -0,9 °C -1,3 °C 16,1 km/h (3 Bft)
18.03.2019 13:15 2,0 °C 80 % 1019,0 hPa 0,0 mm 11,3 km/h (2 Bft) W 266 ° 0 min 0,000 mm 2,4 UV-I 267 W/m² -1,1 °C -1,2 °C 16,1 km/h (3 Bft)
18.03.2019 13:16 2,0 °C 80 % 1019,0 hPa 0,0 mm 11,1 km/h (2 Bft) W-SW 239 ° 0 min 0,000 mm 2,3 UV-I 281 W/m² -1,1 °C -1,2 °C 16,1 km/h (3 Bft)
18.03.2019 13:17 2,0 °C 81 % 1018,9 hPa 0,0 mm 13,2 km/h (3 Bft) W-SW 252 ° 0 min 0,000 mm 2,2 UV-I 255 W/m² -0,9 °C -1,6 °C 17,7 km/h (3 Bft)
18.03.2019 13:18 2,0 °C 81 % 1019,0 hPa 0,2 mm 8,1 km/h (2 Bft) SW 233 ° 0 min 0,000 mm 2,2 UV-I 250 W/m² -0,9 °C -0,4 °C 12,9 km/h (3 Bft)
18.03.2019 13:19 2,0 °C 81 % 1019,0 hPa 0,0 mm 10,0 km/h (2 Bft) W-SW 246 ° 0 min 0,000 mm 2,2 UV-I 253 W/m² -0,9 °C -0,9 °C 16,1 km/h (3 Bft)
18.03.2019 13:20 2,0 °C 81 % 1019,0 hPa 0,0 mm 8,5 km/h (2 Bft) W 279 ° 0 min 0,000 mm 2,3 UV-I 327 W/m² -0,9 °C -0,5 °C 12,9 km/h (3 Bft)
18.03.2019 13:21 2,1 °C 81 % 1019,0 hPa 0,0 mm 10,1 km/h (2 Bft) W-SW 257 ° 0 min 0,000 mm 3,5 UV-I 327 W/m² -0,8 °C -0,8 °C 16,1 km/h (3 Bft)
18.03.2019 13:22 2,1 °C 81 % 1019,1 hPa 0,0 mm 14,1 km/h (3 Bft) W 267 ° 0 min 0,000 mm 3,8 UV-I 327 W/m² -0,8 °C -1,7 °C 17,7 km/h (3 Bft)
18.03.2019 13:23 2,1 °C 81 % 1019,0 hPa 0,0 mm 9,5 km/h (2 Bft) W 275 ° 1 min 0,000 mm 4,5 UV-I 930 W/m² -0,8 °C -0,7 °C 12,9 km/h (3 Bft)
18.03.2019 13:24 2,2 °C 80 % 1019,0 hPa 0,0 mm 11,8 km/h (2 Bft) W-NW 287 ° 1 min 0,000 mm 4,4 UV-I 884 W/m² -0,9 °C -1,1 °C 14,5 km/h (3 Bft)
18.03.2019 13:25 2,3 °C 81 % 1018,9 hPa 0,0 mm 12,1 km/h (2 Bft) W 272 ° 1 min 0,000 mm 4,3 UV-I 844 W/m² -0,6 °C -1,0 °C 14,5 km/h (3 Bft)
18.03.2019 13:26 2,4 °C 81 % 1019,0 hPa 0,0 mm 9,5 km/h (2 Bft) W-NW 298 ° 1 min 0,000 mm 4,2 UV-I 766 W/m² -0,5 °C -0,3 °C 11,3 km/h (2 Bft)
18.03.2019 13:27 2,6 °C 82 % 1018,9 hPa 0,0 mm 5,6 km/h (1 Bft) W 264 ° 1 min 0,000 mm 4,0 UV-I 749 W/m² -0,2 °C 1,1 °C 12,9 km/h (3 Bft)
18.03.2019 13:28 2,7 °C 83 % 1018,9 hPa 0,0 mm 11,7 km/h (2 Bft) W-NW 294 ° 1 min 0,000 mm 4,0 UV-I 737 W/m² 0,1 °C -0,5 °C 14,5 km/h (3 Bft)
18.03.2019 13:29 2,8 °C 81 % 1018,9 hPa 0,0 mm 12,0 km/h (2 Bft) W-NW 296 ° 1 min 0,000 mm 4,0 UV-I 726 W/m² -0,1 °C -0,4 °C 16,1 km/h (3 Bft)
18.03.2019 13:30 2,8 °C 80 % 1019,0 hPa 0,0 mm 5,4 km/h (1 Bft) W 279 ° 1 min 0,000 mm 3,9 UV-I 719 W/m² -0,3 °C 1,4 °C 8,0 km/h (2 Bft)
18.03.2019 13:31 2,9 °C 81 % 1018,9 hPa 0,0 mm 5,5 km/h (1 Bft) W-SW 252 ° 1 min 0,000 mm 3,9 UV-I 714 W/m² -0,0 °C 1,5 °C 9,7 km/h (2 Bft)
18.03.2019 13:32 3,1 °C 81 % 1018,9 hPa 0,0 mm 9,4 km/h (2 Bft) W-NW 286 ° 1 min 0,000 mm 3,9 UV-I 708 W/m² 0,2 °C 0,5 °C 14,5 km/h (3 Bft)
18.03.2019 13:33 3,2 °C 82 % 1018,9 hPa 0,0 mm 8,6 km/h (2 Bft) W-SW 257 ° 1 min 0,000 mm 3,9 UV-I 726 W/m² 0,4 °C 0,9 °C 11,3 km/h (2 Bft)
18.03.2019 13:34 3,2 °C 80 % 1018,9 hPa 0,0 mm 9,1 km/h (2 Bft) W 267 ° 1 min 0,000 mm 3,9 UV-I 673 W/m² 0,1 °C 0,7 °C 14,5 km/h (3 Bft)
18.03.2019 13:35 3,2 °C 79 % 1018,9 hPa 0,0 mm 11,5 km/h (2 Bft) W 267 ° 1 min 0,000 mm 3,9 UV-I 696 W/m² -0,1 °C 0,2 °C 16,1 km/h (3 Bft)
18.03.2019 13:36 3,2 °C 79 % 1018,9 hPa 0,0 mm 9,1 km/h (2 Bft) W-NW 298 ° 1 min 0,000 mm 3,9 UV-I 693 W/m² -0,1 °C 0,7 °C 14,5 km/h (3 Bft)
18.03.2019 13:37 3,1 °C 79 % 1018,9 hPa 0,0 mm 7,4 km/h (2 Bft) W 273 ° 1 min 0,000 mm 3,9 UV-I 694 W/m² -0,2 °C 1,1 °C 12,9 km/h (3 Bft)
18.03.2019 13:38 3,2 °C 80 % 1018,9 hPa 0,0 mm 2,8 km/h (1 Bft) W-NW 294 ° 1 min 0,000 mm 3,9 UV-I 700 W/m² 0,1 °C 3,2 °C 4,8 km/h (1 Bft)
18.03.2019 13:39 3,3 °C 80 % 1018,8 hPa 0,0 mm 4,2 km/h (1 Bft) W 271 ° 1 min 0,000 mm 3,9 UV-I 707 W/m² 0,2 °C 3,3 °C 11,3 km/h (2 Bft)
18.03.2019 13:40 3,3 °C 79 % 1018,8 hPa 0,2 mm 8,9 km/h (2 Bft) W 262 ° 1 min 0,000 mm 4,0 UV-I 728 W/m² 0,0 °C 0,9 °C 14,5 km/h (3 Bft)
18.03.2019 13:41 3,2 °C 78 % 1018,8 hPa 0,0 mm 5,0 km/h (1 Bft) NW 313 ° 1 min 0,000 mm 4,1 UV-I 773 W/m² -0,3 °C 2,0 °C 9,7 km/h (2 Bft)
18.03.2019 13:42 3,3 °C 78 % 1018,8 hPa 0,0 mm 3,5 km/h (1 Bft) W-NW 297 ° 1 min 0,000 mm 4,1 UV-I 786 W/m² -0,2 °C 3,3 °C 4,8 km/h (1 Bft)
18.03.2019 13:43 3,4 °C 80 % 1018,8 hPa 0,0 mm 7,3 km/h (2 Bft) W 267 ° 1 min 0,000 mm 4,1 UV-I 773 W/m² 0,3 °C 1,5 °C 11,3 km/h (2 Bft)
18.03.2019 13:44 3,6 °C 79 % 1018,8 hPa 0,0 mm 4,9 km/h (1 Bft) W-SW 240 ° 1 min 0,000 mm 4,1 UV-I 791 W/m² 0,3 °C 2,5 °C 8,0 km/h (2 Bft)
18.03.2019 13:45 3,6 °C 78 % 1018,8 hPa 0,0 mm 6,5 km/h (2 Bft) W 263 ° 1 min 0,000 mm 3,2 UV-I 791 W/m² 0,1 °C 1,9 °C 9,7 km/h (2 Bft)
18.03.2019 13:46 3,5 °C 78 % 1018,8 hPa 0,0 mm 7,8 km/h (2 Bft) S 182 ° 1 min 0,000 mm 2,2 UV-I 791 W/m² 0,0 °C 1,4 °C 11,3 km/h (2 Bft)
18.03.2019 13:47 3,3 °C 77 % 1018,8 hPa 0,0 mm 6,2 km/h (2 Bft) S-SW 212 ° 0 min 0,000 mm 2,2 UV-I 225 W/m² -0,3 °C 1,7 °C 9,7 km/h (2 Bft)
18.03.2019 13:48 3,3 °C 78 % 1018,8 hPa 0,0 mm 5,7 km/h (1 Bft) W 275 ° 0 min 0,000 mm 3,5 UV-I 225 W/m² -0,2 °C 1,9 °C 9,7 km/h (2 Bft)
18.03.2019 13:49 3,3 °C 79 % 1018,8 hPa 0,0 mm 6,8 km/h (2 Bft) W 267 ° 0 min 0,000 mm 3,0 UV-I 225 W/m² 0,0 °C 1,5 °C 9,7 km/h (2 Bft)
18.03.2019 13:50 3,4 °C 79 % 1018,8 hPa 0,0 mm 10,6 km/h (2 Bft) W 269 ° 1 min 0,000 mm 4,0 UV-I 671 W/m² 0,1 °C 0,6 °C 14,5 km/h (3 Bft)
18.03.2019 13:51 3,6 °C 79 % 1018,8 hPa 0,0 mm 8,2 km/h (2 Bft) W-NW 296 ° 1 min 0,000 mm 3,0 UV-I 671 W/m² 0,3 °C 1,4 °C 12,9 km/h (3 Bft)
18.03.2019 13:52 3,7 °C 78 % 1018,8 hPa 0,0 mm 6,4 km/h (2 Bft) W-SW 255 ° 1 min 0,000 mm 3,3 UV-I 671 W/m² 0,2 °C 2,1 °C 11,3 km/h (2 Bft)
18.03.2019 13:53 3,7 °C 78 % 1018,8 hPa 0,0 mm 12,7 km/h (3 Bft) W-SW 256 ° 1 min 0,000 mm 2,4 UV-I 671 W/m² 0,2 °C 0,5 °C 19,3 km/h (3 Bft)
18.03.2019 13:54 3,7 °C 75 % 1018,7 hPa 0,0 mm 11,8 km/h (2 Bft) W 269 ° 1 min 0,000 mm 3,4 UV-I 671 W/m² -0,3 °C 0,7 °C 19,3 km/h (3 Bft)
18.03.2019 13:55 3,6 °C 75 % 1018,8 hPa 0,0 mm 10,6 km/h (2 Bft) W 263 ° 0 min 0,000 mm 2,3 UV-I 283 W/m² -0,4 °C 0,9 °C 14,5 km/h (3 Bft)
18.03.2019 13:56 3,6 °C 77 % 1018,8 hPa 0,0 mm 15,5 km/h (3 Bft) W-SW 242 ° 0 min 0,000 mm 2,5 UV-I 287 W/m² -0,0 °C -0,1 °C 19,3 km/h (3 Bft)
18.03.2019 13:57 3,5 °C 77 % 1018,9 hPa 0,0 mm 12,5 km/h (3 Bft) W 271 ° 0 min 0,000 mm 3,1 UV-I 346 W/m² -0,1 °C 0,3 °C 20,9 km/h (4 Bft)
18.03.2019 13:58 3,4 °C 75 % 1018,8 hPa 0,0 mm 15,0 km/h (3 Bft) N-NW 343 ° 0 min 0,000 mm 3,1 UV-I 346 W/m² -0,6 °C -0,2 °C 19,3 km/h (3 Bft)
18.03.2019 13:59 3,4 °C 74 % 1018,7 hPa 0,0 mm 15,2 km/h (3 Bft) W 277 ° 0 min 0,000 mm 2,4 UV-I 265 W/m² -0,8 °C -0,3 °C 22,5 km/h (4 Bft)
18.03.2019 14:00 3,4 °C 73 % 1018,8 hPa 0,0 mm 17,2 km/h (3 Bft) W-NW 289 ° 0 min 0,000 mm 2,2 UV-I 258 W/m² -1,0 °C -0,6 °C 20,9 km/h (4 Bft)
18.03.2019 14:01 3,3 °C 72 % 1018,8 hPa 0,0 mm 16,0 km/h (3 Bft) W 273 ° 0 min 0,204 mm 2,2 UV-I 285 W/m² -1,3 °C -0,5 °C 22,5 km/h (4 Bft)
18.03.2019 14:02 3,3 °C 71 % 1018,9 hPa 0,0 mm 17,5 km/h (3 Bft) W-NW 300 ° 0 min 0,000 mm 2,5 UV-I 253 W/m² -1,4 °C -0,7 °C 24,1 km/h (4 Bft)
18.03.2019 14:03 3,2 °C 71 % 1018,9 hPa 0,0 mm 16,8 km/h (3 Bft) W-NW 293 ° 0 min 0,000 mm 2,2 UV-I 251 W/m² -1,5 °C -0,8 °C 25,7 km/h (4 Bft)
18.03.2019 14:04 3,1 °C 72 % 1018,9 hPa 0,0 mm 11,3 km/h (2 Bft) W-NW 284 ° 0 min 0,000 mm 2,2 UV-I 236 W/m² -1,4 °C 0,1 °C 16,1 km/h (3 Bft)
18.03.2019 14:05 3,1 °C 73 % 1018,9 hPa 0,0 mm 11,8 km/h (2 Bft) W 261 ° 0 min 0,000 mm 2,3 UV-I 253 W/m² -1,3 °C -0,0 °C 16,1 km/h (3 Bft)
18.03.2019 14:06 3,0 °C 73 % 1018,9 hPa 0,0 mm 13,7 km/h (3 Bft) W 268 ° 0 min 0,000 mm 3,7 UV-I 253 W/m² -1,4 °C -0,5 °C 19,3 km/h (3 Bft)
18.03.2019 14:07 3,2 °C 73 % 1018,9 hPa 0,0 mm 8,6 km/h (2 Bft) W-NW 292 ° 1 min 0,000 mm 3,7 UV-I 717 W/m² -1,2 °C 0,9 °C 14,5 km/h (3 Bft)
18.03.2019 14:08 3,3 °C 75 % 1018,9 hPa 0,0 mm 7,6 km/h (2 Bft) W 267 ° 1 min 0,000 mm 3,6 UV-I 694 W/m² -0,7 °C 1,3 °C 17,7 km/h (3 Bft)
18.03.2019 14:09 3,4 °C 75 % 1018,8 hPa 0,0 mm 12,7 km/h (3 Bft) W 261 ° 1 min 0,000 mm 3,0 UV-I 694 W/m² -0,6 °C 0,2 °C 17,7 km/h (3 Bft)
18.03.2019 14:10 3,6 °C 74 % 1018,9 hPa 0,0 mm 10,3 km/h (2 Bft) W 269 ° 1 min 0,000 mm 3,4 UV-I 694 W/m² -0,6 °C 0,9 °C 16,1 km/h (3 Bft)
18.03.2019 14:11 3,6 °C 72 % 1018,9 hPa 0,0 mm 15,0 km/h (3 Bft) W-NW 288 ° 1 min 0,000 mm 2,6 UV-I 694 W/m² -1,0 °C 0,0 °C 17,7 km/h (3 Bft)
18.03.2019 14:12 3,6 °C 72 % 1018,8 hPa 0,0 mm 12,9 km/h (3 Bft) N-NW 335 ° 1 min 0,000 mm 3,6 UV-I 694 W/m² -1,0 °C 0,4 °C 22,5 km/h (4 Bft)
18.03.2019 14:13 3,6 °C 72 % 1018,9 hPa 0,0 mm 10,1 km/h (2 Bft) NW 309 ° 1 min 0,000 mm 3,4 UV-I 633 W/m² -1,0 °C 1,0 °C 16,1 km/h (3 Bft)
18.03.2019 14:14 3,7 °C 73 % 1018,8 hPa 0,0 mm 8,8 km/h (2 Bft) N-NW 333 ° 1 min 0,000 mm 3,4 UV-I 640 W/m² -0,7 °C 1,4 °C 17,7 km/h (3 Bft)
18.03.2019 14:15 3,8 °C 75 % 1018,9 hPa 0,0 mm 14,1 km/h (3 Bft) W 263 ° 1 min 0,000 mm 3,4 UV-I 663 W/m² -0,2 °C 0,4 °C 20,9 km/h (4 Bft)
18.03.2019 14:16 3,8 °C 72 % 1018,9 hPa 0,0 mm 7,8 km/h (2 Bft) W-NW 286 ° 1 min 0,000 mm 3,4 UV-I 650 W/m² -0,8 °C 1,8 °C 11,3 km/h (2 Bft)
18.03.2019 14:17 3,8 °C 72 % 1018,9 hPa 0,0 mm 11,0 km/h (2 Bft) W-NW 290 ° 1 min 0,000 mm 3,4 UV-I 649 W/m² -0,8 °C 1,0 °C 20,9 km/h (4 Bft)
18.03.2019 14:18 3,7 °C 72 % 1018,9 hPa 0,0 mm 12,8 km/h (3 Bft) W 277 ° 1 min 0,000 mm 3,4 UV-I 693 W/m² -0,9 °C 0,5 °C 19,3 km/h (3 Bft)
18.03.2019 14:19 3,7 °C 71 % 1019,0 hPa 0,0 mm 13,1 km/h (3 Bft) W-NW 298 ° 1 min 0,000 mm 3,6 UV-I 724 W/m² -1,1 °C 0,5 °C 16,1 km/h (3 Bft)
18.03.2019 14:20 3,7 °C 72 % 1018,9 hPa 0,0 mm 12,5 km/h (3 Bft) W-NW 301 ° 1 min 0,000 mm 3,5 UV-I 722 W/m² -0,9 °C 0,6 °C 17,7 km/h (3 Bft)
18.03.2019 14:21 3,7 °C 73 % 1018,9 hPa 0,0 mm 8,0 km/h (2 Bft) NW 311 ° 1 min 0,000 mm 3,3 UV-I 686 W/m² -0,7 °C 1,6 °C 14,5 km/h (3 Bft)
18.03.2019 14:22 3,7 °C 70 % 1018,9 hPa 0,0 mm 11,9 km/h (2 Bft) W-NW 284 ° 1 min 0,000 mm 2,8 UV-I 686 W/m² -1,3 °C 0,7 °C 17,7 km/h (3 Bft)
18.03.2019 14:23 3,6 °C 71 % 1019,0 hPa 0,0 mm 13,6 km/h (3 Bft) W 279 ° 0 min 0,000 mm 2,9 UV-I 515 W/m² -1,2 °C 0,3 °C 17,7 km/h (3 Bft)
18.03.2019 14:24 3,6 °C 71 % 1019,0 hPa 0,0 mm 13,7 km/h (3 Bft) W-NW 300 ° 0 min 0,000 mm 3,0 UV-I 494 W/m² -1,2 °C 0,2 °C 19,3 km/h (3 Bft)
18.03.2019 14:25 3,6 °C 72 % 1019,0 hPa 0,0 mm 9,0 km/h (2 Bft) W 267 ° 0 min 0,000 mm 3,1 UV-I 538 W/m² -1,0 °C 1,2 °C 16,1 km/h (3 Bft)
18.03.2019 14:26 3,6 °C 73 % 1019,0 hPa 0,0 mm 8,8 km/h (2 Bft) W 269 ° 1 min 0,000 mm 2,9 UV-I 612 W/m² -0,8 °C 1,3 °C 17,7 km/h (3 Bft)
18.03.2019 14:27 3,7 °C 72 % 1019,0 hPa 0,0 mm 9,7 km/h (2 Bft) W 269 ° 1 min 0,000 mm 2,5 UV-I 612 W/m² -0,9 °C 1,2 °C 14,5 km/h (3 Bft)
18.03.2019 14:28 3,6 °C 72 % 1018,9 hPa 0,0 mm 9,8 km/h (2 Bft) W 274 ° 1 min 0,000 mm 2,0 UV-I 612 W/m² -1,0 °C 1,0 °C 14,5 km/h (3 Bft)
18.03.2019 14:29 3,6 °C 72 % 1018,9 hPa 0,0 mm 14,1 km/h (3 Bft) W-NW 285 ° 0 min 0,000 mm 1,7 UV-I 221 W/m² -1,0 °C 0,2 °C 19,3 km/h (3 Bft)
18.03.2019 14:30 3,6 °C 70 % 1019,0 hPa 0,0 mm 11,5 km/h (2 Bft) W-NW 296 ° 0 min 0,000 mm 1,6 UV-I 200 W/m² -1,3 °C 0,7 °C 19,3 km/h (3 Bft)
18.03.2019 14:31 3,4 °C 71 % 1019,1 hPa 0,0 mm 14,6 km/h (3 Bft) W 260 ° 0 min 0,000 mm 1,5 UV-I 207 W/m² -1,3 °C -0,2 °C 19,3 km/h (3 Bft)
18.03.2019 14:32 3,4 °C 71 % 1019,1 hPa 0,0 mm 12,5 km/h (3 Bft) W-SW 242 ° 0 min 0,000 mm 1,3 UV-I 209 W/m² -1,3 °C 0,2 °C 20,9 km/h (4 Bft)
18.03.2019 14:33 3,3 °C 71 % 1019,0 hPa 0,0 mm 4,0 km/h (1 Bft) W-NW 293 ° 0 min 0,000 mm 1,4 UV-I 229 W/m² -1,4 °C 3,3 °C 9,7 km/h (2 Bft)
18.03.2019 14:34 3,2 °C 73 % 1019,1 hPa 0,0 mm 9,8 km/h (2 Bft) W 281 ° 0 min 0,000 mm 2,1 UV-I 229 W/m² -1,2 °C 0,6 °C 17,7 km/h (3 Bft)
18.03.2019 14:35 3,2 °C 73 % 1019,1 hPa 0,0 mm 11,5 km/h (2 Bft) NW 326 ° 0 min 0,000 mm 1,7 UV-I 229 W/m² -1,2 °C 0,2 °C 17,7 km/h (3 Bft)
18.03.2019 14:36 3,2 °C 74 % 1019,1 hPa 0,0 mm 12,5 km/h (3 Bft) W-NW 295 ° 0 min 0,000 mm 1,8 UV-I 290 W/m² -1,0 °C -0,0 °C 19,3 km/h (3 Bft)
18.03.2019 14:37 3,2 °C 74 % 1019,1 hPa 0,0 mm 15,1 km/h (3 Bft) W-NW 290 ° 0 min 0,000 mm 1,9 UV-I 290 W/m² -1,0 °C -0,5 °C 27,4 km/h (4 Bft)
18.03.2019 14:38 3,2 °C 73 % 1019,2 hPa 0,0 mm 10,2 km/h (2 Bft) W-NW 293 ° 0 min 0,000 mm 1,7 UV-I 260 W/m² -1,2 °C 0,5 °C 19,3 km/h (3 Bft)
18.03.2019 14:39 3,1 °C 74 % 1019,2 hPa 0,0 mm 10,8 km/h (2 Bft) NW 312 ° 0 min 0,000 mm 1,6 UV-I 214 W/m² -1,1 °C 0,2 °C 17,7 km/h (3 Bft)
18.03.2019 14:40 3,1 °C 75 % 1019,2 hPa 0,0 mm 11,1 km/h (2 Bft) NW 311 ° 0 min 0,000 mm 1,4 UV-I 158 W/m² -0,9 °C 0,1 °C 14,5 km/h (3 Bft)
18.03.2019 14:41 2,9 °C 74 % 1019,2 hPa 0,0 mm 11,7 km/h (2 Bft) W-NW 290 ° 0 min 0,000 mm 1,3 UV-I 128 W/m² -1,3 °C -0,2 °C 19,3 km/h (3 Bft)
18.03.2019 14:42 2,8 °C 75 % 1019,3 hPa 0,0 mm 13,6 km/h (3 Bft) W-NW 296 ° 0 min 0,000 mm 1,3 UV-I 118 W/m² -1,2 °C -0,7 °C 16,1 km/h (3 Bft)
18.03.2019 14:43 2,7 °C 75 % 1019,3 hPa 0,0 mm 11,1 km/h (2 Bft) W-SW 252 ° 0 min 0,000 mm 1,3 UV-I 113 W/m² -1,3 °C -0,3 °C 17,7 km/h (3 Bft)
18.03.2019 14:44 2,6 °C 77 % 1019,4 hPa 0,0 mm 12,0 km/h (2 Bft) S-SW 194 ° 0 min 0,000 mm 1,2 UV-I 93 W/m² -1,0 °C -0,7 °C 20,9 km/h (4 Bft)
18.03.2019 14:45 2,4 °C 77 % 1019,3 hPa 0,0 mm 12,9 km/h (3 Bft) W-NW 300 ° 0 min 0,000 mm 1,1 UV-I 83 W/m² -1,2 °C -1,1 °C 19,3 km/h (3 Bft)
18.03.2019 14:46 2,2 °C 78 % 1019,4 hPa 0,0 mm 13,0 km/h (3 Bft) NW 314 ° 0 min 0,000 mm 0,9 UV-I 67 W/m² -1,2 °C -1,3 °C 17,7 km/h (3 Bft)
18.03.2019 14:47 1,9 °C 79 % 1019,4 hPa 0,0 mm 9,2 km/h (2 Bft) W 266 ° 0 min 0,000 mm 0,9 UV-I 74 W/m² -1,3 °C -0,8 °C 17,7 km/h (3 Bft)
18.03.2019 14:48 1,7 °C 80 % 1019,4 hPa 0,0 mm 10,2 km/h (2 Bft) W 262 ° 0 min 0,000 mm 1,3 UV-I 105 W/m² -1,4 °C -1,3 °C 16,1 km/h (3 Bft)
18.03.2019 14:49 1,5 °C 81 % 1019,3 hPa 0,0 mm 12,6 km/h (3 Bft) W 265 ° 0 min 0,000 mm 1,4 UV-I 93 W/m² -1,4 °C -2,1 °C 20,9 km/h (4 Bft)
18.03.2019 14:50 1,3 °C 82 % 1019,4 hPa 0,0 mm 14,4 km/h (3 Bft) W 263 ° 0 min 0,000 mm 1,4 UV-I 100 W/m² -1,4 °C -2,7 °C 20,9 km/h (4 Bft)
18.03.2019 14:51 1,2 °C 83 % 1019,4 hPa 0,0 mm 11,3 km/h (2 Bft) W-SW 248 ° 0 min 0,000 mm 1,4 UV-I 142 W/m² -1,4 °C -2,2 °C 16,1 km/h (3 Bft)
18.03.2019 14:52 1,1 °C 84 % 1019,4 hPa 0,0 mm 11,2 km/h (2 Bft) W 267 ° 0 min 0,000 mm 1,7 UV-I 156 W/m² -1,3 °C -2,3 °C 16,1 km/h (3 Bft)
18.03.2019 14:53 1,0 °C 84 % 1019,4 hPa 0,0 mm 6,0 km/h (2 Bft) SW 228 ° 0 min 0,000 mm 1,6 UV-I 163 W/m² -1,4 °C -0,9 °C 11,3 km/h (2 Bft)
18.03.2019 14:54 0,9 °C 85 % 1019,4 hPa 0,0 mm 11,5 km/h (2 Bft) W-SW 255 ° 0 min 0,000 mm 1,7 UV-I 206 W/m² -1,3 °C -2,6 °C 20,9 km/h (4 Bft)
18.03.2019 14:55 1,0 °C 85 % 1019,4 hPa 0,0 mm 11,1 km/h (2 Bft) W-SW 245 ° 0 min 0,000 mm 1,7 UV-I 204 W/m² -1,2 °C -2,4 °C 16,1 km/h (3 Bft)
18.03.2019 14:56 1,0 °C 86 % 1019,4 hPa 0,0 mm 9,7 km/h (2 Bft) W-SW 256 ° 0 min 0,000 mm 1,7 UV-I 207 W/m² -1,1 °C -2,0 °C 14,5 km/h (3 Bft)
18.03.2019 14:57 1,1 °C 86 % 1019,4 hPa 0,0 mm 10,1 km/h (2 Bft) W 268 ° 0 min 0,000 mm 1,6 UV-I 197 W/m² -1,0 °C -2,0 °C 14,5 km/h (3 Bft)
18.03.2019 14:58 1,1 °C 86 % 1019,4 hPa 0,0 mm 15,3 km/h (3 Bft) W 269 ° 0 min 0,000 mm 1,5 UV-I 172 W/m² -1,0 °C -3,1 °C 20,9 km/h (4 Bft)
18.03.2019 14:59 1,2 °C 86 % 1019,4 hPa 0,0 mm 12,7 km/h (3 Bft) W 276 ° 0 min 0,000 mm 1,4 UV-I 146 W/m² -0,9 °C -2,5 °C 17,7 km/h (3 Bft)
18.03.2019 15:00 1,2 °C 86 % 1019,4 hPa 0,0 mm 11,0 km/h (2 Bft) W-NW 283 ° 0 min 0,000 mm 1,3 UV-I 104 W/m² -0,9 °C -2,1 °C 16,1 km/h (3 Bft)
18.03.2019 15:01 1,2 °C 85 % 1019,5 hPa 0,0 mm 10,2 km/h (2 Bft) W 276 ° 0 min 0,152 mm 0,7 UV-I 74 W/m² -1,0 °C -1,9 °C 19,3 km/h (3 Bft)
18.03.2019 15:02 1,2 °C 86 % 1019,5 hPa 0,0 mm 13,9 km/h (3 Bft) W-SW 248 ° 0 min 0,000 mm 0,0 UV-I 54 W/m² -0,9 °C -2,7 °C 22,5 km/h (4 Bft)
18.03.2019 15:03 1,1 °C 85 % 1019,6 hPa 0,0 mm 15,4 km/h (3 Bft) W-SW 244 ° 0 min 0,000 mm 0,0 UV-I 44 W/m² -1,1 °C -3,1 °C 22,5 km/h (4 Bft)
18.03.2019 15:04 1,1 °C 86 % 1019,5 hPa 0,0 mm 19,0 km/h (3 Bft) W 273 ° 0 min 0,000 mm 0,0 UV-I 40 W/m² -1,0 °C -3,7 °C 22,5 km/h (4 Bft)
18.03.2019 15:05 0,9 °C 86 % 1019,5 hPa 0,0 mm 11,9 km/h (2 Bft) S-SW 195 ° 0 min 0,000 mm 0,0 UV-I 40 W/m² -1,2 °C -2,7 °C 17,7 km/h (3 Bft)
18.03.2019 15:06 0,8 °C 86 % 1019,5 hPa 0,0 mm 9,3 km/h (2 Bft) SW 218 ° 0 min 0,000 mm 0,7 UV-I 72 W/m² -1,3 °C -2,2 °C 19,3 km/h (3 Bft)
18.03.2019 15:07 0,7 °C 86 % 1019,6 hPa 0,0 mm 11,5 km/h (2 Bft) SW 220 ° 0 min 0,000 mm 1,0 UV-I 83 W/m² -1,4 °C -2,8 °C 20,9 km/h (4 Bft)
18.03.2019 15:08 0,6 °C 87 % 1019,6 hPa 0,0 mm 6,4 km/h (2 Bft) W 268 ° 0 min 0,000 mm 0,9 UV-I 81 W/m² -1,3 °C -1,5 °C 9,7 km/h (2 Bft)
18.03.2019 15:09 0,4 °C 88 % 1019,6 hPa 0,0 mm 11,5 km/h (2 Bft) W 273 ° 0 min 0,000 mm 1,0 UV-I 86 W/m² -1,3 °C -3,2 °C 16,1 km/h (3 Bft)
18.03.2019 15:10 0,4 °C 88 % 1019,5 hPa 0,0 mm 8,0 km/h (2 Bft) W 259 ° 0 min 0,000 mm 1,2 UV-I 95 W/m² -1,3 °C -2,3 °C 14,5 km/h (3 Bft)
18.03.2019 15:11 0,3 °C 88 % 1019,6 hPa 0,0 mm 6,2 km/h (2 Bft) S-SW 205 ° 0 min 0,000 mm 1,3 UV-I 120 W/m² -1,4 °C -1,8 °C 11,3 km/h (2 Bft)
18.03.2019 15:12 0,3 °C 88 % 1019,5 hPa 0,0 mm 7,0 km/h (2 Bft) W-SW 244 ° 0 min 0,000 mm 1,4 UV-I 200 W/m² -1,4 °C -2,1 °C 11,3 km/h (2 Bft)
18.03.2019 15:13 0,4 °C 88 % 1019,5 hPa 0,0 mm 5,6 km/h (1 Bft) SW 215 ° 0 min 0,000 mm 2,0 UV-I 399 W/m² -1,3 °C -1,4 °C 8,0 km/h (2 Bft)
18.03.2019 15:14 0,4 °C 88 % 1019,4 hPa 0,0 mm 8,8 km/h (2 Bft) S-SW 192 ° 0 min 0,000 mm 2,2 UV-I 452 W/m² -1,3 °C -2,5 °C 11,3 km/h (2 Bft)
18.03.2019 15:15 0,5 °C 89 % 1019,4 hPa 0,0 mm 5,3 km/h (1 Bft) S-SW 194 ° 0 min 0,000 mm 2,2 UV-I 461 W/m² -1,1 °C -1,2 °C 8,0 km/h (2 Bft)
18.03.2019 15:16 0,6 °C 89 % 1019,4 hPa 0,0 mm 5,0 km/h (1 Bft) SW 230 ° 0 min 0,000 mm 1,5 UV-I 461 W/m² -1,0 °C -0,9 °C 8,0 km/h (2 Bft)
18.03.2019 15:17 0,6 °C 88 % 1019,4 hPa 0,0 mm 5,5 km/h (1 Bft) W 263 ° 0 min 0,000 mm 2,2 UV-I 441 W/m² -1,2 °C -1,1 °C 9,7 km/h (2 Bft)
18.03.2019 15:18 0,8 °C 89 % 1019,3 hPa 0,0 mm 3,6 km/h (1 Bft) S-SW 202 ° 0 min 0,000 mm 2,1 UV-I 436 W/m² -0,8 °C 0,8 °C 6,4 km/h (2 Bft)
18.03.2019 15:19 0,9 °C 89 % 1019,4 hPa 0,0 mm 3,8 km/h (1 Bft) S-SW 204 ° 0 min 0,000 mm 2,1 UV-I 469 W/m² -0,7 °C 0,9 °C 6,4 km/h (2 Bft)
18.03.2019 15:20 1,0 °C 88 % 1019,4 hPa 0,0 mm 4,0 km/h (1 Bft) S-SW 205 ° 0 min 0,000 mm 2,1 UV-I 473 W/m² -0,8 °C 1,0 °C 6,4 km/h (2 Bft)
18.03.2019 15:21 1,1 °C 88 % 1019,4 hPa 0,0 mm 3,7 km/h (1 Bft) W-SW 243 ° 0 min 0,000 mm 2,0 UV-I 478 W/m² -0,7 °C 1,1 °C 4,8 km/h (1 Bft)
18.03.2019 15:22 1,2 °C 88 % 1019,4 hPa 0,0 mm 3,7 km/h (1 Bft) S-SW 213 ° 0 min 0,000 mm 2,0 UV-I 478 W/m² -0,6 °C 1,2 °C 6,4 km/h (2 Bft)
18.03.2019 15:23 1,3 °C 88 % 1019,4 hPa 0,0 mm 6,7 km/h (2 Bft) W-SW 243 ° 0 min 0,000 mm 2,0 UV-I 476 W/m² -0,5 °C -0,8 °C 12,9 km/h (3 Bft)
18.03.2019 15:24 1,4 °C 88 % 1019,4 hPa 0,0 mm 5,6 km/h (1 Bft) S-SW 207 ° 0 min 0,000 mm 2,0 UV-I 475 W/m² -0,4 °C -0,3 °C 11,3 km/h (2 Bft)
18.03.2019 15:25 1,5 °C 87 % 1019,4 hPa 0,0 mm 4,7 km/h (1 Bft) S 186 ° 0 min 0,000 mm 2,0 UV-I 475 W/m² -0,4 °C 0,2 °C 8,0 km/h (2 Bft)
18.03.2019 15:26 1,6 °C 87 % 1019,4 hPa 0,0 mm 9,2 km/h (2 Bft) S-SW 192 ° 0 min 0,000 mm 2,0 UV-I 471 W/m² -0,3 °C -1,2 °C 16,1 km/h (3 Bft)
18.03.2019 15:27 1,6 °C 86 % 1019,4 hPa 0,0 mm 4,6 km/h (1 Bft) SW 218 ° 0 min 0,000 mm 2,0 UV-I 471 W/m² -0,5 °C 0,4 °C 9,7 km/h (2 Bft)
18.03.2019 15:28 1,7 °C 86 % 1019,4 hPa 0,0 mm 5,0 km/h (1 Bft) S-SW 196 ° 0 min 0,000 mm 1,9 UV-I 469 W/m² -0,4 °C 0,3 °C 8,0 km/h (2 Bft)
18.03.2019 15:29 1,8 °C 86 % 1019,3 hPa 0,0 mm 5,2 km/h (1 Bft) W-NW 296 ° 0 min 0,000 mm 1,9 UV-I 464 W/m² -0,3 °C 0,4 °C 6,4 km/h (2 Bft)
18.03.2019 15:30 1,8 °C 86 % 1019,4 hPa 0,0 mm 6,8 km/h (2 Bft) W 259 ° 0 min 0,000 mm 1,9 UV-I 462 W/m² -0,3 °C -0,2 °C 11,3 km/h (2 Bft)
18.03.2019 15:31 1,9 °C 86 % 1019,4 hPa 0,0 mm 6,8 km/h (2 Bft) W 274 ° 0 min 0,000 mm 1,9 UV-I 461 W/m² -0,2 °C -0,1 °C 11,3 km/h (2 Bft)
18.03.2019 15:32 1,9 °C 86 % 1019,4 hPa 0,0 mm 8,7 km/h (2 Bft) W-SW 241 ° 0 min 0,000 mm 1,9 UV-I 459 W/m² -0,2 °C -0,7 °C 12,9 km/h (3 Bft)
18.03.2019 15:33 1,9 °C 86 % 1019,4 hPa 0,0 mm 4,8 km/h (1 Bft) W-NW 294 ° 0 min 0,000 mm 1,9 UV-I 455 W/m² -0,2 °C 0,7 °C 6,4 km/h (2 Bft)
18.03.2019 15:34 2,0 °C 86 % 1019,4 hPa 0,0 mm 4,7 km/h (1 Bft) SW 225 ° 0 min 0,000 mm 1,8 UV-I 454 W/m² -0,1 °C 0,8 °C 8,0 km/h (2 Bft)
18.03.2019 15:35 2,0 °C 86 % 1019,5 hPa 0,0 mm 2,7 km/h (1 Bft) SW 215 ° 0 min 0,000 mm 1,8 UV-I 450 W/m² -0,1 °C 2,0 °C 3,2 km/h (1 Bft)
18.03.2019 15:36 2,1 °C 85 % 1019,5 hPa 0,0 mm 3,0 km/h (1 Bft) W 271 ° 0 min 0,000 mm 1,8 UV-I 448 W/m² -0,2 °C 2,1 °C 6,4 km/h (2 Bft)
18.03.2019 15:37 2,2 °C 85 % 1019,5 hPa 0,0 mm 6,2 km/h (2 Bft) W-SW 254 ° 0 min 0,000 mm 1,8 UV-I 446 W/m² -0,1 °C 0,4 °C 9,7 km/h (2 Bft)
18.03.2019 15:38 2,3 °C 85 % 1019,5 hPa 0,0 mm 4,6 km/h (1 Bft) W-SW 244 ° 0 min 0,000 mm 1,8 UV-I 445 W/m² 0,0 °C 1,2 °C 8,0 km/h (2 Bft)
18.03.2019 15:39 2,3 °C 84 % 1019,5 hPa 0,0 mm 8,2 km/h (2 Bft) W 267 ° 0 min 0,000 mm 1,8 UV-I 443 W/m² -0,1 °C -0,1 °C 12,9 km/h (3 Bft)
18.03.2019 15:40 2,4 °C 84 % 1019,6 hPa 0,0 mm 8,6 km/h (2 Bft) SW 236 ° 0 min 0,000 mm 1,8 UV-I 441 W/m² -0,0 °C -0,1 °C 11,3 km/h (2 Bft)
18.03.2019 15:41 2,4 °C 84 % 1019,5 hPa 0,0 mm 10,7 km/h (2 Bft) W-SW 252 ° 0 min 0,000 mm 1,8 UV-I 438 W/m² -0,0 °C -0,6 °C 14,5 km/h (3 Bft)
18.03.2019 15:42 2,4 °C 84 % 1019,5 hPa 0,0 mm 5,5 km/h (1 Bft) W 259 ° 0 min 0,000 mm 1,8 UV-I 434 W/m² -0,0 °C 0,9 °C 6,4 km/h (2 Bft)
18.03.2019 15:43 2,6 °C 84 % 1019,5 hPa 0,0 mm 8,2 km/h (2 Bft) W-SW 258 ° 0 min 0,000 mm 1,8 UV-I 417 W/m² 0,2 °C 0,3 °C 14,5 km/h (3 Bft)
18.03.2019 15:44 2,7 °C 84 % 1019,5 hPa 0,0 mm 6,0 km/h (2 Bft) SW 215 ° 0 min 0,000 mm 1,7 UV-I 390 W/m² 0,3 °C 1,1 °C 9,7 km/h (2 Bft)
18.03.2019 15:45 2,7 °C 83 % 1019,5 hPa 0,0 mm 8,0 km/h (2 Bft) W 279 ° 0 min 0,000 mm 1,7 UV-I 385 W/m² 0,1 °C 0,4 °C 11,3 km/h (2 Bft)
18.03.2019 15:46 2,7 °C 82 % 1019,5 hPa 0,0 mm 8,6 km/h (2 Bft) W 267 ° 0 min 0,000 mm 1,7 UV-I 378 W/m² -0,1 °C 0,3 °C 11,3 km/h (2 Bft)
18.03.2019 15:47 2,8 °C 83 % 1019,6 hPa 0,0 mm 6,3 km/h (2 Bft) W 266 ° 0 min 0,000 mm 1,7 UV-I 429 W/m² 0,2 °C 1,1 °C 11,3 km/h (2 Bft)
18.03.2019 15:48 2,9 °C 83 % 1019,5 hPa 0,0 mm 4,9 km/h (1 Bft) W 260 ° 0 min 0,000 mm 1,7 UV-I 427 W/m² 0,3 °C 1,7 °C 6,4 km/h (2 Bft)
18.03.2019 15:49 2,9 °C 82 % 1019,5 hPa 0,0 mm 8,3 km/h (2 Bft) W-SW 250 ° 0 min 0,000 mm 1,6 UV-I 427 W/m² 0,1 °C 0,6 °C 14,5 km/h (3 Bft)
18.03.2019 15:50 3,0 °C 81 % 1019,5 hPa 0,2 mm 7,2 km/h (2 Bft) SW 234 ° 0 min 0,000 mm 1,4 UV-I 427 W/m² 0,1 °C 1,0 °C 11,3 km/h (2 Bft)
18.03.2019 15:51 3,0 °C 80 % 1019,5 hPa 0,0 mm 4,2 km/h (1 Bft) W-SW 250 ° 0 min 0,000 mm 1,7 UV-I 427 W/m² -0,1 °C 3,0 °C 6,4 km/h (2 Bft)
18.03.2019 15:52 3,1 °C 80 % 1019,5 hPa 0,0 mm 8,3 km/h (2 Bft) W-SW 244 ° 0 min 0,000 mm 1,5 UV-I 346 W/m² -0,0 °C 0,8 °C 11,3 km/h (2 Bft)
18.03.2019 15:53 3,1 °C 80 % 1019,6 hPa 0,0 mm 6,2 km/h (2 Bft) W-SW 257 ° 0 min 0,000 mm 1,6 UV-I 427 W/m² -0,0 °C 1,5 °C 8,0 km/h (2 Bft)
18.03.2019 15:54 3,3 °C 81 % 1019,5 hPa 0,0 mm 4,0 km/h (1 Bft) W 264 ° 0 min 0,000 mm 1,5 UV-I 476 W/m² 0,4 °C 3,3 °C 9,7 km/h (2 Bft)
18.03.2019 15:55 3,3 °C 81 % 1019,5 hPa 0,0 mm 4,2 km/h (1 Bft) N-NW 334 ° 0 min 0,000 mm 1,4 UV-I 489 W/m² 0,4 °C 3,3 °C 6,4 km/h (2 Bft)
18.03.2019 15:56 3,4 °C 80 % 1019,5 hPa 0,0 mm 5,3 km/h (1 Bft) W 274 ° 0 min 0,000 mm 1,3 UV-I 489 W/m² 0,3 °C 2,1 °C 6,4 km/h (2 Bft)
18.03.2019 15:57 3,5 °C 79 % 1019,5 hPa 0,0 mm 4,2 km/h (1 Bft) W-SW 254 ° 0 min 0,000 mm 1,3 UV-I 290 W/m² 0,2 °C 3,5 °C 4,8 km/h (1 Bft)
18.03.2019 15:58 3,4 °C 79 % 1019,4 hPa 0,0 mm 7,0 km/h (2 Bft) W-SW 240 ° 0 min 0,000 mm 1,4 UV-I 301 W/m² 0,1 °C 1,6 °C 12,9 km/h (3 Bft)
18.03.2019 15:59 3,4 °C 77 % 1019,5 hPa 0,0 mm 6,5 km/h (2 Bft) W-SW 243 ° 0 min 0,000 mm 1,4 UV-I 462 W/m² -0,2 °C 1,7 °C 11,3 km/h (2 Bft)
18.03.2019 16:00 3,5 °C 80 % 1019,4 hPa 0,0 mm 5,3 km/h (1 Bft) S-SW 209 ° 0 min 0,000 mm 1,4 UV-I 499 W/m² 0,4 °C 2,3 °C 6,4 km/h (2 Bft)
18.03.2019 16:01 3,5 °C 78 % 1019,4 hPa 0,0 mm 6,9 km/h (2 Bft) SW 227 ° 0 min 0,127 mm 1,4 UV-I 489 W/m² 0,0 °C 1,7 °C 11,3 km/h (2 Bft)
18.03.2019 16:02 3,5 °C 76 % 1019,4 hPa 0,0 mm 7,8 km/h (2 Bft) S-SW 198 ° 0 min 0,000 mm 1,2 UV-I 489 W/m² -0,3 °C 1,4 °C 12,9 km/h (3 Bft)
18.03.2019 16:03 3,4 °C 76 % 1019,3 hPa 0,0 mm 7,0 km/h (2 Bft) SW 221 ° 0 min 0,000 mm 1,1 UV-I 202 W/m² -0,4 °C 1,6 °C 11,3 km/h (2 Bft)
18.03.2019 16:04 3,4 °C 76 % 1019,4 hPa 0,0 mm 6,2 km/h (2 Bft) W-SW 255 ° 0 min 0,000 mm 1,1 UV-I 176 W/m² -0,4 °C 1,8 °C 12,9 km/h (3 Bft)
18.03.2019 16:05 3,3 °C 75 % 1019,4 hPa 0,0 mm 7,4 km/h (2 Bft) S-SW 198 ° 0 min 0,000 mm 1,1 UV-I 171 W/m² -0,7 °C 1,3 °C 14,5 km/h (3 Bft)
18.03.2019 16:06 3,3 °C 76 % 1019,4 hPa 0,0 mm 7,3 km/h (2 Bft) W-SW 250 ° 0 min 0,000 mm 1,1 UV-I 174 W/m² -0,5 °C 1,3 °C 11,3 km/h (2 Bft)
18.03.2019 16:07 3,2 °C 77 % 1019,4 hPa 0,0 mm 10,1 km/h (2 Bft) W-SW 237 ° 0 min 0,000 mm 1,1 UV-I 171 W/m² -0,4 °C 0,5 °C 12,9 km/h (3 Bft)
18.03.2019 16:08 3,2 °C 76 % 1019,4 hPa 0,0 mm 9,5 km/h (2 Bft) W-SW 248 ° 0 min 0,000 mm 1,1 UV-I 165 W/m² -0,6 °C 0,6 °C 12,9 km/h (3 Bft)
18.03.2019 16:09 3,2 °C 77 % 1019,4 hPa 0,0 mm 3,8 km/h (1 Bft) W 263 ° 0 min 0,000 mm 1,0 UV-I 163 W/m² -0,4 °C 3,2 °C 6,4 km/h (2 Bft)
18.03.2019 16:10 3,2 °C 78 % 1019,4 hPa 0,0 mm 7,5 km/h (2 Bft) W 269 ° 0 min 0,000 mm 1,0 UV-I 162 W/m² -0,3 °C 1,2 °C 9,7 km/h (2 Bft)
18.03.2019 16:11 3,2 °C 77 % 1019,4 hPa 0,0 mm 6,5 km/h (2 Bft) W 280 ° 0 min 0,000 mm 1,0 UV-I 162 W/m² -0,4 °C 1,5 °C 9,7 km/h (2 Bft)
18.03.2019 16:12 3,2 °C 78 % 1019,4 hPa 0,0 mm 5,9 km/h (2 Bft) W 275 ° 0 min 0,000 mm 1,0 UV-I 160 W/m² -0,3 °C 1,7 °C 9,7 km/h (2 Bft)
18.03.2019 16:13 3,2 °C 78 % 1019,5 hPa 0,0 mm 6,0 km/h (2 Bft) W-NW 299 ° 0 min 0,000 mm 1,0 UV-I 160 W/m² -0,3 °C 1,7 °C 9,7 km/h (2 Bft)
18.03.2019 16:14 3,2 °C 79 % 1019,4 hPa 0,0 mm 4,6 km/h (1 Bft) W-NW 284 ° 0 min 0,000 mm 0,9 UV-I 155 W/m² -0,1 °C 2,2 °C 6,4 km/h (2 Bft)
18.03.2019 16:15 3,2 °C 78 % 1019,5 hPa 0,0 mm 6,0 km/h (2 Bft) W 261 ° 0 min 0,000 mm 0,9 UV-I 149 W/m² -0,3 °C 1,7 °C 11,3 km/h (2 Bft)
18.03.2019 16:16 3,1 °C 77 % 1019,5 hPa 0,0 mm 4,7 km/h (1 Bft) W 269 ° 0 min 0,000 mm 0,9 UV-I 132 W/m² -0,5 °C 2,1 °C 6,4 km/h (2 Bft)
18.03.2019 16:17 3,1 °C 78 % 1019,5 hPa 0,0 mm 6,8 km/h (2 Bft) W 261 ° 0 min 0,000 mm 0,8 UV-I 123 W/m² -0,4 °C 1,3 °C 11,3 km/h (2 Bft)
18.03.2019 16:18 3,1 °C 78 % 1019,5 hPa 0,0 mm 6,9 km/h (2 Bft) W 260 ° 0 min 0,000 mm 0,8 UV-I 116 W/m² -0,4 °C 1,2 °C 11,3 km/h (2 Bft)
18.03.2019 16:19 3,1 °C 78 % 1019,5 hPa 0,0 mm 4,8 km/h (1 Bft) W 268 ° 0 min 0,000 mm 0,7 UV-I 107 W/m² -0,4 °C 2,0 °C 9,7 km/h (2 Bft)
18.03.2019 16:20 3,1 °C 79 % 1019,6 hPa 0,0 mm 3,8 km/h (1 Bft) W 263 ° 0 min 0,000 mm 0,7 UV-I 102 W/m² -0,2 °C 3,1 °C 6,4 km/h (2 Bft)
18.03.2019 16:21 3,1 °C 78 % 1019,6 hPa 0,0 mm 6,2 km/h (2 Bft) W 263 ° 0 min 0,000 mm 0,6 UV-I 95 W/m² -0,4 °C 1,5 °C 11,3 km/h (2 Bft)
18.03.2019 16:22 3,0 °C 78 % 1019,5 hPa 0,0 mm 11,3 km/h (2 Bft) W 266 ° 0 min 0,000 mm 0,6 UV-I 88 W/m² -0,5 °C -0,0 °C 14,5 km/h (3 Bft)
18.03.2019 16:23 3,0 °C 79 % 1019,5 hPa 0,0 mm 4,8 km/h (1 Bft) W 259 ° 0 min 0,000 mm 0,6 UV-I 90 W/m² -0,3 °C 1,9 °C 9,7 km/h (2 Bft)
18.03.2019 16:24 3,0 °C 79 % 1019,5 hPa 0,0 mm 7,6 km/h (2 Bft) W 265 ° 0 min 0,000 mm 0,6 UV-I 93 W/m² -0,3 °C 0,9 °C 11,3 km/h (2 Bft)
18.03.2019 16:25 2,9 °C 79 % 1019,5 hPa 0,0 mm 4,8 km/h (1 Bft) W-SW 258 ° 0 min 0,000 mm 0,6 UV-I 102 W/m² -0,4 °C 1,8 °C 9,7 km/h (2 Bft)
18.03.2019 16:26 2,9 °C 79 % 1019,5 hPa 0,0 mm 4,4 km/h (1 Bft) W-SW 244 ° 0 min 0,000 mm 0,7 UV-I 113 W/m² -0,4 °C 2,9 °C 6,4 km/h (2 Bft)
18.03.2019 16:27 3,0 °C 79 % 1019,5 hPa 0,0 mm 5,5 km/h (1 Bft) W 269 ° 0 min 0,000 mm 0,7 UV-I 121 W/m² -0,3 °C 1,6 °C 6,4 km/h (2 Bft)
18.03.2019 16:28 3,0 °C 79 % 1019,5 hPa 0,0 mm 5,4 km/h (1 Bft) SW 222 ° 0 min 0,000 mm 0,8 UV-I 116 W/m² -0,3 °C 1,7 °C 8,0 km/h (2 Bft)
18.03.2019 16:29 2,9 °C 78 % 1019,5 hPa 0,0 mm 3,2 km/h (1 Bft) W-SW 252 ° 0 min 0,000 mm 0,8 UV-I 105 W/m² -0,5 °C 2,9 °C 6,4 km/h (2 Bft)
18.03.2019 16:30 2,9 °C 78 % 1019,5 hPa 0,0 mm 4,9 km/h (1 Bft) W-SW 241 ° 0 min 0,000 mm 0,8 UV-I 102 W/m² -0,5 °C 1,7 °C 6,4 km/h (2 Bft)
18.03.2019 16:31 3,0 °C 78 % 1019,5 hPa 0,0 mm 3,9 km/h (1 Bft) W 261 ° 0 min 0,000 mm 0,8 UV-I 104 W/m² -0,5 °C 3,0 °C 6,4 km/h (2 Bft)
18.03.2019 16:32 2,9 °C 78 % 1019,5 hPa 0,0 mm 4,2 km/h (1 Bft) W 261 ° 0 min 0,000 mm 0,8 UV-I 98 W/m² -0,5 °C 2,9 °C 6,4 km/h (2 Bft)
18.03.2019 16:33 2,9 °C 78 % 1019,6 hPa 0,0 mm 3,0 km/h (1 Bft) W-NW 285 ° 0 min 0,000 mm 0,8 UV-I 90 W/m² -0,5 °C 2,9 °C 4,8 km/h (1 Bft)
18.03.2019 16:34 3,0 °C 79 % 1019,5 hPa 0,0 mm 3,2 km/h (1 Bft) W-NW 296 ° 0 min 0,000 mm 0,8 UV-I 70 W/m² -0,3 °C 3,0 °C 4,8 km/h (1 Bft)
18.03.2019 16:35 2,9 °C 80 % 1019,5 hPa 0,0 mm 2,7 km/h (1 Bft) W-NW 288 ° 0 min 0,000 mm 0,7 UV-I 65 W/m² -0,2 °C 2,9 °C 4,8 km/h (1 Bft)
18.03.2019 16:36 2,9 °C 79 % 1019,5 hPa 0,0 mm 3,1 km/h (1 Bft) W-NW 288 ° 0 min 0,000 mm 0,7 UV-I 65 W/m² -0,4 °C 2,9 °C 4,8 km/h (1 Bft)
18.03.2019 16:37 2,9 °C 79 % 1019,5 hPa 0,0 mm 5,2 km/h (1 Bft) W 262 ° 0 min 0,000 mm 0,7 UV-I 67 W/m² -0,4 °C 1,6 °C 6,4 km/h (2 Bft)
18.03.2019 16:38 2,9 °C 79 % 1019,6 hPa 0,0 mm 3,0 km/h (1 Bft) W 261 ° 0 min 0,000 mm 0,7 UV-I 69 W/m² -0,4 °C 2,9 °C 4,8 km/h (1 Bft)
18.03.2019 16:39 2,9 °C 79 % 1019,6 hPa 0,0 mm 1,6 km/h (1 Bft) W 261 ° 0 min 0,000 mm 0,7 UV-I 69 W/m² -0,4 °C 2,9 °C 1,6 km/h (1 Bft)
18.03.2019 16:40 2,8 °C 80 % 1019,7 hPa 0,0 mm 2,1 km/h (1 Bft) W 261 ° 0 min 0,000 mm 0,6 UV-I 69 W/m² -0,3 °C 2,8 °C 3,2 km/h (1 Bft)
18.03.2019 16:41 2,8 °C 80 % 1019,7 hPa 0,0 mm 2,9 km/h (1 Bft) W 261 ° 0 min 0,000 mm 0,5 UV-I 69 W/m² -0,3 °C 2,8 °C 4,8 km/h (1 Bft)
18.03.2019 16:42 2,8 °C 80 % 1019,6 hPa 0,0 mm 4,0 km/h (1 Bft) W 281 ° 0 min 0,000 mm 0,5 UV-I 67 W/m² -0,3 °C 2,8 °C 6,4 km/h (2 Bft)
18.03.2019 16:43 2,9 °C 80 % 1019,7 hPa 0,0 mm 2,7 km/h (1 Bft) W 281 ° 0 min 0,000 mm 0,5 UV-I 62 W/m² -0,2 °C 2,9 °C 4,8 km/h (1 Bft)
18.03.2019 16:44 2,9 °C 79 % 1019,7 hPa 0,0 mm 4,4 km/h (1 Bft) W-NW 300 ° 0 min 0,000 mm 0,0 UV-I 56 W/m² -0,4 °C 2,9 °C 6,4 km/h (2 Bft)
18.03.2019 16:45 2,8 °C 79 % 1019,8 hPa 0,0 mm 2,0 km/h (1 Bft) W-NW 300 ° 0 min 0,000 mm 0,0 UV-I 47 W/m² -0,5 °C 2,8 °C 3,2 km/h (1 Bft)
18.03.2019 16:46 2,9 °C 79 % 1019,8 hPa 0,0 mm 3,5 km/h (1 Bft) W-NW 300 ° 0 min 0,000 mm 0,0 UV-I 44 W/m² -0,4 °C 2,9 °C 4,8 km/h (1 Bft)
18.03.2019 16:47 2,9 °C 79 % 1019,8 hPa 0,0 mm 3,9 km/h (1 Bft) W-NW 302 ° 0 min 0,000 mm 0,0 UV-I 40 W/m² -0,4 °C 2,9 °C 4,8 km/h (1 Bft)
18.03.2019 16:48 2,9 °C 79 % 1019,7 hPa 0,0 mm 3,6 km/h (1 Bft) W 280 ° 0 min 0,000 mm 0,0 UV-I 39 W/m² -0,4 °C 2,9 °C 6,4 km/h (2 Bft)
18.03.2019 16:49 2,9 °C 79 % 1019,8 hPa 0,0 mm 6,5 km/h (2 Bft) W 277 ° 0 min 0,000 mm 0,0 UV-I 35 W/m² -0,4 °C 1,1 °C 9,7 km/h (2 Bft)
18.03.2019 16:50 2,9 °C 78 % 1019,8 hPa 0,0 mm 4,4 km/h (1 Bft) W-NW 298 ° 0 min 0,000 mm 0,0 UV-I 35 W/m² -0,5 °C 2,9 °C 6,4 km/h (2 Bft)
18.03.2019 16:51 2,9 °C 78 % 1019,8 hPa 0,0 mm 3,7 km/h (1 Bft) W-NW 296 ° 0 min 0,000 mm 0,0 UV-I 37 W/m² -0,5 °C 2,9 °C 4,8 km/h (1 Bft)
18.03.2019 16:52 2,9 °C 78 % 1019,9 hPa 0,0 mm 1,8 km/h (1 Bft) W-NW 296 ° 0 min 0,000 mm 0,0 UV-I 37 W/m² -0,5 °C 2,9 °C 3,2 km/h (1 Bft)
18.03.2019 16:53 2,9 °C 78 % 1019,9 hPa 0,0 mm 2,9 km/h (1 Bft) W-NW 290 ° 0 min 0,000 mm 0,0 UV-I 35 W/m² -0,5 °C 2,9 °C 4,8 km/h (1 Bft)
18.03.2019 16:54 2,9 °C 78 % 1019,9 hPa 0,0 mm 5,5 km/h (1 Bft) W-NW 300 ° 0 min 0,000 mm 0,0 UV-I 35 W/m² -0,5 °C 1,5 °C 8,0 km/h (2 Bft)
18.03.2019 16:55 2,9 °C 77 % 1019,9 hPa 0,0 mm 8,9 km/h (2 Bft) NW 314 ° 0 min 0,000 mm 0,0 UV-I 32 W/m² -0,7 °C 0,4 °C 11,3 km/h (2 Bft)
18.03.2019 16:56 2,9 °C 77 % 1019,9 hPa 0,0 mm 3,6 km/h (1 Bft) W-NW 283 ° 0 min 0,000 mm 0,0 UV-I 30 W/m² -0,7 °C 2,9 °C 6,4 km/h (2 Bft)
18.03.2019 16:57 2,9 °C 76 % 1019,9 hPa 0,0 mm 5,3 km/h (1 Bft) W-NW 298 ° 0 min 0,000 mm 0,0 UV-I 26 W/m² -0,9 °C 1,6 °C 8,0 km/h (2 Bft)
18.03.2019 16:58 2,9 °C 76 % 1020,0 hPa 0,0 mm 5,0 km/h (1 Bft) W 269 ° 0 min 0,000 mm 0,0 UV-I 26 W/m² -0,9 °C 1,7 °C 9,7 km/h (2 Bft)
18.03.2019 16:59 2,9 °C 76 % 1020,0 hPa 0,0 mm 4,3 km/h (1 Bft) W-NW 293 ° 0 min 0,000 mm 0,0 UV-I 26 W/m² -0,9 °C 2,9 °C 6,4 km/h (2 Bft)
18.03.2019 17:00 2,9 °C 76 % 1020,0 hPa 0,0 mm 4,7 km/h (1 Bft) W-SW 258 ° 0 min 0,000 mm 0,0 UV-I 26 W/m² -0,9 °C 1,8 °C 8,0 km/h (2 Bft)
18.03.2019 17:01 2,9 °C 75 % 1020,0 hPa 0,0 mm 5,1 km/h (1 Bft) W-NW 290 ° 0 min 0,051 mm 0,0 UV-I 26 W/m² -1,1 °C 1,7 °C 8,0 km/h (2 Bft)
18.03.2019 17:02 2,9 °C 75 % 1020,0 hPa 0,0 mm 5,4 km/h (1 Bft) W-NW 286 ° 0 min 0,000 mm 0,0 UV-I 26 W/m² -1,1 °C 1,5 °C 9,7 km/h (2 Bft)
18.03.2019 17:03 2,9 °C 76 % 1020,0 hPa 0,0 mm 5,5 km/h (1 Bft) W 265 ° 0 min 0,000 mm 0,0 UV-I 33 W/m² -0,9 °C 1,5 °C 6,4 km/h (2 Bft)
18.03.2019 17:04 2,9 °C 76 % 1020,1 hPa 0,0 mm 5,6 km/h (1 Bft) W 278 ° 0 min 0,000 mm 0,0 UV-I 37 W/m² -0,9 °C 1,5 °C 9,7 km/h (2 Bft)
18.03.2019 17:05 2,9 °C 76 % 1020,1 hPa 0,0 mm 4,5 km/h (1 Bft) W-NW 290 ° 0 min 0,000 mm 0,0 UV-I 39 W/m² -0,9 °C 2,9 °C 6,4 km/h (2 Bft)
18.03.2019 17:06 2,9 °C 76 % 1020,1 hPa 0,0 mm 4,8 km/h (1 Bft) W 265 ° 0 min 0,000 mm 0,0 UV-I 40 W/m² -0,9 °C 1,8 °C 6,4 km/h (2 Bft)
18.03.2019 17:07 2,8 °C 76 % 1020,1 hPa 0,0 mm 2,7 km/h (1 Bft) W 263 ° 0 min 0,000 mm 0,0 UV-I 39 W/m² -1,0 °C 2,8 °C 6,4 km/h (2 Bft)
18.03.2019 17:08 2,9 °C 76 % 1020,1 hPa 0,0 mm 4,6 km/h (1 Bft) W 268 ° 0 min 0,000 mm 0,0 UV-I 33 W/m² -0,9 °C 1,9 °C 9,7 km/h (2 Bft)
18.03.2019 17:09 2,9 °C 76 % 1020,1 hPa 0,0 mm 5,9 km/h (2 Bft) NO 34 ° 0 min 0,000 mm 0,0 UV-I 26 W/m² -0,9 °C 1,3 °C 14,5 km/h (3 Bft)
18.03.2019 17:10 2,9 °C 76 % 1020,2 hPa 0,0 mm 6,4 km/h (2 Bft) W-SW 258 ° 0 min 0,000 mm 0,0 UV-I 26 W/m² -0,9 °C 1,2 °C 9,7 km/h (2 Bft)
18.03.2019 17:11 2,9 °C 76 % 1020,3 hPa 0,0 mm 8,6 km/h (2 Bft) NW 311 ° 0 min 0,000 mm 0,0 UV-I 28 W/m² -0,9 °C 0,5 °C 12,9 km/h (3 Bft)
18.03.2019 17:12 2,8 °C 76 % 1020,3 hPa 0,0 mm 4,9 km/h (1 Bft) W-NW 296 ° 0 min 0,000 mm 0,0 UV-I 32 W/m² -1,0 °C 1,6 °C 6,4 km/h (2 Bft)
18.03.2019 17:13 2,8 °C 77 % 1020,3 hPa 0,0 mm 8,5 km/h (2 Bft) N-NW 334 ° 0 min 0,000 mm 0,0 UV-I 37 W/m² -0,8 °C 0,4 °C 16,1 km/h (3 Bft)
18.03.2019 17:14 2,8 °C 77 % 1020,4 hPa 0,0 mm 8,1 km/h (2 Bft) W-NW 298 ° 0 min 0,000 mm 0,0 UV-I 42 W/m² -0,8 °C 0,5 °C 12,9 km/h (3 Bft)
18.03.2019 17:15 2,8 °C 77 % 1020,4 hPa 0,0 mm 6,3 km/h (2 Bft) NW 323 ° 0 min 0,000 mm 0,0 UV-I 40 W/m² -0,8 °C 1,1 °C 9,7 km/h (2 Bft)
18.03.2019 17:16 2,8 °C 77 % 1020,4 hPa 0,0 mm 10,2 km/h (2 Bft) N-NW 327 ° 0 min 0,000 mm 0,0 UV-I 40 W/m² -0,8 °C -0,0 °C 12,9 km/h (3 Bft)
18.03.2019 17:17 2,7 °C 78 % 1020,4 hPa 0,0 mm 10,9 km/h (2 Bft) N-NW 336 ° 0 min 0,000 mm 0,0 UV-I 39 W/m² -0,7 °C -0,3 °C 16,1 km/h (3 Bft)
18.03.2019 17:18 2,6 °C 79 % 1020,5 hPa 0,0 mm 5,0 km/h (1 Bft) NW 315 ° 0 min 0,000 mm 0,0 UV-I 33 W/m² -0,7 °C 1,4 °C 8,0 km/h (2 Bft)
18.03.2019 17:19 2,6 °C 79 % 1020,5 hPa 0,0 mm 5,2 km/h (1 Bft) NW 309 ° 0 min 0,000 mm 0,0 UV-I 26 W/m² -0,7 °C 1,3 °C 9,7 km/h (2 Bft)
18.03.2019 17:20 2,4 °C 80 % 1020,6 hPa 0,0 mm 4,5 km/h (1 Bft) N-NW 329 ° 0 min 0,000 mm 0,0 UV-I 25 W/m² -0,7 °C 2,4 °C 8,0 km/h (2 Bft)
18.03.2019 17:21 2,4 °C 80 % 1020,6 hPa 0,0 mm 5,1 km/h (1 Bft) NW 309 ° 0 min 0,000 mm 0,0 UV-I 28 W/m² -0,7 °C 1,1 °C 9,7 km/h (2 Bft)
18.03.2019 17:22 2,3 °C 80 % 1020,6 hPa 0,0 mm 6,6 km/h (2 Bft) NW 306 ° 0 min 0,000 mm 0,0 UV-I 32 W/m² -0,8 °C 0,4 °C 8,0 km/h (2 Bft)
18.03.2019 17:23 2,3 °C 81 % 1020,5 hPa 0,0 mm 5,9 km/h (2 Bft) NW 309 ° 0 min 0,000 mm 0,0 UV-I 37 W/m² -0,6 °C 0,7 °C 11,3 km/h (2 Bft)
18.03.2019 17:24 2,3 °C 82 % 1020,6 hPa 0,0 mm 4,1 km/h (1 Bft) NW 314 ° 0 min 0,000 mm 0,0 UV-I 40 W/m² -0,4 °C 2,3 °C 6,4 km/h (2 Bft)
18.03.2019 17:25 2,3 °C 82 % 1020,6 hPa 0,0 mm 4,9 km/h (1 Bft) W-NW 295 ° 0 min 0,000 mm 0,0 UV-I 44 W/m² -0,4 °C 1,1 °C 6,4 km/h (2 Bft)
18.03.2019 17:26 2,2 °C 82 % 1020,6 hPa 0,0 mm 7,5 km/h (2 Bft) NW 309 ° 0 min 0,000 mm 0,0 UV-I 47 W/m² -0,5 °C -0,0 °C 12,9 km/h (3 Bft)
18.03.2019 17:27 2,2 °C 82 % 1020,7 hPa 0,0 mm 6,5 km/h (2 Bft) NW 317 ° 0 min 0,000 mm 0,0 UV-I 49 W/m² -0,5 °C 0,3 °C 11,3 km/h (2 Bft)
18.03.2019 17:28 2,2 °C 83 % 1020,7 hPa 0,0 mm 7,4 km/h (2 Bft) NW 309 ° 0 min 0,000 mm 0,0 UV-I 47 W/m² -0,4 °C 0,0 °C 12,9 km/h (3 Bft)
18.03.2019 17:29 2,2 °C 83 % 1020,7 hPa 0,0 mm 5,5 km/h (1 Bft) NW 317 ° 0 min 0,000 mm 0,0 UV-I 42 W/m² -0,4 °C 0,7 °C 8,0 km/h (2 Bft)
18.03.2019 17:30 2,1 °C 83 % 1020,6 hPa 0,0 mm 2,4 km/h (1 Bft) NW 308 ° 0 min 0,000 mm 0,0 UV-I 40 W/m² -0,5 °C 2,1 °C 4,8 km/h (1 Bft)
18.03.2019 17:31 2,1 °C 83 % 1020,7 hPa 0,0 mm 4,4 km/h (1 Bft) W-NW 303 ° 0 min 0,000 mm 0,0 UV-I 37 W/m² -0,5 °C 2,1 °C 6,4 km/h (2 Bft)
18.03.2019 17:32 2,0 °C 83 % 1020,7 hPa 0,0 mm 8,6 km/h (2 Bft) W-NW 283 ° 0 min 0,000 mm 0,0 UV-I 32 W/m² -0,6 °C -0,6 °C 14,5 km/h (3 Bft)
18.03.2019 17:33 2,0 °C 83 % 1020,7 hPa 0,0 mm 9,5 km/h (2 Bft) NW 306 ° 0 min 0,000 mm 0,0 UV-I 30 W/m² -0,6 °C -0,8 °C 14,5 km/h (3 Bft)
18.03.2019 17:34 1,9 °C 83 % 1020,7 hPa 0,0 mm 8,8 km/h (2 Bft) W 273 ° 0 min 0,000 mm 0,0 UV-I 30 W/m² -0,7 °C -0,7 °C 12,9 km/h (3 Bft)
18.03.2019 17:35 1,9 °C 84 % 1020,7 hPa 0,0 mm 5,8 km/h (2 Bft) W-NW 291 ° 0 min 0,000 mm 0,0 UV-I 28 W/m² -0,5 °C 0,2 °C 11,3 km/h (2 Bft)
18.03.2019 17:36 1,9 °C 84 % 1020,7 hPa 0,0 mm 6,7 km/h (2 Bft) W 267 ° 0 min 0,000 mm 0,0 UV-I 26 W/m² -0,5 °C -0,1 °C 11,3 km/h (2 Bft)
18.03.2019 17:37 1,8 °C 84 % 1020,7 hPa 0,0 mm 8,6 km/h (2 Bft) W-NW 298 ° 0 min 0,000 mm 0,0 UV-I 26 W/m² -0,6 °C -0,8 °C 11,3 km/h (2 Bft)
18.03.2019 17:38 1,8 °C 84 % 1020,7 hPa 0,0 mm 7,0 km/h (2 Bft) W-NW 298 ° 0 min 0,000 mm 0,0 UV-I 28 W/m² -0,6 °C -0,3 °C 12,9 km/h (3 Bft)
18.03.2019 17:39 1,8 °C 84 % 1020,7 hPa 0,0 mm 7,6 km/h (2 Bft) W-NW 298 ° 0 min 0,000 mm 0,0 UV-I 30 W/m² -0,6 °C -0,5 °C 11,3 km/h (2 Bft)
18.03.2019 17:40 1,7 °C 84 % 1020,8 hPa 0,0 mm 8,6 km/h (2 Bft) W-NW 289 ° 0 min 0,000 mm 0,0 UV-I 33 W/m² -0,7 °C -0,9 °C 11,3 km/h (2 Bft)
18.03.2019 17:41 1,7 °C 84 % 1020,8 hPa 0,0 mm 5,0 km/h (1 Bft) W 272 ° 0 min 0,000 mm 0,0 UV-I 35 W/m² -0,7 °C 0,3 °C 6,4 km/h (2 Bft)
18.03.2019 17:42 1,7 °C 85 % 1020,7 hPa 0,0 mm 5,9 km/h (2 Bft) W-NW 291 ° 0 min 0,000 mm 0,0 UV-I 35 W/m² -0,5 °C -0,0 °C 8,0 km/h (2 Bft)
18.03.2019 17:43 1,7 °C 85 % 1020,8 hPa 0,0 mm 3,9 km/h (1 Bft) W-NW 284 ° 0 min 0,000 mm 0,0 UV-I 35 W/m² -0,5 °C 1,7 °C 6,4 km/h (2 Bft)
18.03.2019 17:44 1,7 °C 85 % 1020,7 hPa 0,0 mm 3,4 km/h (1 Bft) W-SW 253 ° 0 min 0,000 mm 0,0 UV-I 32 W/m² -0,5 °C 1,7 °C 4,8 km/h (1 Bft)
18.03.2019 17:45 1,7 °C 85 % 1020,7 hPa 0,0 mm 9,3 km/h (2 Bft) W 267 ° 0 min 0,000 mm 0,0 UV-I 30 W/m² -0,5 °C -1,1 °C 12,9 km/h (3 Bft)
18.03.2019 17:46 1,7 °C 85 % 1020,7 hPa 0,0 mm 5,6 km/h (1 Bft) W 272 ° 0 min 0,000 mm 0,0 UV-I 30 W/m² -0,5 °C 0,1 °C 9,7 km/h (2 Bft)
18.03.2019 17:47 1,7 °C 85 % 1020,7 hPa 0,0 mm 5,5 km/h (1 Bft) NW 304 ° 0 min 0,000 mm 0,0 UV-I 30 W/m² -0,5 °C 0,1 °C 9,7 km/h (2 Bft)
18.03.2019 17:48 1,7 °C 85 % 1020,7 hPa 0,0 mm 3,1 km/h (1 Bft) W-NW 298 ° 0 min 0,000 mm 0,0 UV-I 32 W/m² -0,5 °C 1,7 °C 6,4 km/h (2 Bft)
18.03.2019 17:49 1,7 °C 85 % 1020,7 hPa 0,0 mm 3,0 km/h (1 Bft) W-NW 298 ° 0 min 0,000 mm 0,0 UV-I 32 W/m² -0,5 °C 1,7 °C 4,8 km/h (1 Bft)
18.03.2019 17:50 1,7 °C 85 % 1020,7 hPa 0,0 mm 3,4 km/h (1 Bft) SW 236 ° 0 min 0,000 mm 0,0 UV-I 28 W/m² -0,5 °C 1,7 °C 4,8 km/h (1 Bft)
18.03.2019 17:51 1,7 °C 85 % 1020,7 hPa 0,0 mm 6,4 km/h (2 Bft) W 272 ° 0 min 0,000 mm 0,0 UV-I 28 W/m² -0,5 °C -0,2 °C 11,3 km/h (2 Bft)
18.03.2019 17:52 1,7 °C 85 % 1020,7 hPa 0,0 mm 5,0 km/h (1 Bft) W-NW 285 ° 0 min 0,000 mm 0,0 UV-I 28 W/m² -0,5 °C 0,3 °C 6,4 km/h (2 Bft)
18.03.2019 17:53 1,7 °C 85 % 1020,7 hPa 0,0 mm 4,9 km/h (1 Bft) W 270 ° 0 min 0,000 mm 0,0 UV-I 28 W/m² -0,5 °C 0,4 °C 9,7 km/h (2 Bft)
18.03.2019 17:54 1,7 °C 85 % 1020,7 hPa 0,0 mm 7,6 km/h (2 Bft) W 273 ° 0 min 0,000 mm 0,0 UV-I 28 W/m² -0,5 °C -0,6 °C 12,9 km/h (3 Bft)
18.03.2019 17:55 1,7 °C 85 % 1020,7 hPa 0,0 mm 8,7 km/h (2 Bft) W 269 ° 0 min 0,000 mm 0,0 UV-I 26 W/m² -0,5 °C -0,9 °C 14,5 km/h (3 Bft)
18.03.2019 17:56 1,7 °C 85 % 1020,7 hPa 0,0 mm 6,6 km/h (2 Bft) W 265 ° 0 min 0,000 mm 0,0 UV-I 21 W/m² -0,5 °C -0,3 °C 9,7 km/h (2 Bft)
18.03.2019 17:57 1,7 °C 85 % 1020,7 hPa 0,0 mm 5,7 km/h (1 Bft) W-SW 250 ° 0 min 0,000 mm 0,0 UV-I 23 W/m² -0,5 °C 0,0 °C 11,3 km/h (2 Bft)
18.03.2019 17:58 1,7 °C 84 % 1020,7 hPa 0,0 mm 8,5 km/h (2 Bft) W 281 ° 0 min 0,000 mm 0,0 UV-I 23 W/m² -0,7 °C -0,9 °C 11,3 km/h (2 Bft)
18.03.2019 17:59 1,7 °C 84 % 1020,7 hPa 0,0 mm 6,7 km/h (2 Bft) W 259 ° 0 min 0,000 mm 0,0 UV-I 23 W/m² -0,7 °C -0,3 °C 11,3 km/h (2 Bft)
18.03.2019 18:00 1,7 °C 84 % 1020,8 hPa 0,0 mm 3,8 km/h (1 Bft) S-SW 203 ° 0 min 0,000 mm 0,0 UV-I 23 W/m² -0,7 °C 1,7 °C 6,4 km/h (2 Bft)
18.03.2019 18:01 1,7 °C 84 % 1020,8 hPa 0,0 mm 3,1 km/h (1 Bft) S-SW 203 ° 0 min 0,025 mm 0,0 UV-I 23 W/m² -0,7 °C 1,7 °C 4,8 km/h (1 Bft)
18.03.2019 18:02 1,7 °C 84 % 1020,8 hPa 0,0 mm 3,7 km/h (1 Bft) S-SW 202 ° 0 min 0,000 mm 0,0 UV-I 23 W/m² -0,7 °C 1,7 °C 6,4 km/h (2 Bft)
18.03.2019 18:03 1,7 °C 84 % 1020,8 hPa 0,0 mm 3,6 km/h (1 Bft) S-SW 202 ° 0 min 0,000 mm 0,0 UV-I 23 W/m² -0,7 °C 1,7 °C 6,4 km/h (2 Bft)
18.03.2019 18:04 1,7 °C 84 % 1020,8 hPa 0,0 mm 5,9 km/h (2 Bft) S-SW 211 ° 0 min 0,000 mm 0,0 UV-I 21 W/m² -0,7 °C -0,0 °C 8,0 km/h (2 Bft)
18.03.2019 18:05 1,7 °C 84 % 1020,9 hPa 0,0 mm 6,0 km/h (2 Bft) S 189 ° 0 min 0,000 mm 0,0 UV-I 21 W/m² -0,7 °C -0,1 °C 9,7 km/h (2 Bft)
18.03.2019 18:06 1,7 °C 83 % 1020,9 hPa 0,0 mm 7,1 km/h (2 Bft) SW 226 ° 0 min 0,000 mm 0,0 UV-I 19 W/m² -0,9 °C -0,5 °C 11,3 km/h (2 Bft)
18.03.2019 18:07 1,7 °C 84 % 1020,9 hPa 0,0 mm 6,1 km/h (2 Bft) S-SW 198 ° 0 min 0,000 mm 0,0 UV-I 16 W/m² -0,7 °C -0,1 °C 9,7 km/h (2 Bft)
18.03.2019 18:08 1,7 °C 84 % 1020,9 hPa 0,0 mm 3,8 km/h (1 Bft) S-SW 200 ° 0 min 0,000 mm 0,0 UV-I 14 W/m² -0,7 °C 1,7 °C 6,4 km/h (2 Bft)
18.03.2019 18:09 1,7 °C 84 % 1020,9 hPa 0,0 mm 4,6 km/h (1 Bft) SW 218 ° 0 min 0,000 mm 0,0 UV-I 14 W/m² -0,7 °C 0,5 °C 8,0 km/h (2 Bft)
18.03.2019 18:10 1,7 °C 84 % 1020,9 hPa 0,0 mm 2,5 km/h (1 Bft) SW 229 ° 0 min 0,000 mm 0,0 UV-I 12 W/m² -0,7 °C 1,7 °C 3,2 km/h (1 Bft)
18.03.2019 18:11 1,7 °C 84 % 1020,9 hPa 0,0 mm 4,7 km/h (1 Bft) S-SW 207 ° 0 min 0,000 mm 0,0 UV-I 11 W/m² -0,7 °C 0,5 °C 8,0 km/h (2 Bft)
18.03.2019 18:12 1,6 °C 84 % 1020,9 hPa 0,0 mm 3,0 km/h (1 Bft) S-SW 199 ° 0 min 0,000 mm 0,0 UV-I 11 W/m² -0,8 °C 1,6 °C 6,4 km/h (2 Bft)
18.03.2019 18:13 1,6 °C 84 % 1021,0 hPa 0,0 mm 4,8 km/h (1 Bft) S-SW 211 ° 0 min 0,000 mm 0,0 UV-I 11 W/m² -0,8 °C 0,3 °C 6,4 km/h (2 Bft)
18.03.2019 18:14 1,5 °C 84 % 1021,0 hPa 0,0 mm 4,3 km/h (1 Bft) S-SW 204 ° 0 min 0,000 mm 0,0 UV-I 9 W/m² -0,9 °C 1,5 °C 6,4 km/h (2 Bft)
18.03.2019 18:15 1,4 °C 85 % 1021,0 hPa 0,0 mm 0,4 km/h (0 Bft) S-SW 203 ° 0 min 0,000 mm 0,0 UV-I 9 W/m² -0,8 °C 1,4 °C 3,2 km/h (1 Bft)
18.03.2019 18:16 1,4 °C 85 % 1021,0 hPa 0,0 mm 0,1 km/h (0 Bft) S-SW 203 ° 0 min 0,000 mm 0,0 UV-I 9 W/m² -0,8 °C 1,4 °C 1,6 km/h (1 Bft)
18.03.2019 18:17 1,3 °C 85 % 1021,0 hPa 0,0 mm 2,3 km/h (1 Bft) S-SW 207 ° 0 min 0,000 mm 0,0 UV-I 7 W/m² -0,9 °C 1,3 °C 3,2 km/h (1 Bft)
18.03.2019 18:18 1,3 °C 85 % 1021,1 hPa 0,0 mm 4,1 km/h (1 Bft) SW 223 ° 0 min 0,000 mm 0,0 UV-I 7 W/m² -0,9 °C 1,3 °C 8,0 km/h (2 Bft)
18.03.2019 18:19 1,3 °C 85 % 1021,1 hPa 0,0 mm 2,1 km/h (1 Bft) SW 223 ° 0 min 0,000 mm 0,0 UV-I 7 W/m² -0,9 °C 1,3 °C 4,8 km/h (1 Bft)
18.03.2019 18:20 1,3 °C 85 % 1021,1 hPa 0,0 mm 0,0 km/h (0 Bft) SW 223 ° 0 min 0,000 mm 0,0 UV-I 5 W/m² -0,9 °C 1,3 °C 0,0 km/h (0 Bft)
18.03.2019 18:21 1,2 °C 86 % 1021,1 hPa 0,0 mm 0,2 km/h (0 Bft) SW 227 ° 0 min 0,000 mm 0,0 UV-I 5 W/m² -0,9 °C 1,2 °C 1,6 km/h (1 Bft)
18.03.2019 18:22 1,1 °C 86 % 1021,1 hPa 0,0 mm 0,7 km/h (0 Bft) SW 219 ° 0 min 0,000 mm 0,0 UV-I 5 W/m² -1,0 °C 1,1 °C 3,2 km/h (1 Bft)
18.03.2019 18:23 1,1 °C 86 % 1021,1 hPa 0,0 mm 3,1 km/h (1 Bft) S-SW 211 ° 0 min 0,000 mm 0,0 UV-I 5 W/m² -1,0 °C 1,1 °C 6,4 km/h (2 Bft)
18.03.2019 18:24 1,1 °C 86 % 1021,1 hPa 0,0 mm 5,1 km/h (1 Bft) W-SW 254 ° 0 min 0,000 mm 0,0 UV-I 5 W/m² -1,0 °C -0,4 °C 6,4 km/h (2 Bft)
18.03.2019 18:25 1,1 °C 86 % 1021,0 hPa 0,0 mm 1,7 km/h (1 Bft) W-SW 254 ° 0 min 0,000 mm 0,0 UV-I 0 W/m² -1,0 °C 1,1 °C 3,2 km/h (1 Bft)
18.03.2019 18:26 1,0 °C 86 % 1021,1 hPa 0,0 mm 2,3 km/h (1 Bft) SW 220 ° 0 min 0,000 mm 0,0 UV-I 0 W/m² -1,1 °C 1,0 °C 4,8 km/h (1 Bft)
18.03.2019 18:27 1,0 °C 86 % 1021,0 hPa 0,0 mm 3,9 km/h (1 Bft) W-SW 246 ° 0 min 0,000 mm 0,0 UV-I 0 W/m² -1,1 °C 1,0 °C 6,4 km/h (2 Bft)
18.03.2019 18:28 1,0 °C 86 % 1021,1 hPa 0,0 mm 3,1 km/h (1 Bft) W-SW 248 ° 0 min 0,000 mm 0,0 UV-I 0 W/m² -1,1 °C 1,0 °C 6,4 km/h (2 Bft)
18.03.2019 18:29 1,0 °C 86 % 1021,2 hPa 0,0 mm 3,0 km/h (1 Bft) SW 227 ° 0 min 0,000 mm 0,0 UV-I 0 W/m² -1,1 °C 1,0 °C 4,8 km/h (1 Bft)
18.03.2019 18:30 1,0 °C 86 % 1021,1 hPa 0,0 mm 6,6 km/h (2 Bft) S-SW 206 ° 0 min 0,000 mm 0,0 UV-I 0 W/m² -1,1 °C -1,1 °C 9,7 km/h (2 Bft)
18.03.2019 18:31 1,0 °C 86 % 1021,2 hPa 0,0 mm 5,5 km/h (1 Bft) S-SW 213 ° 0 min 0,000 mm 0,0 UV-I 0 W/m² -1,1 °C -0,7 °C 8,0 km/h (2 Bft)
18.03.2019 18:32 1,1 °C 86 % 1021,2 hPa 0,0 mm 6,2 km/h (2 Bft) S-SW 209 ° 0 min 0,000 mm 0,0 UV-I 0 W/m² -1,0 °C -0,8 °C 9,7 km/h (2 Bft)
18.03.2019 18:33 1,1 °C 86 % 1021,2 hPa 0,0 mm 3,5 km/h (1 Bft) S-SW 209 ° 0 min 0,000 mm 0,0 UV-I 0 W/m² -1,0 °C 1,1 °C 8,0 km/h (2 Bft)
18.03.2019 18:34 1,1 °C 85 % 1021,3 hPa 0,0 mm 2,0 km/h (1 Bft) SW 223 ° 0 min 0,000 mm 0,0 UV-I 0 W/m² -1,1 °C 1,1 °C 3,2 km/h (1 Bft)
18.03.2019 18:35 1,1 °C 85 % 1021,3 hPa 0,0 mm 2,7 km/h (1 Bft) SW 215 ° 0 min 0,000 mm 0,0 UV-I 0 W/m² -1,1 °C 1,1 °C 6,4 km/h (2 Bft)
18.03.2019 18:36 1,2 °C 85 % 1021,3 hPa 0,0 mm 1,5 km/h (1 Bft) SW 215 ° 0 min 0,000 mm 0,0 UV-I 0 W/m² -1,0 °C 1,2 °C 3,2 km/h (1 Bft)
18.03.2019 18:37 1,2 °C 85 % 1021,3 hPa 0,0 mm 0,9 km/h (0 Bft) SW 215 ° 0 min 0,000 mm 0,0 UV-I 0 W/m² -1,0 °C 1,2 °C 3,2 km/h (1 Bft)
18.03.2019 18:38 1,2 °C 84 % 1021,3 hPa 0,0 mm 2,3 km/h (1 Bft) SW 215 ° 0 min 0,000 mm 0,0 UV-I 0 W/m² -1,2 °C 1,2 °C 3,2 km/h (1 Bft)
18.03.2019 18:39 1,2 °C 84 % 1021,4 hPa 0,0 mm 4,1 km/h (1 Bft) W 261 ° 0 min 0,000 mm 0,0 UV-I 0 W/m² -1,2 °C 1,2 °C 4,8 km/h (1 Bft)
18.03.2019 18:40 1,2 °C 84 % 1021,4 hPa 0,0 mm 2,8 km/h (1 Bft) W 261 ° 0 min 0,000 mm 0,0 UV-I 0 W/m² -1,2 °C 1,2 °C 4,8 km/h (1 Bft)
18.03.2019 18:41 1,2 °C 84 % 1021,4 hPa 0,0 mm 4,0 km/h (1 Bft) W 260 ° 0 min 0,000 mm 0,0 UV-I 0 W/m² -1,2 °C 1,2 °C 4,8 km/h (1 Bft)
18.03.2019 18:42 1,1 °C 84 % 1021,4 hPa 0,0 mm 3,7 km/h (1 Bft) W 261 ° 0 min 0,000 mm 0,0 UV-I 0 W/m² -1,3 °C 1,1 °C 4,8 km/h (1 Bft)
18.03.2019 18:43 1,1 °C 84 % 1021,4 hPa 0,0 mm 3,5 km/h (1 Bft) W 261 ° 0 min 0,000 mm 0,0 UV-I 0 W/m² -1,3 °C 1,1 °C 4,8 km/h (1 Bft)
18.03.2019 18:44 1,0 °C 84 % 1021,5 hPa 0,0 mm 2,7 km/h (1 Bft) W 261 ° 0 min 0,000 mm 0,0 UV-I 0 W/m² -1,4 °C 1,0 °C 4,8 km/h (1 Bft)
18.03.2019 18:45 1,0 °C 84 % 1021,5 hPa 0,0 mm 2,5 km/h (1 Bft) W 260 ° 0 min 0,000 mm 0,0 UV-I 0 W/m² -1,4 °C 1,0 °C 3,2 km/h (1 Bft)
18.03.2019 18:46 0,9 °C 85 % 1021,4 hPa 0,0 mm 3,2 km/h (1 Bft) W 260 ° 0 min 0,000 mm 0,0 UV-I 0 W/m² -1,3 °C 0,9 °C 4,8 km/h (1 Bft)
18.03.2019 18:47 0,9 °C 85 % 1021,5 hPa 0,0 mm 2,2 km/h (1 Bft) W 260 ° 0 min 0,000 mm 0,0 UV-I 0 W/m² -1,3 °C 0,9 °C 4,8 km/h (1 Bft)
18.03.2019 18:48 0,9 °C 85 % 1021,5 hPa 0,0 mm 0,6 km/h (0 Bft) W 260 ° 0 min 0,000 mm 0,0 UV-I 0 W/m² -1,3 °C 0,9 °C 1,6 km/h (1 Bft)
18.03.2019 18:49 0,9 °C 85 % 1021,5 hPa 0,0 mm 3,2 km/h (1 Bft) W-SW 239 ° 0 min 0,000 mm 0,0 UV-I 0 W/m² -1,3 °C 0,9 °C 6,4 km/h (2 Bft)
18.03.2019 18:50 1,0 °C 84 % 1021,5 hPa 0,0 mm 2,3 km/h (1 Bft) W-SW 239 ° 0 min 0,000 mm 0,0 UV-I 0 W/m² -1,4 °C 1,0 °C 4,8 km/h (1 Bft)
18.03.2019 18:51 1,1 °C 84 % 1021,5 hPa 0,0 mm 3,6 km/h (1 Bft) W-SW 239 ° 0 min 0,000 mm 0,0 UV-I 0 W/m² -1,3 °C 1,1 °C 4,8 km/h (1 Bft)
18.03.2019 18:52 1,1 °C 84 % 1021,6 hPa 0,0 mm 3,4 km/h (1 Bft) W-SW 239 ° 0 min 0,000 mm 0,0 UV-I 0 W/m² -1,3 °C 1,1 °C 4,8 km/h (1 Bft)
18.03.2019 18:53 1,1 °C 84 % 1021,7 hPa 0,0 mm 3,6 km/h (1 Bft) S 178 ° 0 min 0,000 mm 0,0 UV-I 0 W/m² -1,3 °C 1,1 °C 4,8 km/h (1 Bft)
18.03.2019 18:54 1,1 °C 84 % 1021,7 hPa 0,0 mm 3,7 km/h (1 Bft) S 179 ° 0 min 0,000 mm 0,0 UV-I 0 W/m² -1,3 °C 1,1 °C 4,8 km/h (1 Bft)
18.03.2019 18:55 1,0 °C 84 % 1021,6 hPa 0,0 mm 2,2 km/h (1 Bft) S 179 ° 0 min 0,000 mm 0,0 UV-I 0 W/m² -1,4 °C 1,0 °C 3,2 km/h (1 Bft)
18.03.2019 18:56 0,9 °C 84 % 1021,7 hPa 0,0 mm 4,0 km/h (1 Bft) SW 217 ° 0 min 0,000 mm 0,0 UV-I 0 W/m² -1,5 °C 0,9 °C 6,4 km/h (2 Bft)
18.03.2019 18:57 0,9 °C 84 % 1021,7 hPa 0,0 mm 1,9 km/h (1 Bft) SW 217 ° 0 min 0,000 mm 0,0 UV-I 0 W/m² -1,5 °C 0,9 °C 3,2 km/h (1 Bft)
18.03.2019 18:58 0,8 °C 85 % 1021,7 hPa 0,0 mm 3,8 km/h (1 Bft) S 189 ° 0 min 0,000 mm 0,0 UV-I 0 W/m² -1,4 °C 0,8 °C 6,4 km/h (2 Bft)
18.03.2019 18:59 0,8 °C 85 % 1021,8 hPa 0,0 mm 4,0 km/h (1 Bft) S 188 ° 0 min 0,000 mm 0,0 UV-I 0 W/m² -1,4 °C 0,8 °C 6,4 km/h (2 Bft)
18.03.2019 19:00 0,7 °C 85 % 1021,7 hPa 0,0 mm 2,9 km/h (1 Bft) S 188 ° 0 min 0,000 mm 0,0 UV-I 0 W/m² -1,5 °C 0,7 °C 4,8 km/h (1 Bft)
18.03.2019 19:01 0,7 °C 86 % 1021,8 hPa 0,0 mm 3,2 km/h (1 Bft) S 188 ° 0 min 0,000 mm 0,0 UV-I 0 W/m² -1,4 °C 0,7 °C 4,8 km/h (1 Bft)
18.03.2019 19:02 0,6 °C 86 % 1021,8 hPa 0,0 mm 3,3 km/h (1 Bft) S 188 ° 0 min 0,000 mm 0,0 UV-I 0 W/m² -1,5 °C 0,6 °C 4,8 km/h (1 Bft)
18.03.2019 19:03 0,6 °C 86 % 1021,8 hPa 0,0 mm 3,5 km/h (1 Bft) S 188 ° 0 min 0,000 mm 0,0 UV-I 0 W/m² -1,5 °C 0,6 °C 4,8 km/h (1 Bft)
18.03.2019 19:04 0,6 °C 86 % 1021,8 hPa 0,0 mm 3,4 km/h (1 Bft) S 188 ° 0 min 0,000 mm 0,0 UV-I 0 W/m² -1,5 °C 0,6 °C 4,8 km/h (1 Bft)
18.03.2019 19:05 0,5 °C 87 % 1021,8 hPa 0,0 mm 3,4 km/h (1 Bft) S 188 ° 0 min 0,000 mm 0,0 UV-I 0 W/m² -1,4 °C 0,5 °C 4,8 km/h (1 Bft)
18.03.2019 19:06 0,4 °C 87 % 1021,7 hPa 0,0 mm 3,3 km/h (1 Bft) S 188 ° 0 min 0,000 mm 0,0 UV-I 0 W/m² -1,5 °C 0,4 °C 4,8 km/h (1 Bft)
18.03.2019 19:07 0,4 °C 87 % 1021,8 hPa 0,0 mm 3,1 km/h (1 Bft) S 188 ° 0 min 0,000 mm 0,0 UV-I 0 W/m² -1,5 °C 0,4 °C 4,8 km/h (1 Bft)
18.03.2019 19:08 0,3 °C 87 % 1021,8 hPa 0,0 mm 3,4 km/h (1 Bft) S 188 ° 0 min 0,000 mm 0,0 UV-I 0 W/m² -1,6 °C 0,3 °C 4,8 km/h (1 Bft)
18.03.2019 19:09 0,3 °C 88 % 1021,8 hPa 0,0 mm 3,2 km/h (1 Bft) S 188 ° 0 min 0,000 mm 0,0 UV-I 0 W/m² -1,4 °C 0,3 °C 4,8 km/h (1 Bft)
18.03.2019 19:10 0,2 °C 88 % 1021,8 hPa 0,0 mm 3,0 km/h (1 Bft) S 188 ° 0 min 0,000 mm 0,0 UV-I 0 W/m² -1,5 °C 0,2 °C 3,2 km/h (1 Bft)
18.03.2019 19:11 0,2 °C 88 % 1021,8 hPa 0,0 mm 2,2 km/h (1 Bft) S 188 ° 0 min 0,000 mm 0,0 UV-I 0 W/m² -1,5 °C 0,2 °C 3,2 km/h (1 Bft)
18.03.2019 19:12 0,2 °C 88 % 1021,8 hPa 0,0 mm 2,1 km/h (1 Bft) S 188 ° 0 min 0,000 mm 0,0 UV-I 0 W/m² -1,5 °C 0,2 °C 3,2 km/h (1 Bft)
18.03.2019 19:13 0,1 °C 88 % 1021,8 hPa 0,0 mm 1,3 km/h (1 Bft) S 188 ° 0 min 0,000 mm 0,0 UV-I 0 W/m² -1,6 °C 0,1 °C 3,2 km/h (1 Bft)
18.03.2019 19:14 0,1 °C 88 % 1021,8 hPa 0,0 mm 0,0 km/h (0 Bft) S 188 ° 0 min 0,000 mm 0,0 UV-I 0 W/m² -1,6 °C 0,1 °C 0,0 km/h (0 Bft)
18.03.2019 19:15 0,1 °C 88 % 1021,8 hPa 0,0 mm 0,6 km/h (0 Bft) S 188 ° 0 min 0,000 mm 0,0 UV-I 0 W/m² -1,6 °C 0,1 °C 1,6 km/h (1 Bft)
18.03.2019 19:16 0,1 °C 89 % 1021,9 hPa 0,0 mm 0,3 km/h (0 Bft) S 188 ° 0 min 0,000 mm 0,0 UV-I 0 W/m² -1,5 °C 0,1 °C 1,6 km/h (1 Bft)
18.03.2019 19:17 0,1 °C 89 % 1021,9 hPa 0,0 mm 1,5 km/h (1 Bft) S 188 ° 0 min 0,000 mm 0,0 UV-I 0 W/m² -1,5 °C 0,1 °C 3,2 km/h (1 Bft)
18.03.2019 19:18 0,0 °C 88 % 1021,9 hPa 0,0 mm 0,0 km/h (0 Bft) S 188 ° 0 min 0,000 mm 0,0 UV-I 0 W/m² -1,7 °C 0,0 °C 0,0 km/h (0 Bft)
18.03.2019 19:19 0,0 °C 88 % 1022,0 hPa 0,0 mm 0,0 km/h (0 Bft) S 188 ° 0 min 0,000 mm 0,0 UV-I 0 W/m² -1,7 °C 0,0 °C 0,0 km/h (0 Bft)
18.03.2019 19:20 0,0 °C 89 % 1022,0 hPa 0,0 mm 0,0 km/h (0 Bft) S 188 ° 0 min 0,000 mm 0,0 UV-I 0 W/m² -1,6 °C 0,0 °C 0,0 km/h (0 Bft)
18.03.2019 19:21 0,0 °C 89 % 1022,0 hPa 0,0 mm 0,3 km/h (0 Bft) S 188 ° 0 min 0,000 mm 0,0 UV-I 0 W/m² -1,6 °C 0,0 °C 1,6 km/h (1 Bft)
18.03.2019 19:22 0,1 °C 89 % 1021,9 hPa 0,0 mm 1,7 km/h (1 Bft) S 188 ° 0 min 0,000 mm 0,0 UV-I 0 W/m² -1,5 °C 0,1 °C 3,2 km/h (1 Bft)
18.03.2019 19:23 0,0 °C 89 % 1022,0 hPa 0,0 mm 1,9 km/h (1 Bft) S 188 ° 0 min 0,000 mm 0,0 UV-I 0 W/m² -1,6 °C 0,0 °C 3,2 km/h (1 Bft)
18.03.2019 19:24 0,0 °C 88 % 1022,0 hPa 0,0 mm 0,7 km/h (0 Bft) S 188 ° 0 min 0,000 mm 0,0 UV-I 0 W/m² -1,7 °C 0,0 °C 3,2 km/h (1 Bft)
18.03.2019 19:25 0,0 °C 89 % 1022,0 hPa 0,0 mm 2,0 km/h (1 Bft) S 188 ° 0 min 0,000 mm 0,0 UV-I 0 W/m² -1,6 °C 0,0 °C 4,8 km/h (1 Bft)
18.03.2019 19:26 0,0 °C 89 % 1022,0 hPa 0,0 mm 1,8 km/h (1 Bft) S 188 ° 0 min 0,000 mm 0,0 UV-I 0 W/m² -1,6 °C 0,0 °C 3,2 km/h (1 Bft)
18.03.2019 19:27 0,0 °C 89 % 1022,0 hPa 0,0 mm 1,5 km/h (1 Bft) S 188 ° 0 min 0,000 mm 0,0 UV-I 0 W/m² -1,6 °C 0,0 °C 3,2 km/h (1 Bft)
18.03.2019 19:28 0,1 °C 88 % 1022,0 hPa 0,0 mm 0,0 km/h (0 Bft) S 188 ° 0 min 0,000 mm 0,0 UV-I 0 W/m² -1,6 °C 0,1 °C 0,0 km/h (0 Bft)
18.03.2019 19:29 0,0 °C 88 % 1022,1 hPa 0,0 mm 0,0 km/h (0 Bft) S 188 ° 0 min 0,000 mm 0,0 UV-I 0 W/m² -1,7 °C 0,0 °C 0,0 km/h (0 Bft)
18.03.2019 19:30 0,0 °C 88 % 1022,1 hPa 0,0 mm 0,0 km/h (0 Bft) S 188 ° 0 min 0,000 mm 0,0 UV-I 0 W/m² -1,7 °C 0,0 °C 0,0 km/h (0 Bft)
18.03.2019 19:31 0,0 °C 88 % 1022,1 hPa 0,0 mm 0,0 km/h (0 Bft) S 188 ° 0 min 0,000 mm 0,0 UV-I 0 W/m² -1,7 °C 0,0 °C 0,0 km/h (0 Bft)
18.03.2019 19:32 0,1 °C 88 % 1022,1 hPa 0,0 mm 0,0 km/h (0 Bft) S 188 ° 0 min 0,000 mm 0,0 UV-I 0 W/m² -1,6 °C 0,1 °C 0,0 km/h (0 Bft)
18.03.2019 19:33 0,0 °C 88 % 1022,2 hPa 0,0 mm 0,0 km/h (0 Bft) S 188 ° 0 min 0,000 mm 0,0 UV-I 0 W/m² -1,7 °C 0,0 °C 0,0 km/h (0 Bft)
18.03.2019 19:34 0,0 °C 88 % 1022,2 hPa 0,0 mm 0,0 km/h (0 Bft) S 188 ° 0 min 0,000 mm 0,0 UV-I 0 W/m² -1,7 °C 0,0 °C 0,0 km/h (0 Bft)
18.03.2019 19:35 0,0 °C 88 % 1022,1 hPa 0,0 mm 0,0 km/h (0 Bft) S 188 ° 0 min 0,000 mm 0,0 UV-I 0 W/m² -1,7 °C 0,0 °C 0,0 km/h (0 Bft)
18.03.2019 19:36 -0,1 °C 87 % 1022,1 hPa 0,0 mm 0,0 km/h (0 Bft) S 188 ° 0 min 0,000 mm 0,0 UV-I 0 W/m² -2,0 °C -0,1 °C 0,0 km/h (0 Bft)
18.03.2019 19:37 -0,1 °C 87 % 1022,2 hPa 0,0 mm 0,0 km/h (0 Bft) S 188 ° 0 min 0,000 mm 0,0 UV-I 0 W/m² -2,0 °C -0,1 °C 0,0 km/h (0 Bft)
18.03.2019 19:38 -0,1 °C 88 % 1022,2 hPa 0,0 mm 0,0 km/h (0 Bft) S 188 ° 0 min 0,000 mm 0,0 UV-I 0 W/m² -1,8 °C -0,1 °C 0,0 km/h (0 Bft)
18.03.2019 19:39 -0,1 °C 88 % 1022,2 hPa 0,0 mm 0,0 km/h (0 Bft) S 190 ° 0 min 0,000 mm 0,0 UV-I 0 W/m² -1,8 °C -0,1 °C 0,0 km/h (0 Bft)
18.03.2019 19:40 0,0 °C 88 % 1022,2 hPa 0,0 mm 0,0 km/h (0 Bft) S 190 ° 0 min 0,000 mm 0,0 UV-I 0 W/m² -1,7 °C 0,0 °C 0,0 km/h (0 Bft)
18.03.2019 19:41 0,0 °C 88 % 1022,1 hPa 0,0 mm 0,0 km/h (0 Bft) S 190 ° 0 min 0,000 mm 0,0 UV-I 0 W/m² -1,7 °C 0,0 °C 0,0 km/h (0 Bft)
18.03.2019 19:42 0,1 °C 88 % 1022,2 hPa 0,0 mm 0,0 km/h (0 Bft) S 190 ° 0 min 0,000 mm 0,0 UV-I 0 W/m² -1,6 °C 0,1 °C 0,0 km/h (0 Bft)
18.03.2019 19:43 0,1 °C 88 % 1022,2 hPa 0,0 mm 0,0 km/h (0 Bft) S 190 ° 0 min 0,000 mm 0,0 UV-I 0 W/m² -1,6 °C 0,1 °C 0,0 km/h (0 Bft)
18.03.2019 19:44 0,2 °C 87 % 1022,2 hPa 0,0 mm 0,0 km/h (0 Bft) S 188 ° 0 min 0,000 mm 0,0 UV-I 0 W/m² -1,7 °C 0,2 °C 0,0 km/h (0 Bft)
18.03.2019 19:45 0,3 °C 87 % 1022,2 hPa 0,0 mm 0,0 km/h (0 Bft) S 188 ° 0 min 0,000 mm 0,0 UV-I 0 W/m² -1,6 °C 0,3 °C 0,0 km/h (0 Bft)
18.03.2019 19:46 0,3 °C 87 % 1022,2 hPa 0,0 mm 0,0 km/h (0 Bft) S 188 ° 0 min 0,000 mm 0,0 UV-I 0 W/m² -1,6 °C 0,3 °C 0,0 km/h (0 Bft)
18.03.2019 19:47 0,4 °C 87 % 1022,2 hPa 0,0 mm 0,0 km/h (0 Bft) S 188 ° 0 min 0,000 mm 0,0 UV-I 0 W/m² -1,5 °C 0,4 °C 0,0 km/h (0 Bft)
18.03.2019 19:48 0,4 °C 87 % 1022,2 hPa 0,0 mm 0,0 km/h (0 Bft) S 188 ° 0 min 0,000 mm 0,0 UV-I 0 W/m² -1,5 °C 0,4 °C 0,0 km/h (0 Bft)
18.03.2019 19:49 0,4 °C 87 % 1022,2 hPa 0,0 mm 0,0 km/h (0 Bft) S 188 ° 0 min 0,000 mm 0,0 UV-I 0 W/m² -1,5 °C 0,4 °C 0,0 km/h (0 Bft)
18.03.2019 19:50 0,4 °C 87 % 1022,2 hPa 0,0 mm 0,0 km/h (0 Bft) S 188 ° 0 min 0,000 mm 0,0 UV-I 0 W/m² -1,5 °C 0,4 °C 0,0 km/h (0 Bft)
18.03.2019 19:51 0,4 °C 86 % 1022,2 hPa 0,0 mm 0,0 km/h (0 Bft) S 186 ° 0 min 0,000 mm 0,0 UV-I 0 W/m² -1,7 °C 0,4 °C 0,0 km/h (0 Bft)
18.03.2019 19:52 0,4 °C 86 % 1022,3 hPa 0,0 mm 4,8 km/h (1 Bft) S-SW 205 ° 0 min 0,000 mm 0,0 UV-I 0 W/m² -1,7 °C -1,0 °C 6,4 km/h (2 Bft)
18.03.2019 19:53 0,4 °C 86 % 1022,2 hPa 0,0 mm 3,2 km/h (1 Bft) S 188 ° 0 min 0,000 mm 0,0 UV-I 0 W/m² -1,7 °C 0,4 °C 4,8 km/h (1 Bft)
18.03.2019 19:54 0,4 °C 86 % 1022,2 hPa 0,0 mm 2,7 km/h (1 Bft) S-SW 207 ° 0 min 0,000 mm 0,0 UV-I 0 W/m² -1,7 °C 0,4 °C 4,8 km/h (1 Bft)
18.03.2019 19:55 0,4 °C 86 % 1022,2 hPa 0,0 mm 3,0 km/h (1 Bft) SW 214 ° 0 min 0,000 mm 0,0 UV-I 0 W/m² -1,7 °C 0,4 °C 4,8 km/h (1 Bft)
18.03.2019 19:56 0,4 °C 86 % 1022,2 hPa 0,0 mm 5,3 km/h (1 Bft) S-SW 200 ° 0 min 0,000 mm 0,0 UV-I 0 W/m² -1,7 °C -1,3 °C 6,4 km/h (2 Bft)
18.03.2019 19:57 0,4 °C 86 % 1022,4 hPa 0,0 mm 4,7 km/h (1 Bft) S-SW 207 ° 0 min 0,000 mm 0,0 UV-I 0 W/m² -1,7 °C -1,0 °C 9,7 km/h (2 Bft)
18.03.2019 19:58 0,4 °C 86 % 1022,3 hPa 0,0 mm 3,6 km/h (1 Bft) S-SW 207 ° 0 min 0,000 mm 0,0 UV-I 0 W/m² -1,7 °C 0,4 °C 4,8 km/h (1 Bft)
18.03.2019 19:59 0,5 °C 86 % 1022,4 hPa 0,0 mm 3,6 km/h (1 Bft) SW 215 ° 0 min 0,000 mm 0,0 UV-I 0 W/m² -1,6 °C 0,5 °C 6,4 km/h (2 Bft)
18.03.2019 20:00 0,5 °C 86 % 1022,4 hPa 0,0 mm 5,4 km/h (1 Bft) SW 215 ° 0 min 0,000 mm 0,0 UV-I 0 W/m² -1,6 °C -1,2 °C 8,0 km/h (2 Bft)
18.03.2019 20:01 0,6 °C 85 % 1022,4 hPa 0,0 mm 4,2 km/h (1 Bft) S-SW 205 ° 0 min 0,000 mm 0,0 UV-I 0 W/m² -1,6 °C 0,6 °C 6,4 km/h (2 Bft)
18.03.2019 20:02 0,6 °C 85 % 1022,5 hPa 0,0 mm 2,3 km/h (1 Bft) S-SW 209 ° 0 min 0,000 mm 0,0 UV-I 0 W/m² -1,6 °C 0,6 °C 6,4 km/h (2 Bft)
18.03.2019 20:03 0,6 °C 85 % 1022,4 hPa 0,0 mm 6,7 km/h (2 Bft) S-SW 200 ° 0 min 0,000 mm 0,0 UV-I 0 W/m² -1,6 °C -1,6 °C 9,7 km/h (2 Bft)
18.03.2019 20:04 0,7 °C 85 % 1022,4 hPa 0,0 mm 6,4 km/h (2 Bft) S 184 ° 0 min 0,000 mm 0,0 UV-I 0 W/m² -1,5 °C -1,4 °C 8,0 km/h (2 Bft)
18.03.2019 20:05 0,7 °C 84 % 1022,5 hPa 0,0 mm 4,5 km/h (1 Bft) SW 225 ° 0 min 0,000 mm 0,0 UV-I 0 W/m² -1,7 °C 0,7 °C 6,4 km/h (2 Bft)
18.03.2019 20:06 0,8 °C 84 % 1022,5 hPa 0,0 mm 4,9 km/h (1 Bft) S-SW 200 ° 0 min 0,000 mm 0,0 UV-I 0 W/m² -1,6 °C -0,6 °C 6,4 km/h (2 Bft)
18.03.2019 20:07 0,8 °C 84 % 1022,5 hPa 0,0 mm 4,6 km/h (1 Bft) S-SW 202 ° 0 min 0,000 mm 0,0 UV-I 0 W/m² -1,6 °C -0,5 °C 6,4 km/h (2 Bft)
18.03.2019 20:08 0,8 °C 83 % 1022,5 hPa 0,0 mm 4,3 km/h (1 Bft) SW 223 ° 0 min 0,000 mm 0,0 UV-I 0 W/m² -1,8 °C 0,8 °C 8,0 km/h (2 Bft)
18.03.2019 20:09 0,9 °C 83 % 1022,5 hPa 0,0 mm 3,6 km/h (1 Bft) SW 222 ° 0 min 0,000 mm 0,0 UV-I 0 W/m² -1,7 °C 0,9 °C 6,4 km/h (2 Bft)
18.03.2019 20:10 0,9 °C 83 % 1022,5 hPa 0,0 mm 3,4 km/h (1 Bft) S-SW 211 ° 0 min 0,000 mm 0,0 UV-I 0 W/m² -1,7 °C 0,9 °C 6,4 km/h (2 Bft)
18.03.2019 20:11 1,0 °C 83 % 1022,5 hPa 0,0 mm 1,1 km/h (1 Bft) S-SW 211 ° 0 min 0,000 mm 0,0 UV-I 0 W/m² -1,6 °C 1,0 °C 3,2 km/h (1 Bft)
18.03.2019 20:12 1,0 °C 82 % 1022,5 hPa 0,0 mm 0,8 km/h (0 Bft) S-SW 212 ° 0 min 0,000 mm 0,0 UV-I 0 W/m² -1,7 °C 1,0 °C 3,2 km/h (1 Bft)
18.03.2019 20:13 1,0 °C 82 % 1022,5 hPa 0,0 mm 2,5 km/h (1 Bft) S-SW 213 ° 0 min 0,000 mm 0,0 UV-I 0 W/m² -1,7 °C 1,0 °C 3,2 km/h (1 Bft)
18.03.2019 20:14 0,9 °C 83 % 1022,5 hPa 0,0 mm 2,8 km/h (1 Bft) W-NW 286 ° 0 min 0,000 mm 0,0 UV-I 0 W/m² -1,7 °C 0,9 °C 4,8 km/h (1 Bft)
18.03.2019 20:15 0,9 °C 84 % 1022,6 hPa 0,0 mm 3,3 km/h (1 Bft) W-NW 287 ° 0 min 0,000 mm 0,0 UV-I 0 W/m² -1,5 °C 0,9 °C 4,8 km/h (1 Bft)
18.03.2019 20:16 0,7 °C 84 % 1022,6 hPa 0,0 mm 1,7 km/h (1 Bft) W-NW 288 ° 0 min 0,000 mm 0,0 UV-I 0 W/m² -1,7 °C 0,7 °C 4,8 km/h (1 Bft)
18.03.2019 20:17 0,7 °C 85 % 1022,6 hPa 0,0 mm 0,2 km/h (0 Bft) W-NW 288 ° 0 min 0,000 mm 0,0 UV-I 0 W/m² -1,5 °C 0,7 °C 1,6 km/h (1 Bft)
18.03.2019 20:18 0,5 °C 85 % 1022,7 hPa 0,0 mm 0,3 km/h (0 Bft) W-NW 288 ° 0 min 0,000 mm 0,0 UV-I 0 W/m² -1,7 °C 0,5 °C 1,6 km/h (1 Bft)
18.03.2019 20:19 0,4 °C 86 % 1022,7 hPa 0,0 mm 0,0 km/h (0 Bft) W-NW 288 ° 0 min 0,000 mm 0,0 UV-I 0 W/m² -1,7 °C 0,4 °C 0,0 km/h (0 Bft)
18.03.2019 20:20 0,3 °C 86 % 1022,7 hPa 0,0 mm 0,0 km/h (0 Bft) W-NW 288 ° 0 min 0,000 mm 0,0 UV-I 0 W/m² -1,8 °C 0,3 °C 0,0 km/h (0 Bft)
18.03.2019 20:21 0,2 °C 87 % 1022,7 hPa 0,0 mm 1,7 km/h (1 Bft) W-NW 288 ° 0 min 0,000 mm 0,0 UV-I 0 W/m² -1,7 °C 0,2 °C 3,2 km/h (1 Bft)
18.03.2019 20:22 0,1 °C 87 % 1022,7 hPa 0,0 mm 0,6 km/h (0 Bft) W-NW 288 ° 0 min 0,000 mm 0,0 UV-I 0 W/m² -1,8 °C 0,1 °C 1,6 km/h (1 Bft)
18.03.2019 20:23 0,1 °C 87 % 1022,7 hPa 0,0 mm 2,9 km/h (1 Bft) W 281 ° 0 min 0,000 mm 0,0 UV-I 0 W/m² -1,8 °C 0,1 °C 9,7 km/h (2 Bft)
18.03.2019 20:24 0,1 °C 88 % 1022,7 hPa 0,0 mm 3,9 km/h (1 Bft) W 280 ° 0 min 0,000 mm 0,0 UV-I 0 W/m² -1,6 °C 0,1 °C 6,4 km/h (2 Bft)
18.03.2019 20:25 0,2 °C 88 % 1022,8 hPa 0,0 mm 5,0 km/h (1 Bft) W-SW 258 ° 0 min 0,000 mm 0,0 UV-I 0 W/m² -1,5 °C -1,4 °C 9,7 km/h (2 Bft)
18.03.2019 20:26 0,2 °C 88 % 1022,8 hPa 0,0 mm 5,3 km/h (1 Bft) W 263 ° 0 min 0,000 mm 0,0 UV-I 0 W/m² -1,5 °C -1,5 °C 6,4 km/h (2 Bft)
18.03.2019 20:27 0,2 °C 88 % 1022,8 hPa 0,0 mm 3,7 km/h (1 Bft) W 263 ° 0 min 0,000 mm 0,0 UV-I 0 W/m² -1,5 °C 0,2 °C 4,8 km/h (1 Bft)
18.03.2019 20:28 0,3 °C 88 % 1022,8 hPa 0,0 mm 4,6 km/h (1 Bft) W-NW 283 ° 0 min 0,000 mm 0,0 UV-I 0 W/m² -1,4 °C -1,1 °C 9,7 km/h (2 Bft)
18.03.2019 20:29 0,3 °C 88 % 1022,8 hPa 0,0 mm 7,3 km/h (2 Bft) W 259 ° 0 min 0,000 mm 0,0 UV-I 0 W/m² -1,4 °C -2,2 °C 9,7 km/h (2 Bft)
18.03.2019 20:30 0,4 °C 88 % 1022,9 hPa 0,0 mm 7,3 km/h (2 Bft) W-SW 258 ° 0 min 0,000 mm 0,0 UV-I 0 W/m² -1,3 °C -2,0 °C 12,9 km/h (3 Bft)
18.03.2019 20:31 0,4 °C 87 % 1022,9 hPa 0,0 mm 8,0 km/h (2 Bft) SW 234 ° 0 min 0,000 mm 0,0 UV-I 0 W/m² -1,5 °C -2,3 °C 11,3 km/h (2 Bft)
18.03.2019 20:32 0,6 °C 87 % 1022,9 hPa 0,0 mm 9,4 km/h (2 Bft) W 273 ° 0 min 0,000 mm 0,0 UV-I 0 W/m² -1,3 °C -2,4 °C 12,9 km/h (3 Bft)
18.03.2019 20:33 0,6 °C 87 % 1022,9 hPa 0,0 mm 5,2 km/h (1 Bft) W 272 ° 0 min 0,000 mm 0,0 UV-I 0 W/m² -1,3 °C -1,0 °C 6,4 km/h (2 Bft)
18.03.2019 20:34 0,7 °C 87 % 1022,9 hPa 0,0 mm 5,3 km/h (1 Bft) W 268 ° 0 min 0,000 mm 0,0 UV-I 0 W/m² -1,2 °C -0,9 °C 9,7 km/h (2 Bft)
18.03.2019 20:35 0,7 °C 87 % 1022,9 hPa 0,0 mm 5,8 km/h (2 Bft) W 275 ° 0 min 0,000 mm 0,0 UV-I 0 W/m² -1,2 °C -1,1 °C 11,3 km/h (2 Bft)
18.03.2019 20:36 0,8 °C 87 % 1022,9 hPa 0,0 mm 2,4 km/h (1 Bft) W-SW 243 ° 0 min 0,000 mm 0,0 UV-I 0 W/m² -1,1 °C 0,8 °C 6,4 km/h (2 Bft)
18.03.2019 20:37 0,8 °C 87 % 1022,9 hPa 0,0 mm 2,8 km/h (1 Bft) W-SW 246 ° 0 min 0,000 mm 0,0 UV-I 0 W/m² -1,1 °C 0,8 °C 4,8 km/h (1 Bft)
18.03.2019 20:38 0,8 °C 87 % 1022,9 hPa 0,0 mm 4,9 km/h (1 Bft) W-SW 256 ° 0 min 0,000 mm 0,0 UV-I 0 W/m² -1,1 °C -0,6 °C 9,7 km/h (2 Bft)
18.03.2019 20:39 0,8 °C 86 % 1022,9 hPa 0,0 mm 4,2 km/h (1 Bft) W 260 ° 0 min 0,000 mm 0,0 UV-I 0 W/m² -1,3 °C 0,8 °C 6,4 km/h (2 Bft)
18.03.2019 20:40 0,8 °C 86 % 1022,9 hPa 0,0 mm 3,6 km/h (1 Bft) SW 234 ° 0 min 0,000 mm 0,0 UV-I 0 W/m² -1,3 °C 0,8 °C 6,4 km/h (2 Bft)
18.03.2019 20:41 0,8 °C 86 % 1022,9 hPa 0,0 mm 3,2 km/h (1 Bft) SW 233 ° 0 min 0,000 mm 0,0 UV-I 0 W/m² -1,3 °C 0,8 °C 4,8 km/h (1 Bft)
18.03.2019 20:42 0,8 °C 86 % 1022,9 hPa 0,0 mm 2,4 km/h (1 Bft) SW 234 ° 0 min 0,000 mm 0,0 UV-I 0 W/m² -1,3 °C 0,8 °C 3,2 km/h (1 Bft)
18.03.2019 20:43 0,8 °C 86 % 1022,9 hPa 0,0 mm 3,9 km/h (1 Bft) SW 234 ° 0 min 0,000 mm 0,0 UV-I 0 W/m² -1,3 °C 0,8 °C 4,8 km/h (1 Bft)
18.03.2019 20:44 0,9 °C 86 % 1022,9 hPa 0,0 mm 4,6 km/h (1 Bft) S-SW 202 ° 0 min 0,000 mm 0,0 UV-I 0 W/m² -1,2 °C -0,4 °C 6,4 km/h (2 Bft)
18.03.2019 20:45 0,9 °C 86 % 1022,9 hPa 0,0 mm 5,4 km/h (1 Bft) S 189 ° 0 min 0,000 mm 0,0 UV-I 0 W/m² -1,2 °C -0,7 °C 8,0 km/h (2 Bft)
18.03.2019 20:46 0,9 °C 86 % 1022,9 hPa 0,0 mm 3,6 km/h (1 Bft) S 186 ° 0 min 0,000 mm 0,0 UV-I 0 W/m² -1,2 °C 0,9 °C 6,4 km/h (2 Bft)
18.03.2019 20:47 0,9 °C 86 % 1022,9 hPa 0,0 mm 4,3 km/h (1 Bft) S-SW 198 ° 0 min 0,000 mm 0,0 UV-I 0 W/m² -1,2 °C 0,9 °C 6,4 km/h (2 Bft)
18.03.2019 20:48 0,9 °C 86 % 1022,9 hPa 0,0 mm 5,0 km/h (1 Bft) S-SW 198 ° 0 min 0,000 mm 0,0 UV-I 0 W/m² -1,2 °C -0,6 °C 6,4 km/h (2 Bft)
18.03.2019 20:49 0,9 °C 86 % 1022,9 hPa 0,0 mm 4,7 km/h (1 Bft) S-SW 198 ° 0 min 0,000 mm 0,0 UV-I 0 W/m² -1,2 °C -0,4 °C 6,4 km/h (2 Bft)
18.03.2019 20:50 0,9 °C 86 % 1022,9 hPa 0,0 mm 1,7 km/h (1 Bft) S-SW 198 ° 0 min 0,000 mm 0,0 UV-I 0 W/m² -1,2 °C 0,9 °C 3,2 km/h (1 Bft)
18.03.2019 20:51 0,9 °C 86 % 1022,9 hPa 0,0 mm 2,7 km/h (1 Bft) S-SW 198 ° 0 min 0,000 mm 0,0 UV-I 0 W/m² -1,2 °C 0,9 °C 4,8 km/h (1 Bft)
18.03.2019 20:52 0,9 °C 86 % 1022,8 hPa 0,0 mm 2,7 km/h (1 Bft) S-SW 198 ° 0 min 0,000 mm 0,0 UV-I 0 W/m² -1,2 °C 0,9 °C 4,8 km/h (1 Bft)
18.03.2019 20:53 0,9 °C 86 % 1022,8 hPa 0,0 mm 3,1 km/h (1 Bft) S-SW 199 ° 0 min 0,000 mm 0,0 UV-I 0 W/m² -1,2 °C 0,9 °C 4,8 km/h (1 Bft)
18.03.2019 20:54 0,8 °C 86 % 1022,8 hPa 0,0 mm 1,1 km/h (1 Bft) S-SW 200 ° 0 min 0,000 mm 0,0 UV-I 0 W/m² -1,3 °C 0,8 °C 3,2 km/h (1 Bft)
18.03.2019 20:55 0,8 °C 86 % 1022,9 hPa 0,0 mm 0,0 km/h (0 Bft) S-SW 199 ° 0 min 0,000 mm 0,0 UV-I 0 W/m² -1,3 °C 0,8 °C 0,0 km/h (0 Bft)
18.03.2019 20:56 0,8 °C 86 % 1022,9 hPa 0,0 mm 0,6 km/h (0 Bft) S-SW 200 ° 0 min 0,000 mm 0,0 UV-I 0 W/m² -1,3 °C 0,8 °C 1,6 km/h (1 Bft)
18.03.2019 20:57 0,8 °C 86 % 1022,9 hPa 0,0 mm 1,6 km/h (1 Bft) S-SW 200 ° 0 min 0,000 mm 0,0 UV-I 0 W/m² -1,3 °C 0,8 °C 3,2 km/h (1 Bft)
18.03.2019 20:58 0,8 °C 87 % 1022,9 hPa 0,0 mm 0,2 km/h (0 Bft) S-SW 199 ° 0 min 0,000 mm 0,0 UV-I 0 W/m² -1,1 °C 0,8 °C 1,6 km/h (1 Bft)
18.03.2019 20:59 0,8 °C 87 % 1022,9 hPa 0,0 mm 0,8 km/h (0 Bft) S-SW 199 ° 0 min 0,000 mm 0,0 UV-I 0 W/m² -1,1 °C 0,8 °C 3,2 km/h (1 Bft)
18.03.2019 21:00 0,8 °C 87 % 1022,9 hPa 0,0 mm 0,4 km/h (0 Bft) S-SW 199 ° 0 min 0,000 mm 0,0 UV-I 0 W/m² -1,1 °C 0,8 °C 1,6 km/h (1 Bft)
18.03.2019 21:01 0,8 °C 87 % 1022,9 hPa 0,0 mm 0,6 km/h (0 Bft) S-SW 199 ° 0 min 0,000 mm 0,0 UV-I 0 W/m² -1,1 °C 0,8 °C 3,2 km/h (1 Bft)
18.03.2019 21:02 0,7 °C 87 % 1022,9 hPa 0,0 mm 1,4 km/h (1 Bft) S-SW 199 ° 0 min 0,000 mm 0,0 UV-I 0 W/m² -1,2 °C 0,7 °C 3,2 km/h (1 Bft)
18.03.2019 21:03 0,7 °C 87 % 1022,9 hPa 0,0 mm 1,7 km/h (1 Bft) S-SW 199 ° 0 min 0,000 mm 0,0 UV-I 0 W/m² -1,2 °C 0,7 °C 3,2 km/h (1 Bft)
18.03.2019 21:04 0,7 °C 87 % 1022,9 hPa 0,0 mm 0,0 km/h (0 Bft) S-SW 199 ° 0 min 0,000 mm 0,0 UV-I 0 W/m² -1,2 °C 0,7 °C 0,0 km/h (0 Bft)
18.03.2019 21:05 0,7 °C 88 % 1022,9 hPa 0,0 mm 0,0 km/h (0 Bft) S-SW 199 ° 0 min 0,000 mm 0,0 UV-I 0 W/m² -1,1 °C 0,7 °C 0,0 km/h (0 Bft)
18.03.2019 21:06 0,7 °C 88 % 1022,9 hPa 0,0 mm 0,0 km/h (0 Bft) S-SW 199 ° 0 min 0,000 mm 0,0 UV-I 0 W/m² -1,1 °C 0,7 °C 0,0 km/h (0 Bft)
18.03.2019 21:07 0,6 °C 88 % 1022,9 hPa 0,0 mm 0,0 km/h (0 Bft) S-SW 199 ° 0 min 0,000 mm 0,0 UV-I 0 W/m² -1,2 °C 0,6 °C 0,0 km/h (0 Bft)
18.03.2019 21:08 0,6 °C 88 % 1022,9 hPa 0,0 mm 0,6 km/h (0 Bft) S-SW 201 ° 0 min 0,000 mm 0,0 UV-I 0 W/m² -1,2 °C 0,6 °C 1,6 km/h (1 Bft)
18.03.2019 21:09 0,6 °C 88 % 1022,9 hPa 0,0 mm 0,8 km/h (0 Bft) S-SW 201 ° 0 min 0,000 mm 0,0 UV-I 0 W/m² -1,2 °C 0,6 °C 1,6 km/h (1 Bft)
18.03.2019 21:10 0,6 °C 88 % 1022,9 hPa 0,0 mm 0,1 km/h (0 Bft) S-SW 201 ° 0 min 0,000 mm 0,0 UV-I 0 W/m² -1,2 °C 0,6 °C 1,6 km/h (1 Bft)
18.03.2019 21:11 0,6 °C 88 % 1022,9 hPa 0,0 mm 0,5 km/h (0 Bft) S-SW 201 ° 0 min 0,000 mm 0,0 UV-I 0 W/m² -1,2 °C 0,6 °C 3,2 km/h (1 Bft)
18.03.2019 21:12 0,5 °C 88 % 1023,0 hPa 0,0 mm 0,0 km/h (0 Bft) S-SW 201 ° 0 min 0,000 mm 0,0 UV-I 0 W/m² -1,3 °C 0,5 °C 0,0 km/h (0 Bft)
18.03.2019 21:13 0,5 °C 89 % 1022,9 hPa 0,0 mm 0,0 km/h (0 Bft) S-SW 201 ° 0 min 0,000 mm 0,0 UV-I 0 W/m² -1,1 °C 0,5 °C 0,0 km/h (0 Bft)
18.03.2019 21:14 0,5 °C 89 % 1022,9 hPa 0,0 mm 0,9 km/h (0 Bft) S-SW 201 ° 0 min 0,000 mm 0,0 UV-I 0 W/m² -1,1 °C 0,5 °C 1,6 km/h (1 Bft)
18.03.2019 21:15 0,5 °C 89 % 1023,0 hPa 0,0 mm 2,5 km/h (1 Bft) S-SW 201 ° 0 min 0,000 mm 0,0 UV-I 0 W/m² -1,1 °C 0,5 °C 3,2 km/h (1 Bft)
18.03.2019 21:16 0,5 °C 89 % 1023,0 hPa 0,0 mm 0,3 km/h (0 Bft) S-SW 201 ° 0 min 0,000 mm 0,0 UV-I 0 W/m² -1,1 °C 0,5 °C 3,2 km/h (1 Bft)
18.03.2019 21:17 0,6 °C 89 % 1023,0 hPa 0,0 mm 3,0 km/h (1 Bft) S-SW 211 ° 0 min 0,000 mm 0,0 UV-I 0 W/m² -1,0 °C 0,6 °C 4,8 km/h (1 Bft)
18.03.2019 21:18 0,6 °C 89 % 1023,0 hPa 0,0 mm 0,7 km/h (0 Bft) S-SW 211 ° 0 min 0,000 mm 0,0 UV-I 0 W/m² -1,0 °C 0,6 °C 3,2 km/h (1 Bft)
18.03.2019 21:19 0,6 °C 89 % 1023,0 hPa 0,0 mm 2,7 km/h (1 Bft) S-SW 211 ° 0 min 0,000 mm 0,0 UV-I 0 W/m² -1,0 °C 0,6 °C 4,8 km/h (1 Bft)
18.03.2019 21:20 0,6 °C 88 % 1023,0 hPa 0,0 mm 0,9 km/h (0 Bft) S-SW 211 ° 0 min 0,000 mm 0,0 UV-I 0 W/m² -1,2 °C 0,6 °C 3,2 km/h (1 Bft)
18.03.2019 21:21 0,6 °C 88 % 1023,0 hPa 0,0 mm 2,0 km/h (1 Bft) S-SW 211 ° 0 min 0,000 mm 0,0 UV-I 0 W/m² -1,2 °C 0,6 °C 3,2 km/h (1 Bft)
18.03.2019 21:22 0,6 °C 88 % 1023,0 hPa 0,0 mm 1,7 km/h (1 Bft) S-SW 211 ° 0 min 0,000 mm 0,0 UV-I 0 W/m² -1,2 °C 0,6 °C 3,2 km/h (1 Bft)
18.03.2019 21:23 0,6 °C 88 % 1023,0 hPa 0,0 mm 2,9 km/h (1 Bft) SW 219 ° 0 min 0,000 mm 0,0 UV-I 0 W/m² -1,2 °C 0,6 °C 4,8 km/h (1 Bft)
18.03.2019 21:24 0,6 °C 88 % 1023,0 hPa 0,0 mm 2,8 km/h (1 Bft) S-SW 207 ° 0 min 0,000 mm 0,0 UV-I 0 W/m² -1,2 °C 0,6 °C 6,4 km/h (2 Bft)
18.03.2019 21:25 0,6 °C 88 % 1023,1 hPa 0,0 mm 2,7 km/h (1 Bft) S-SW 207 ° 0 min 0,000 mm 0,0 UV-I 0 W/m² -1,2 °C 0,6 °C 3,2 km/h (1 Bft)
18.03.2019 21:26 0,6 °C 88 % 1023,1 hPa 0,0 mm 2,1 km/h (1 Bft) S-SW 207 ° 0 min 0,000 mm 0,0 UV-I 0 W/m² -1,2 °C 0,6 °C 4,8 km/h (1 Bft)
18.03.2019 21:27 0,6 °C 88 % 1023,1 hPa 0,0 mm 1,0 km/h (0 Bft) S-SW 207 ° 0 min 0,000 mm 0,0 UV-I 0 W/m² -1,2 °C 0,6 °C 3,2 km/h (1 Bft)
18.03.2019 21:28 0,6 °C 88 % 1023,1 hPa 0,0 mm 3,5 km/h (1 Bft) S-SW 207 ° 0 min 0,000 mm 0,0 UV-I 0 W/m² -1,2 °C 0,6 °C 4,8 km/h (1 Bft)
18.03.2019 21:29 0,6 °C 88 % 1023,1 hPa 0,0 mm 3,8 km/h (1 Bft) S-SW 207 ° 0 min 0,000 mm 0,0 UV-I 0 W/m² -1,2 °C 0,6 °C 4,8 km/h (1 Bft)
18.03.2019 21:30 0,6 °C 88 % 1023,1 hPa 0,0 mm 0,9 km/h (0 Bft) S-SW 207 ° 0 min 0,000 mm 0,0 UV-I 0 W/m² -1,2 °C 0,6 °C 3,2 km/h (1 Bft)
18.03.2019 21:31 0,6 °C 88 % 1023,1 hPa 0,0 mm 1,5 km/h (1 Bft) S-SW 207 ° 0 min 0,000 mm 0,0 UV-I 0 W/m² -1,2 °C 0,6 °C 3,2 km/h (1 Bft)
18.03.2019 21:32 0,6 °C 88 % 1023,1 hPa 0,0 mm 0,5 km/h (0 Bft) S-SW 209 ° 0 min 0,000 mm 0,0 UV-I 0 W/m² -1,2 °C 0,6 °C 3,2 km/h (1 Bft)
18.03.2019 21:33 0,6 °C 88 % 1023,1 hPa 0,0 mm 3,6 km/h (1 Bft) S-SW 209 ° 0 min 0,000 mm 0,0 UV-I 0 W/m² -1,2 °C 0,6 °C 4,8 km/h (1 Bft)
18.03.2019 21:34 0,6 °C 88 % 1023,1 hPa 0,0 mm 4,6 km/h (1 Bft) S-SW 209 ° 0 min 0,000 mm 0,0 UV-I 0 W/m² -1,2 °C -0,7 °C 6,4 km/h (2 Bft)
18.03.2019 21:35 0,7 °C 87 % 1023,1 hPa 0,0 mm 3,4 km/h (1 Bft) S-SW 207 ° 0 min 0,000 mm 0,0 UV-I 0 W/m² -1,2 °C 0,7 °C 4,8 km/h (1 Bft)
18.03.2019 21:36 0,6 °C 88 % 1023,1 hPa 0,0 mm 2,1 km/h (1 Bft) S-SW 207 ° 0 min 0,000 mm 0,0 UV-I 0 W/m² -1,2 °C 0,6 °C 3,2 km/h (1 Bft)
18.03.2019 21:37 0,7 °C 87 % 1023,2 hPa 0,0 mm 2,0 km/h (1 Bft) S-SW 212 ° 0 min 0,000 mm 0,0 UV-I 0 W/m² -1,2 °C 0,7 °C 4,8 km/h (1 Bft)
18.03.2019 21:38 0,7 °C 87 % 1023,2 hPa 0,0 mm 4,1 km/h (1 Bft) S-SW 209 ° 0 min 0,000 mm 0,0 UV-I 0 W/m² -1,2 °C 0,7 °C 4,8 km/h (1 Bft)
18.03.2019 21:39 0,7 °C 87 % 1023,1 hPa 0,0 mm 3,3 km/h (1 Bft) S-SW 203 ° 0 min 0,000 mm 0,0 UV-I 0 W/m² -1,2 °C 0,7 °C 6,4 km/h (2 Bft)
18.03.2019 21:40 0,7 °C 87 % 1023,2 hPa 0,0 mm 3,6 km/h (1 Bft) S-SW 212 ° 0 min 0,000 mm 0,0 UV-I 0 W/m² -1,2 °C 0,7 °C 6,4 km/h (2 Bft)
18.03.2019 21:41 0,7 °C 87 % 1023,2 hPa 0,0 mm 5,2 km/h (1 Bft) W-NW 290 ° 0 min 0,000 mm 0,0 UV-I 0 W/m² -1,2 °C -0,9 °C 8,0 km/h (2 Bft)
18.03.2019 21:42 0,7 °C 86 % 1023,2 hPa 0,0 mm 4,4 km/h (1 Bft) S-SW 213 ° 0 min 0,000 mm 0,0 UV-I 0 W/m² -1,4 °C 0,7 °C 6,4 km/h (2 Bft)
18.03.2019 21:43 0,7 °C 86 % 1023,2 hPa 0,0 mm 4,7 km/h (1 Bft) S-SW 192 ° 0 min 0,000 mm 0,0 UV-I 0 W/m² -1,4 °C -0,7 °C 6,4 km/h (2 Bft)
18.03.2019 21:44 0,8 °C 86 % 1023,2 hPa 0,0 mm 3,9 km/h (1 Bft) W-SW 255 ° 0 min 0,000 mm 0,0 UV-I 0 W/m² -1,3 °C 0,8 °C 6,4 km/h (2 Bft)
18.03.2019 21:45 0,8 °C 86 % 1023,2 hPa 0,0 mm 5,2 km/h (1 Bft) W-SW 257 ° 0 min 0,000 mm 0,0 UV-I 0 W/m² -1,3 °C -0,8 °C 6,4 km/h (2 Bft)
18.03.2019 21:46 0,8 °C 86 % 1023,2 hPa 0,0 mm 5,8 km/h (2 Bft) W 262 ° 0 min 0,000 mm 0,0 UV-I 0 W/m² -1,3 °C -1,0 °C 6,4 km/h (2 Bft)
18.03.2019 21:47 0,8 °C 86 % 1023,3 hPa 0,0 mm 5,3 km/h (1 Bft) W 259 ° 0 min 0,000 mm 0,0 UV-I 0 W/m² -1,3 °C -0,8 °C 9,7 km/h (2 Bft)
18.03.2019 21:48 0,8 °C 86 % 1023,2 hPa 0,0 mm 4,2 km/h (1 Bft) W-SW 247 ° 0 min 0,000 mm 0,0 UV-I 0 W/m² -1,3 °C 0,8 °C 6,4 km/h (2 Bft)
18.03.2019 21:49 0,8 °C 86 % 1023,3 hPa 0,0 mm 4,1 km/h (1 Bft) SW 234 ° 0 min 0,000 mm 0,0 UV-I 0 W/m² -1,3 °C 0,8 °C 4,8 km/h (1 Bft)
18.03.2019 21:50 0,8 °C 85 % 1023,3 hPa 0,0 mm 6,0 km/h (2 Bft) SW 214 ° 0 min 0,000 mm 0,0 UV-I 0 W/m² -1,4 °C -1,1 °C 11,3 km/h (2 Bft)
18.03.2019 21:51 0,9 °C 85 % 1023,3 hPa 0,0 mm 3,8 km/h (1 Bft) S-SW 213 ° 0 min 0,000 mm 0,0 UV-I 0 W/m² -1,3 °C 0,9 °C 8,0 km/h (2 Bft)
18.03.2019 21:52 0,9 °C 85 % 1023,4 hPa 0,0 mm 3,1 km/h (1 Bft) SW 214 ° 0 min 0,000 mm 0,0 UV-I 0 W/m² -1,3 °C 0,9 °C 4,8 km/h (1 Bft)
18.03.2019 21:53 0,9 °C 85 % 1023,3 hPa 0,0 mm 3,1 km/h (1 Bft) S-SW 213 ° 0 min 0,000 mm 0,0 UV-I 0 W/m² -1,3 °C 0,9 °C 4,8 km/h (1 Bft)
18.03.2019 21:54 0,9 °C 85 % 1023,3 hPa 0,0 mm 3,4 km/h (1 Bft) SW 216 ° 0 min 0,000 mm 0,0 UV-I 0 W/m² -1,3 °C 0,9 °C 4,8 km/h (1 Bft)
18.03.2019 21:55 0,9 °C 85 % 1023,3 hPa 0,0 mm 2,3 km/h (1 Bft) SW 216 ° 0 min 0,000 mm 0,0 UV-I 0 W/m² -1,3 °C 0,9 °C 4,8 km/h (1 Bft)
18.03.2019 21:56 0,9 °C 85 % 1023,3 hPa 0,0 mm 2,5 km/h (1 Bft) SW 216 ° 0 min 0,000 mm 0,0 UV-I 0 W/m² -1,3 °C 0,9 °C 4,8 km/h (1 Bft)
18.03.2019 21:57 0,9 °C 85 % 1023,3 hPa 0,0 mm 3,9 km/h (1 Bft) SW 232 ° 0 min 0,000 mm 0,0 UV-I 0 W/m² -1,3 °C 0,9 °C 6,4 km/h (2 Bft)
18.03.2019 21:58 0,9 °C 85 % 1023,3 hPa 0,0 mm 5,0 km/h (1 Bft) W-SW 252 ° 0 min 0,000 mm 0,0 UV-I 0 W/m² -1,3 °C -0,6 °C 6,4 km/h (2 Bft)
18.03.2019 21:59 0,8 °C 85 % 1023,3 hPa 0,0 mm 5,2 km/h (1 Bft) W 276 ° 0 min 0,000 mm 0,0 UV-I 0 W/m² -1,4 °C -0,8 °C 6,4 km/h (2 Bft)
18.03.2019 22:00 0,9 °C 85 % 1023,3 hPa 0,0 mm 3,9 km/h (1 Bft) W 271 ° 0 min 0,000 mm 0,0 UV-I 0 W/m² -1,3 °C 0,9 °C 6,4 km/h (2 Bft)
18.03.2019 22:01 0,8 °C 85 % 1023,4 hPa 0,0 mm 5,4 km/h (1 Bft) W-SW 246 ° 0 min 0,000 mm 0,0 UV-I 0 W/m² -1,4 °C -0,9 °C 9,7 km/h (2 Bft)
18.03.2019 22:02 0,9 °C 85 % 1023,4 hPa 0,0 mm 8,4 km/h (2 Bft) W-SW 250 ° 0 min 0,000 mm 0,0 UV-I 0 W/m² -1,3 °C -1,8 °C 12,9 km/h (3 Bft)
18.03.2019 22:03 0,8 °C 85 % 1023,4 hPa 0,0 mm 6,9 km/h (2 Bft) W 267 ° 0 min 0,000 mm 0,0 UV-I 0 W/m² -1,4 °C -1,4 °C 9,7 km/h (2 Bft)
18.03.2019 22:04 0,8 °C 85 % 1023,4 hPa 0,0 mm 6,4 km/h (2 Bft) W-SW 250 ° 0 min 0,000 mm 0,0 UV-I 0 W/m² -1,4 °C -1,3 °C 9,7 km/h (2 Bft)
18.03.2019 22:05 0,8 °C 85 % 1023,4 hPa 0,0 mm 6,6 km/h (2 Bft) SW 236 ° 0 min 0,000 mm 0,0 UV-I 0 W/m² -1,4 °C -1,3 °C 9,7 km/h (2 Bft)
18.03.2019 22:06 0,8 °C 85 % 1023,4 hPa 0,0 mm 3,4 km/h (1 Bft) W-SW 257 ° 0 min 0,000 mm 0,0 UV-I 0 W/m² -1,4 °C 0,8 °C 6,4 km/h (2 Bft)
18.03.2019 22:07 0,8 °C 85 % 1023,4 hPa 0,0 mm 2,3 km/h (1 Bft) W 259 ° 0 min 0,000 mm 0,0 UV-I 0 W/m² -1,4 °C 0,8 °C 4,8 km/h (1 Bft)
18.03.2019 22:08 0,8 °C 85 % 1023,4 hPa 0,0 mm 5,0 km/h (1 Bft) W-SW 241 ° 0 min 0,000 mm 0,0 UV-I 0 W/m² -1,4 °C -0,7 °C 8,0 km/h (2 Bft)
18.03.2019 22:09 0,8 °C 86 % 1023,4 hPa 0,0 mm 7,6 km/h (2 Bft) W-NW 286 ° 0 min 0,000 mm 0,0 UV-I 0 W/m² -1,3 °C -1,7 °C 12,9 km/h (3 Bft)
18.03.2019 22:10 0,8 °C 86 % 1023,4 hPa 0,0 mm 9,7 km/h (2 Bft) SW 229 ° 0 min 0,000 mm 0,0 UV-I 0 W/m² -1,3 °C -2,3 °C 12,9 km/h (3 Bft)
18.03.2019 22:11 0,8 °C 86 % 1023,5 hPa 0,0 mm 5,6 km/h (1 Bft) W 259 ° 0 min 0,000 mm 0,0 UV-I 0 W/m² -1,3 °C -0,9 °C 8,0 km/h (2 Bft)
18.03.2019 22:12 0,7 °C 86 % 1023,4 hPa 0,0 mm 9,9 km/h (2 Bft) W 267 ° 0 min 0,000 mm 0,0 UV-I 0 W/m² -1,4 °C -2,5 °C 16,1 km/h (3 Bft)
18.03.2019 22:13 0,7 °C 86 % 1023,4 hPa 0,0 mm 7,8 km/h (2 Bft) W 272 ° 0 min 0,000 mm 0,0 UV-I 0 W/m² -1,4 °C -1,9 °C 11,3 km/h (2 Bft)
18.03.2019 22:14 0,7 °C 86 % 1023,4 hPa 0,0 mm 6,6 km/h (2 Bft) W-SW 248 ° 0 min 0,000 mm 0,0 UV-I 0 W/m² -1,4 °C -1,4 °C 9,7 km/h (2 Bft)
18.03.2019 22:15 0,7 °C 86 % 1023,4 hPa 0,0 mm 6,5 km/h (2 Bft) W 263 ° 0 min 0,000 mm 0,0 UV-I 0 W/m² -1,4 °C -1,4 °C 12,9 km/h (3 Bft)
18.03.2019 22:16 0,7 °C 86 % 1023,4 hPa 0,0 mm 6,6 km/h (2 Bft) W 261 ° 0 min 0,000 mm 0,0 UV-I 0 W/m² -1,4 °C -1,4 °C 11,3 km/h (2 Bft)
18.03.2019 22:17 0,7 °C 87 % 1023,4 hPa 0,0 mm 4,8 km/h (1 Bft) W-SW 252 ° 0 min 0,000 mm 0,0 UV-I 0 W/m² -1,2 °C -0,7 °C 6,4 km/h (2 Bft)
18.03.2019 22:18 0,6 °C 87 % 1023,4 hPa 0,0 mm 5,0 km/h (1 Bft) W-SW 254 ° 0 min 0,000 mm 0,0 UV-I 0 W/m² -1,3 °C -0,9 °C 6,4 km/h (2 Bft)
18.03.2019 22:19 0,6 °C 87 % 1023,4 hPa 0,0 mm 3,2 km/h (1 Bft) W-SW 258 ° 0 min 0,000 mm 0,0 UV-I 0 W/m² -1,3 °C 0,6 °C 4,8 km/h (1 Bft)
18.03.2019 22:20 0,6 °C 87 % 1023,4 hPa 0,0 mm 6,7 km/h (2 Bft) S-SW 196 ° 0 min 0,000 mm 0,0 UV-I 0 W/m² -1,3 °C -1,6 °C 11,3 km/h (2 Bft)
18.03.2019 22:21 0,6 °C 87 % 1023,4 hPa 0,0 mm 4,5 km/h (1 Bft) W-SW 242 ° 0 min 0,000 mm 0,0 UV-I 0 W/m² -1,3 °C 0,6 °C 8,0 km/h (2 Bft)
18.03.2019 22:22 0,5 °C 87 % 1023,4 hPa 0,0 mm 3,4 km/h (1 Bft) SW 236 ° 0 min 0,000 mm 0,0 UV-I 0 W/m² -1,4 °C 0,5 °C 4,8 km/h (1 Bft)
18.03.2019 22:23 0,5 °C 87 % 1023,4 hPa 0,0 mm 5,7 km/h (1 Bft) W 270 ° 0 min 0,000 mm 0,0 UV-I 0 W/m² -1,4 °C -1,3 °C 12,9 km/h (3 Bft)
18.03.2019 22:24 0,5 °C 87 % 1023,4 hPa 0,0 mm 7,1 km/h (2 Bft) W-SW 253 ° 0 min 0,000 mm 0,0 UV-I 0 W/m² -1,4 °C -1,9 °C 12,9 km/h (3 Bft)
18.03.2019 22:25 0,4 °C 87 % 1023,4 hPa 0,0 mm 4,4 km/h (1 Bft) W-SW 252 ° 0 min 0,000 mm 0,0 UV-I 0 W/m² -1,5 °C 0,4 °C 6,4 km/h (2 Bft)
18.03.2019 22:26 0,4 °C 87 % 1023,4 hPa 0,0 mm 4,1 km/h (1 Bft) W-SW 258 ° 0 min 0,000 mm 0,0 UV-I 0 W/m² -1,5 °C 0,4 °C 4,8 km/h (1 Bft)
18.03.2019 22:27 0,4 °C 87 % 1023,4 hPa 0,0 mm 4,2 km/h (1 Bft) W-SW 258 ° 0 min 0,000 mm 0,0 UV-I 0 W/m² -1,5 °C 0,4 °C 8,0 km/h (2 Bft)
18.03.2019 22:28 0,4 °C 87 % 1023,4 hPa 0,0 mm 6,1 km/h (2 Bft) W 277 ° 0 min 0,000 mm 0,0 UV-I 0 W/m² -1,5 °C -1,6 °C 9,7 km/h (2 Bft)
18.03.2019 22:29 0,4 °C 87 % 1023,4 hPa 0,0 mm 4,6 km/h (1 Bft) W 264 ° 0 min 0,000 mm 0,0 UV-I 0 W/m² -1,5 °C -0,9 °C 8,0 km/h (2 Bft)
18.03.2019 22:30 0,4 °C 87 % 1023,4 hPa 0,0 mm 4,3 km/h (1 Bft) W 265 ° 0 min 0,000 mm 0,0 UV-I 0 W/m² -1,5 °C 0,4 °C 6,4 km/h (2 Bft)
18.03.2019 22:31 0,4 °C 87 % 1023,5 hPa 0,0 mm 5,0 km/h (1 Bft) W 273 ° 0 min 0,000 mm 0,0 UV-I 0 W/m² -1,5 °C -1,1 °C 6,4 km/h (2 Bft)
18.03.2019 22:32 0,4 °C 87 % 1023,5 hPa 0,0 mm 3,6 km/h (1 Bft) W 274 ° 0 min 0,000 mm 0,0 UV-I 0 W/m² -1,5 °C 0,4 °C 4,8 km/h (1 Bft)
18.03.2019 22:33 0,4 °C 87 % 1023,5 hPa 0,0 mm 4,4 km/h (1 Bft) W-NW 288 ° 0 min 0,000 mm 0,0 UV-I 0 W/m² -1,5 °C 0,4 °C 4,8 km/h (1 Bft)
18.03.2019 22:34 0,4 °C 88 % 1023,5 hPa 0,0 mm 5,0 km/h (1 Bft) W-SW 251 ° 0 min 0,000 mm 0,0 UV-I 0 W/m² -1,3 °C -1,1 °C 9,7 km/h (2 Bft)
18.03.2019 22:35 0,4 °C 88 % 1023,5 hPa 0,0 mm 11,5 km/h (2 Bft) W 265 ° 0 min 0,000 mm 0,0 UV-I 0 W/m² -1,3 °C -3,2 °C 17,7 km/h (3 Bft)
18.03.2019 22:36 0,4 °C 88 % 1023,5 hPa 0,0 mm 6,0 km/h (2 Bft) W 266 ° 0 min 0,000 mm 0,0 UV-I 0 W/m² -1,3 °C -1,6 °C 12,9 km/h (3 Bft)
18.03.2019 22:37 0,4 °C 88 % 1023,5 hPa 0,0 mm 8,2 km/h (2 Bft) W 269 ° 0 min 0,000 mm 0,0 UV-I 0 W/m² -1,3 °C -2,3 °C 11,3 km/h (2 Bft)
18.03.2019 22:38 0,4 °C 88 % 1023,5 hPa 0,0 mm 8,9 km/h (2 Bft) W-SW 253 ° 0 min 0,000 mm 0,0 UV-I 0 W/m² -1,3 °C -2,5 °C 14,5 km/h (3 Bft)
18.03.2019 22:39 0,4 °C 88 % 1023,5 hPa 0,0 mm 6,1 km/h (2 Bft) W 261 ° 0 min 0,000 mm 0,0 UV-I 0 W/m² -1,3 °C -1,6 °C 11,3 km/h (2 Bft)
18.03.2019 22:40 0,5 °C 88 % 1023,5 hPa 0,0 mm 8,7 km/h (2 Bft) SW 236 ° 0 min 0,000 mm 0,0 UV-I 0 W/m² -1,3 °C -2,4 °C 12,9 km/h (3 Bft)
18.03.2019 22:41 0,5 °C 88 % 1023,5 hPa 0,0 mm 6,4 km/h (2 Bft) W-SW 251 ° 0 min 0,000 mm 0,0 UV-I 0 W/m² -1,3 °C -1,6 °C 11,3 km/h (2 Bft)
18.03.2019 22:42 0,5 °C 88 % 1023,5 hPa 0,0 mm 6,8 km/h (2 Bft) W-SW 247 ° 0 min 0,000 mm 0,0 UV-I 0 W/m² -1,3 °C -1,8 °C 9,7 km/h (2 Bft)
18.03.2019 22:43 0,5 °C 88 % 1023,5 hPa 0,0 mm 5,2 km/h (1 Bft) W 259 ° 0 min 0,000 mm 0,0 UV-I 0 W/m² -1,3 °C -1,1 °C 6,4 km/h (2 Bft)
18.03.2019 22:44 0,6 °C 88 % 1023,5 hPa 0,0 mm 5,9 km/h (2 Bft) W-SW 238 ° 0 min 0,000 mm 0,0 UV-I 0 W/m² -1,2 °C -1,3 °C 9,7 km/h (2 Bft)
18.03.2019 22:45 0,6 °C 88 % 1023,5 hPa 0,0 mm 4,7 km/h (1 Bft) S-SW 213 ° 0 min 0,000 mm 0,0 UV-I 0 W/m² -1,2 °C -0,8 °C 9,7 km/h (2 Bft)
18.03.2019 22:46 0,6 °C 88 % 1023,4 hPa 0,0 mm 7,0 km/h (2 Bft) SW 230 ° 0 min 0,000 mm 0,0 UV-I 0 W/m² -1,2 °C -1,7 °C 11,3 km/h (2 Bft)
18.03.2019 22:47 0,6 °C 88 % 1023,5 hPa 0,0 mm 6,0 km/h (2 Bft) S-SW 208 ° 0 min 0,000 mm 0,0 UV-I 0 W/m² -1,2 °C -1,3 °C 11,3 km/h (2 Bft)
18.03.2019 22:48 0,6 °C 88 % 1023,5 hPa 0,0 mm 5,3 km/h (1 Bft) S 190 ° 0 min 0,000 mm 0,0 UV-I 0 W/m² -1,2 °C -1,0 °C 9,7 km/h (2 Bft)
18.03.2019 22:49 0,6 °C 88 % 1023,4 hPa 0,0 mm 6,4 km/h (2 Bft) W-SW 252 ° 0 min 0,000 mm 0,0 UV-I 0 W/m² -1,2 °C -1,5 °C 9,7 km/h (2 Bft)
18.03.2019 22:50 0,6 °C 87 % 1023,4 hPa 0,0 mm 5,1 km/h (1 Bft) W-SW 239 ° 0 min 0,000 mm 0,0 UV-I 0 W/m² -1,3 °C -1,0 °C 8,0 km/h (2 Bft)
18.03.2019 22:51 0,6 °C 87 % 1023,5 hPa 0,0 mm 4,2 km/h (1 Bft) S-SW 198 ° 0 min 0,000 mm 0,0 UV-I 0 W/m² -1,3 °C 0,6 °C 9,7 km/h (2 Bft)
18.03.2019 22:52 0,6 °C 87 % 1023,5 hPa 0,0 mm 8,4 km/h (2 Bft) W-SW 243 ° 0 min 0,000 mm 0,0 UV-I 0 W/m² -1,3 °C -2,2 °C 14,5 km/h (3 Bft)
18.03.2019 22:53 0,7 °C 87 % 1023,5 hPa 0,0 mm 6,9 km/h (2 Bft) W 269 ° 0 min 0,000 mm 0,0 UV-I 0 W/m² -1,2 °C -1,6 °C 12,9 km/h (3 Bft)
18.03.2019 22:54 0,6 °C 87 % 1023,5 hPa 0,0 mm 3,4 km/h (1 Bft) W-SW 255 ° 0 min 0,000 mm 0,0 UV-I 0 W/m² -1,3 °C 0,6 °C 4,8 km/h (1 Bft)
18.03.2019 22:55 0,6 °C 87 % 1023,5 hPa 0,0 mm 6,2 km/h (2 Bft) W-SW 238 ° 0 min 0,000 mm 0,0 UV-I 0 W/m² -1,3 °C -1,4 °C 11,3 km/h (2 Bft)
18.03.2019 22:56 0,6 °C 87 % 1023,5 hPa 0,0 mm 6,3 km/h (2 Bft) S 190 ° 0 min 0,000 mm 0,0 UV-I 0 W/m² -1,3 °C -1,5 °C 11,3 km/h (2 Bft)
18.03.2019 22:57 0,6 °C 88 % 1023,5 hPa 0,0 mm 8,2 km/h (2 Bft) SW 217 ° 0 min 0,000 mm 0,0 UV-I 0 W/m² -1,2 °C -2,1 °C 11,3 km/h (2 Bft)
18.03.2019 22:58 0,6 °C 87 % 1023,6 hPa 0,0 mm 4,8 km/h (1 Bft) SW 221 ° 0 min 0,000 mm 0,0 UV-I 0 W/m² -1,3 °C -0,8 °C 8,0 km/h (2 Bft)
18.03.2019 22:59 0,6 °C 87 % 1023,6 hPa 0,0 mm 6,2 km/h (2 Bft) W-SW 246 ° 0 min 0,000 mm 0,0 UV-I 0 W/m² -1,3 °C -1,4 °C 11,3 km/h (2 Bft)
18.03.2019 23:00 0,6 °C 87 % 1023,6 hPa 0,0 mm 3,9 km/h (1 Bft) W-SW 244 ° 0 min 0,000 mm 0,0 UV-I 0 W/m² -1,3 °C 0,6 °C 6,4 km/h (2 Bft)
18.03.2019 23:01 0,6 °C 87 % 1023,5 hPa 0,0 mm 2,7 km/h (1 Bft) W 268 ° 0 min 0,000 mm 0,0 UV-I 0 W/m² -1,3 °C 0,6 °C 4,8 km/h (1 Bft)
18.03.2019 23:02 0,6 °C 87 % 1023,6 hPa 0,0 mm 6,4 km/h (2 Bft) W-SW 240 ° 0 min 0,000 mm 0,0 UV-I 0 W/m² -1,3 °C -1,5 °C 11,3 km/h (2 Bft)
18.03.2019 23:03 0,6 °C 87 % 1023,6 hPa 0,0 mm 5,0 km/h (1 Bft) W 260 ° 0 min 0,000 mm 0,0 UV-I 0 W/m² -1,3 °C -0,9 °C 6,4 km/h (2 Bft)
18.03.2019 23:04 0,6 °C 87 % 1023,6 hPa 0,0 mm 7,8 km/h (2 Bft) W-SW 249 ° 0 min 0,000 mm 0,0 UV-I 0 W/m² -1,3 °C -2,0 °C 12,9 km/h (3 Bft)
18.03.2019 23:05 0,6 °C 87 % 1023,6 hPa 0,0 mm 6,3 km/h (2 Bft) W-SW 237 ° 0 min 0,000 mm 0,0 UV-I 0 W/m² -1,3 °C -1,5 °C 11,3 km/h (2 Bft)
18.03.2019 23:06 0,6 °C 87 % 1023,6 hPa 0,0 mm 8,5 km/h (2 Bft) SW 214 ° 0 min 0,000 mm 0,0 UV-I 0 W/m² -1,3 °C -2,2 °C 14,5 km/h (3 Bft)
18.03.2019 23:07 0,6 °C 87 % 1023,7 hPa 0,0 mm 8,7 km/h (2 Bft) S-SW 193 ° 0 min 0,000 mm 0,0 UV-I 0 W/m² -1,3 °C -2,2 °C 12,9 km/h (3 Bft)
18.03.2019 23:08 0,6 °C 87 % 1023,7 hPa 0,0 mm 7,2 km/h (2 Bft) S-SW 212 ° 0 min 0,000 mm 0,0 UV-I 0 W/m² -1,3 °C -1,8 °C 9,7 km/h (2 Bft)
18.03.2019 23:09 0,6 °C 87 % 1023,7 hPa 0,0 mm 7,2 km/h (2 Bft) S 188 ° 0 min 0,000 mm 0,0 UV-I 0 W/m² -1,3 °C -1,8 °C 12,9 km/h (3 Bft)
18.03.2019 23:10 0,6 °C 87 % 1023,7 hPa 0,0 mm 7,2 km/h (2 Bft) S-SW 205 ° 0 min 0,000 mm 0,0 UV-I 0 W/m² -1,3 °C -1,8 °C 14,5 km/h (3 Bft)
18.03.2019 23:11 0,6 °C 87 % 1023,7 hPa 0,0 mm 5,4 km/h (1 Bft) S-SW 200 ° 0 min 0,000 mm 0,0 UV-I 0 W/m² -1,3 °C -1,1 °C 9,7 km/h (2 Bft)
18.03.2019 23:12 0,7 °C 87 % 1023,7 hPa 0,0 mm 8,5 km/h (2 Bft) S-SW 199 ° 0 min 0,000 mm 0,0 UV-I 0 W/m² -1,2 °C -2,1 °C 11,3 km/h (2 Bft)
18.03.2019 23:13 0,7 °C 86 % 1023,7 hPa 0,0 mm 7,0 km/h (2 Bft) S-SW 213 ° 0 min 0,000 mm 0,0 UV-I 0 W/m² -1,4 °C -1,6 °C 9,7 km/h (2 Bft)
18.03.2019 23:14 0,7 °C 86 % 1023,7 hPa 0,0 mm 7,9 km/h (2 Bft) S 187 ° 0 min 0,000 mm 0,0 UV-I 0 W/m² -1,4 °C -1,9 °C 9,7 km/h (2 Bft)
18.03.2019 23:15 0,7 °C 86 % 1023,7 hPa 0,0 mm 5,6 km/h (1 Bft) S-SW 207 ° 0 min 0,000 mm 0,0 UV-I 0 W/m² -1,4 °C -1,1 °C 8,0 km/h (2 Bft)
18.03.2019 23:16 0,7 °C 86 % 1023,7 hPa 0,0 mm 6,9 km/h (2 Bft) S-SW 200 ° 0 min 0,000 mm 0,0 UV-I 0 W/m² -1,4 °C -1,6 °C 9,7 km/h (2 Bft)
18.03.2019 23:17 0,7 °C 86 % 1023,7 hPa 0,0 mm 5,2 km/h (1 Bft) S-SW 207 ° 0 min 0,000 mm 0,0 UV-I 0 W/m² -1,4 °C -0,9 °C 8,0 km/h (2 Bft)
18.03.2019 23:18 0,7 °C 86 % 1023,7 hPa 0,0 mm 7,0 km/h (2 Bft) SW 227 ° 0 min 0,000 mm 0,0 UV-I 0 W/m² -1,4 °C -1,6 °C 9,7 km/h (2 Bft)
18.03.2019 23:19 0,7 °C 86 % 1023,7 hPa 0,0 mm 5,0 km/h (1 Bft) S 182 ° 0 min 0,000 mm 0,0 UV-I 0 W/m² -1,4 °C -0,8 °C 8,0 km/h (2 Bft)
18.03.2019 23:20 0,7 °C 86 % 1023,7 hPa 0,0 mm 6,6 km/h (2 Bft) S-SW 211 ° 0 min 0,000 mm 0,0 UV-I 0 W/m² -1,4 °C -1,4 °C 9,7 km/h (2 Bft)
18.03.2019 23:21 0,7 °C 86 % 1023,7 hPa 0,0 mm 6,6 km/h (2 Bft) S-SW 212 ° 0 min 0,000 mm 0,0 UV-I 0 W/m² -1,4 °C -1,4 °C 8,0 km/h (2 Bft)
18.03.2019 23:22 0,8 °C 85 % 1023,7 hPa 0,0 mm 3,6 km/h (1 Bft) S-SW 205 ° 0 min 0,000 mm 0,0 UV-I 0 W/m² -1,4 °C 0,8 °C 6,4 km/h (2 Bft)
18.03.2019 23:23 0,7 °C 85 % 1023,7 hPa 0,0 mm 3,4 km/h (1 Bft) S-SW 202 ° 0 min 0,000 mm 0,0 UV-I 0 W/m² -1,5 °C 0,7 °C 6,4 km/h (2 Bft)
18.03.2019 23:24 0,8 °C 85 % 1023,7 hPa 0,0 mm 5,2 km/h (1 Bft) S-SW 193 ° 0 min 0,000 mm 0,0 UV-I 0 W/m² -1,4 °C -0,8 °C 6,4 km/h (2 Bft)
18.03.2019 23:25 0,7 °C 85 % 1023,7 hPa 0,0 mm 5,2 km/h (1 Bft) SW 218 ° 0 min 0,000 mm 0,0 UV-I 0 W/m² -1,5 °C -0,9 °C 6,4 km/h (2 Bft)
18.03.2019 23:26 0,7 °C 85 % 1023,7 hPa 0,0 mm 4,0 km/h (1 Bft) SW 219 ° 0 min 0,000 mm 0,0 UV-I 0 W/m² -1,5 °C 0,7 °C 6,4 km/h (2 Bft)
18.03.2019 23:27 0,7 °C 85 % 1023,7 hPa 0,0 mm 3,0 km/h (1 Bft) SW 218 ° 0 min 0,000 mm 0,0 UV-I 0 W/m² -1,5 °C 0,7 °C 4,8 km/h (1 Bft)
18.03.2019 23:28 0,7 °C 85 % 1023,7 hPa 0,0 mm 4,8 km/h (1 Bft) SW 214 ° 0 min 0,000 mm 0,0 UV-I 0 W/m² -1,5 °C -0,7 °C 6,4 km/h (2 Bft)
18.03.2019 23:29 0,7 °C 85 % 1023,7 hPa 0,0 mm 5,7 km/h (1 Bft) W-SW 240 ° 0 min 0,000 mm 0,0 UV-I 0 W/m² -1,5 °C -1,1 °C 8,0 km/h (2 Bft)
18.03.2019 23:30 0,7 °C 85 % 1023,7 hPa 0,0 mm 5,2 km/h (1 Bft) S-SW 212 ° 0 min 0,000 mm 0,0 UV-I 0 W/m² -1,5 °C -0,9 °C 8,0 km/h (2 Bft)
18.03.2019 23:31 0,7 °C 85 % 1023,7 hPa 0,0 mm 3,5 km/h (1 Bft) SW 218 ° 0 min 0,000 mm 0,0 UV-I 0 W/m² -1,5 °C 0,7 °C 6,4 km/h (2 Bft)
18.03.2019 23:32 0,7 °C 85 % 1023,7 hPa 0,0 mm 5,7 km/h (1 Bft) SW 229 ° 0 min 0,000 mm 0,0 UV-I 0 W/m² -1,5 °C -1,1 °C 6,4 km/h (2 Bft)
18.03.2019 23:33 0,7 °C 85 % 1023,7 hPa 0,0 mm 4,1 km/h (1 Bft) S-SW 204 ° 0 min 0,000 mm 0,0 UV-I 0 W/m² -1,5 °C 0,7 °C 8,0 km/h (2 Bft)
18.03.2019 23:34 0,8 °C 85 % 1023,6 hPa 0,0 mm 4,2 km/h (1 Bft) S-SW 207 ° 0 min 0,000 mm 0,0 UV-I 0 W/m² -1,4 °C 0,8 °C 6,4 km/h (2 Bft)
18.03.2019 23:35 0,8 °C 85 % 1023,7 hPa 0,0 mm 5,7 km/h (1 Bft) S-SW 198 ° 0 min 0,000 mm 0,0 UV-I 0 W/m² -1,4 °C -1,0 °C 8,0 km/h (2 Bft)
18.03.2019 23:36 0,8 °C 85 % 1023,7 hPa 0,0 mm 6,4 km/h (2 Bft) S-SW 203 ° 0 min 0,000 mm 0,0 UV-I 0 W/m² -1,4 °C -1,3 °C 8,0 km/h (2 Bft)
18.03.2019 23:37 0,8 °C 85 % 1023,7 hPa 0,0 mm 8,7 km/h (2 Bft) S 172 ° 0 min 0,000 mm 0,0 UV-I 0 W/m² -1,4 °C -2,0 °C 11,3 km/h (2 Bft)
18.03.2019 23:38 0,8 °C 85 % 1023,7 hPa 0,0 mm 5,8 km/h (2 Bft) S-SW 199 ° 0 min 0,000 mm 0,0 UV-I 0 W/m² -1,4 °C -1,0 °C 9,7 km/h (2 Bft)
18.03.2019 23:39 0,8 °C 85 % 1023,7 hPa 0,0 mm 6,1 km/h (2 Bft) S-SW 211 ° 0 min 0,000 mm 0,0 UV-I 0 W/m² -1,4 °C -1,1 °C 8,0 km/h (2 Bft)
18.03.2019 23:40 0,8 °C 85 % 1023,7 hPa 0,0 mm 6,2 km/h (2 Bft) SW 226 ° 0 min 0,000 mm 0,0 UV-I 0 W/m² -1,4 °C -1,2 °C 8,0 km/h (2 Bft)
18.03.2019 23:41 0,8 °C 85 % 1023,7 hPa 0,0 mm 5,0 km/h (1 Bft) S-SW 193 ° 0 min 0,000 mm 0,0 UV-I 0 W/m² -1,4 °C -0,7 °C 6,4 km/h (2 Bft)
18.03.2019 23:42 0,8 °C 85 % 1023,7 hPa 0,0 mm 6,8 km/h (2 Bft) S-SW 196 ° 0 min 0,000 mm 0,0 UV-I 0 W/m² -1,4 °C -1,4 °C 9,7 km/h (2 Bft)
18.03.2019 23:43 0,9 °C 85 % 1023,7 hPa 0,0 mm 5,6 km/h (1 Bft) S 184 ° 0 min 0,000 mm 0,0 UV-I 0 W/m² -1,3 °C -0,8 °C 11,3 km/h (2 Bft)
18.03.2019 23:44 0,9 °C 85 % 1023,7 hPa 0,0 mm 4,8 km/h (1 Bft) S-SW 204 ° 0 min 0,000 mm 0,0 UV-I 0 W/m² -1,3 °C -0,5 °C 8,0 km/h (2 Bft)
18.03.2019 23:45 0,9 °C 84 % 1023,7 hPa 0,0 mm 5,1 km/h (1 Bft) S 178 ° 0 min 0,000 mm 0,0 UV-I 0 W/m² -1,5 °C -0,6 °C 6,4 km/h (2 Bft)
18.03.2019 23:46 0,9 °C 84 % 1023,7 hPa 0,0 mm 5,6 km/h (1 Bft) S-SW 194 ° 0 min 0,000 mm 0,0 UV-I 0 W/m² -1,5 °C -0,8 °C 9,7 km/h (2 Bft)
18.03.2019 23:47 1,0 °C 84 % 1023,7 hPa 0,0 mm 4,3 km/h (1 Bft) S-SW 192 ° 0 min 0,000 mm 0,0 UV-I 0 W/m² -1,4 °C 1,0 °C 8,0 km/h (2 Bft)
18.03.2019 23:48 1,0 °C 84 % 1023,7 hPa 0,0 mm 4,7 km/h (1 Bft) W 266 ° 0 min 0,000 mm 0,0 UV-I 0 W/m² -1,4 °C -0,3 °C 9,7 km/h (2 Bft)
18.03.2019 23:49 1,0 °C 84 % 1023,7 hPa 0,0 mm 6,6 km/h (2 Bft) S-SW 207 ° 0 min 0,000 mm 0,0 UV-I 0 W/m² -1,4 °C -1,1 °C 11,3 km/h (2 Bft)
18.03.2019 23:50 1,0 °C 84 % 1023,7 hPa 0,0 mm 6,2 km/h (2 Bft) SW 218 ° 0 min 0,000 mm 0,0 UV-I 0 W/m² -1,4 °C -1,0 °C 9,7 km/h (2 Bft)
18.03.2019 23:51 1,1 °C 84 % 1023,7 hPa 0,0 mm 6,0 km/h (2 Bft) S 189 ° 0 min 0,000 mm 0,0 UV-I 0 W/m² -1,3 °C -0,8 °C 8,0 km/h (2 Bft)
18.03.2019 23:52 1,0 °C 84 % 1023,7 hPa 0,0 mm 5,3 km/h (1 Bft) S-SW 209 ° 0 min 0,000 mm 0,0 UV-I 0 W/m² -1,4 °C -0,6 °C 6,4 km/h (2 Bft)
18.03.2019 23:53 1,0 °C 84 % 1023,7 hPa 0,0 mm 4,6 km/h (1 Bft) S-SO 167 ° 0 min 0,000 mm 0,0 UV-I 0 W/m² -1,4 °C -0,3 °C 8,0 km/h (2 Bft)
18.03.2019 23:54 0,9 °C 84 % 1023,7 hPa 0,0 mm 5,6 km/h (1 Bft) S-SW 198 ° 0 min 0,000 mm 0,0 UV-I 0 W/m² -1,5 °C -0,8 °C 6,4 km/h (2 Bft)
18.03.2019 23:55 0,9 °C 84 % 1023,7 hPa 0,0 mm 4,8 km/h (1 Bft) S-SW 199 ° 0 min 0,000 mm 0,0 UV-I 0 W/m² -1,5 °C -0,5 °C 6,4 km/h (2 Bft)
18.03.2019 23:56 0,9 °C 84 % 1023,6 hPa 0,0 mm 2,7 km/h (1 Bft) S-SW 198 ° 0 min 0,000 mm 0,0 UV-I 0 W/m² -1,5 °C 0,9 °C 4,8 km/h (1 Bft)
18.03.2019 23:57 0,9 °C 84 % 1023,7 hPa 0,0 mm 3,6 km/h (1 Bft) S-SW 194 ° 0 min 0,000 mm 0,0 UV-I 0 W/m² -1,5 °C 0,9 °C 6,4 km/h (2 Bft)
18.03.2019 23:58 0,9 °C 84 % 1023,7 hPa 0,0 mm 5,7 km/h (1 Bft) SW 233 ° 0 min 0,000 mm 0,0 UV-I 0 W/m² -1,5 °C -0,9 °C 9,7 km/h (2 Bft)
18.03.2019 23:59 0,9 °C 84 % 1023,7 hPa 0,0 mm 4,1 km/h (1 Bft) SW 218 ° 0 min 0,000 mm 0,0 UV-I 0 W/m² -1,5 °C 0,9 °C 4,8 km/h (1 Bft)
_ Min-Zeit 10:52 14:30 00:08 - 21:13 - - - - - - 10:35 10:42 21:13
Minimum _ -0,7 °C 70 % 1013,7 hPa - 0,0 km/h (0 Bft) - - - - - - -2,0 °C -5,7 °C 0,0 km/h (0 Bft)
_ Max-Zeit 14:17 05:24 23:59 15:50 11:59 - - 14:28 13:01 12:35 12:38 13:33 15:57 14:37
Maximum _ 3,8 °C 93 % 1023,7 hPa 0,2 mm 20,7 km/h
W (4 Bft)
- - 1 min 0,228 mm 4,7 UV-I 1002 W/m² 0,4 °C 3,5 °C 27,4 km/h
W-NW (4 Bft)
Durchschnitt _ 0,9 °C 86 % 1018,3 hPa #3,2 mm 5,9 km/h (2 Bft) W - #1:56 h #1,092 mm 2,2 UV-I 116 W/m² -1,2 °C -0,7 °C 9,2 km/h (2 Bft)